[[{"header":{"parameterUnit":"m.s-1","parameterCategory":1,"la1":30.6,"la2":29.2853,"lo1":-89.7004,"lo2":-87.6739,"dy":0.0162,"dx":0.0183,"nx":112,"ny":82,"refTime":"2024-08-18T06:00:00:Z","depth":0,"parameterNumber":2,"parameterNumberName":"U-component_of_WINDS"},"data":[0.0,0.0,0.0,0.0,0.0,0.0,0.0,0.0,0.0,0.0,0.0,0.0,0.0,0.0,0.0,0.0,0.0,0.0,0.0,0.0,0.0,0.0,0.0,0.0,0.0,0.0,0.0,0.0,0.0,0.0,0.0,0.0,0.0,0.0,0.0,0.0,0.0,0.0,0.0,0.0,0.0,0.0,0.0,0.0,0.0,0.0,0.0,0.0,0.0,0.0,0.0,0.0,0.0,0.0,0.0,0.0,0.0,0.0,0.0,0.0,0.0,0.0,0.0,0.0,0.0,0.0,0.0,0.0,0.0,0.0,0.0,0.0,0.0,0.0,0.0,0.0,0.0,0.0,0.0,0.0,0.0,0.0,0.0,0.0,0.0,0.0,0.0,0.0,0.0,0.0,-1.9007,-2.0107,-2.1475,-2.2168,-2.1816,-2.1728,-2.0781,-1.8637,0.0,0.0,0.0,0.0,0.0,0.0,0.0,0.0,0.0,0.0,0.0,0.0,0.0,0.0,0.0,0.0,0.0,0.0,0.0,0.0,0.0,0.0,0.0,0.0,0.0,0.0,0.0,0.0,0.0,0.0,0.0,0.0,0.0,0.0,0.0,0.0,0.0,0.0,0.0,0.0,0.0,0.0,0.0,0.0,0.0,0.0,0.0,0.0,0.0,0.0,0.0,0.0,0.0,0.0,0.0,0.0,0.0,0.0,0.0,0.0,0.0,0.0,0.0,0.0,0.0,0.0,0.0,0.0,0.0,0.0,0.0,0.0,0.0,0.0,0.0,0.0,0.0,0.0,0.0,0.0,0.0,0.0,0.0,0.0,0.0,0.0,0.0,0.0,0.0,0.0,0.0,0.0,0.0,0.0,0.0,0.0,0.0,0.0,0.0,0.0,0.0,0.0,0.0,0.0,-1.9358,-2.1377,-2.1494,-2.1366,-2.1298,-2.0986,-2.0,-1.8223,0.0,0.0,0.0,0.0,0.0,0.0,0.0,0.0,0.0,0.0,0.0,0.0,0.0,0.0,0.0,0.0,0.0,0.0,0.0,0.0,0.0,0.0,0.0,0.0,0.0,0.0,0.0,0.0,0.0,0.0,0.0,0.0,0.0,0.0,0.0,0.0,0.0,0.0,0.0,0.0,0.0,0.0,0.0,0.0,0.0,0.0,0.0,0.0,0.0,0.0,0.0,0.0,0.0,0.0,0.0,0.0,0.0,0.0,0.0,0.0,0.0,0.0,0.0,0.0,0.0,0.0,0.0,0.0,0.0,0.0,0.0,0.0,0.0,0.0,0.0,0.0,0.0,0.0,0.0,0.0,0.0,0.0,0.0,0.0,0.0,0.0,0.0,0.0,0.0,0.0,0.0,0.0,0.0,0.0,0.0,0.0,0.0,0.0,0.0,0.0,0.0,0.0,0.0,-1.8516,-1.9639,-2.1348,-2.1317,-2.1093,-2.0889,-2.0723,-1.9871,-1.8115,-1.7578,0.0,0.0,0.0,0.0,0.0,0.0,0.0,0.0,0.0,0.0,0.0,0.0,0.0,0.0,0.0,0.0,0.0,0.0,0.0,0.0,0.0,0.0,0.0,0.0,0.0,0.0,0.0,0.0,0.0,0.0,0.0,0.0,0.0,0.0,0.0,0.0,0.0,0.0,0.0,0.0,0.0,0.0,0.0,0.0,0.0,0.0,0.0,0.0,0.0,0.0,0.0,0.0,0.0,0.0,0.0,0.0,0.0,0.0,0.0,0.0,0.0,0.0,0.0,0.0,0.0,0.0,0.0,0.0,0.0,0.0,0.0,0.0,0.0,0.0,0.0,0.0,0.0,0.0,0.0,0.0,0.0,0.0,0.0,0.0,0.0,0.0,0.0,0.0,0.0,0.0,0.0,0.0,0.0,0.0,0.0,0.0,0.0,0.0,0.0,0.0,0.0,0.0,-1.9028,-1.9279,-2.0391,-2.0455,-2.0284,-1.9887,-1.9755,-1.9009,-1.7533,-1.6447,0.0,0.0,0.0,0.0,0.0,0.0,0.0,0.0,0.0,0.0,0.0,0.0,0.0,0.0,0.0,0.0,0.0,0.0,0.0,0.0,0.0,0.0,0.0,0.0,0.0,0.0,0.0,0.0,0.0,0.0,0.0,0.0,0.0,0.0,0.0,0.0,0.0,0.0,0.0,0.0,0.0,0.0,0.0,0.0,0.0,0.0,0.0,0.0,0.0,0.0,0.0,0.0,0.0,0.0,0.0,0.0,0.0,0.0,0.0,0.0,0.0,0.0,0.0,0.0,0.0,0.0,0.0,0.0,0.0,0.0,0.0,0.0,0.0,0.0,0.0,0.0,0.0,0.0,0.0,0.0,0.0,0.0,0.0,0.0,0.0,0.0,0.0,0.0,0.0,0.0,0.0,0.0,0.0,0.0,0.0,0.0,0.0,0.0,0.0,0.0,0.0,0.0,-1.7427,-1.7826,-1.835,-1.8282,-1.8086,-1.7735,-1.7208,-1.6572,-1.5835,-1.4312,0.0,0.0,0.0,0.0,0.0,0.0,0.0,0.0,0.0,0.0,0.0,0.0,0.0,0.0,0.0,0.0,0.0,0.0,0.0,0.0,0.0,0.0,0.0,0.0,0.0,0.0,0.0,0.0,0.0,0.0,0.0,0.0,0.0,0.0,0.0,0.0,0.0,0.0,0.0,0.0,0.0,0.0,0.0,0.0,0.0,0.0,0.0,0.0,0.0,0.0,0.0,0.0,0.0,0.0,0.0,0.0,0.0,0.0,0.0,0.0,0.0,0.0,0.0,0.0,0.0,0.0,0.0,0.0,0.0,0.0,0.0,0.0,0.0,0.0,0.0,0.0,0.0,0.0,0.0,0.0,0.0,0.0,0.0,0.0,0.0,0.0,0.0,0.0,0.0,0.0,0.0,0.0,0.0,0.0,0.0,0.0,0.0,0.0,0.0,0.0,0.0,0.0,-1.6492,-1.697,0.0,-1.79,-1.7843,-1.7544,-1.7282,-1.6583,-1.5186,0.0,0.0,0.0,0.0,0.0,0.0,0.0,0.0,0.0,0.0,0.0,0.0,0.0,0.0,0.0,0.0,0.0,0.0,0.0,0.0,0.0,0.0,0.0,0.0,0.0,0.0,0.0,0.0,0.0,0.0,0.0,0.0,0.0,0.0,0.0,0.0,0.0,0.0,0.0,0.0,0.0,0.0,0.0,0.0,0.0,0.0,0.0,0.0,0.0,0.0,0.0,0.0,0.0,0.0,0.0,0.0,0.0,0.0,0.0,0.0,0.0,0.0,0.0,0.0,0.0,0.0,0.0,0.0,0.0,0.0,0.0,0.0,0.0,0.0,0.0,0.0,0.0,0.0,0.0,0.0,0.0,0.0,0.0,0.0,0.0,0.0,0.0,0.0,0.0,0.0,0.0,0.0,0.0,0.0,0.0,0.0,0.0,0.0,0.0,0.0,0.0,0.0,-1.4771,-1.5362,-1.587,0.0,-1.691,-1.7,-1.6565,-1.6349,-1.5604,-1.4118,0.0,0.0,0.0,0.0,0.0,0.0,0.0,0.0,0.0,0.0,0.0,0.0,0.0,0.0,0.0,0.0,0.0,0.0,0.0,0.0,0.0,0.0,0.0,0.0,0.0,0.0,0.0,0.0,0.0,0.0,0.0,0.0,0.0,0.0,0.0,0.0,0.0,0.0,0.0,0.0,0.0,0.0,0.0,0.0,0.0,0.0,0.0,0.0,0.0,0.0,0.0,0.0,0.0,0.0,0.0,0.0,0.0,0.0,0.0,0.0,0.0,0.0,0.0,0.0,0.0,0.0,0.0,0.0,0.0,0.0,0.0,0.0,0.0,0.0,0.0,0.0,0.0,0.0,0.0,0.0,0.0,0.0,0.0,0.0,0.0,0.0,0.0,0.0,0.0,0.0,0.0,0.0,0.0,0.0,0.0,0.0,0.0,0.0,0.0,0.0,0.0,0.0,-1.2957,-1.3882,-1.4511,-1.4511,-1.5043,-1.5167,-1.4562,-1.3879,-1.3187,0.0,0.0,0.0,0.0,0.0,0.0,0.0,0.0,0.0,0.0,0.0,0.0,0.0,0.0,0.0,0.0,0.0,0.0,0.0,0.0,0.0,0.0,0.0,0.0,0.0,0.0,0.0,0.0,0.0,0.0,0.0,0.0,0.0,0.0,0.0,0.0,0.0,0.0,0.0,0.0,0.0,0.0,0.0,0.0,0.0,0.0,0.0,0.0,0.0,0.0,0.0,0.0,0.0,0.0,0.0,0.0,0.0,0.0,0.0,0.0,0.0,0.0,0.0,0.0,0.0,0.0,0.0,0.0,0.0,0.0,0.0,0.0,0.0,0.0,0.0,0.0,0.0,0.0,0.0,0.0,0.0,0.0,0.0,0.0,0.0,0.0,0.0,0.0,0.0,0.0,0.0,0.0,0.0,0.0,0.0,0.0,0.0,0.0,0.0,0.0,0.0,0.0,0.0,-1.2694,-1.3775,-1.4511,-1.4511,-1.5043,-1.5167,-1.4562,-1.4335,-1.3542,-1.1945,0.0,0.0,0.0,0.0,0.0,0.0,0.0,0.0,0.0,0.0,0.0,0.0,0.0,0.0,0.0,0.0,0.0,0.0,0.0,0.0,0.0,0.0,0.0,0.0,0.0,0.0,0.0,0.0,0.0,0.0,0.0,0.0,0.0,0.0,0.0,0.0,0.0,0.0,0.0,0.0,0.0,0.0,0.0,0.0,0.0,0.0,0.0,0.0,0.0,0.0,0.0,0.0,0.0,0.0,0.0,0.0,0.0,0.0,0.0,0.0,0.0,0.0,0.0,0.0,0.0,0.0,0.0,0.0,0.0,0.0,0.0,0.0,0.0,0.0,0.0,0.0,0.0,0.0,0.0,0.0,0.0,0.0,0.0,0.0,0.0,0.0,0.0,0.0,0.0,0.0,0.0,0.0,0.0,0.0,0.0,0.0,0.0,0.0,0.0,0.0,0.0,0.0,-1.2359,-1.3702,-1.4611,-1.4518,-1.5043,-1.5167,-1.4562,-1.4394,-1.355,-1.1853,0.0,0.0,0.0,0.0,0.0,0.0,0.0,0.0,0.0,0.0,0.0,0.0,0.0,0.0,0.0,0.0,0.0,0.0,0.0,0.0,0.0,0.0,0.0,0.0,0.0,0.0,0.0,0.0,0.0,0.0,0.0,0.0,0.0,0.0,0.0,0.0,0.0,0.0,0.0,0.0,0.0,0.0,0.0,0.0,0.0,0.0,0.0,0.0,0.0,0.0,0.0,0.0,0.0,0.0,0.0,0.0,0.0,0.0,0.0,0.0,0.0,0.0,0.0,0.0,0.0,0.0,0.0,0.0,0.0,0.0,0.0,0.0,0.0,0.0,0.0,0.0,0.0,0.0,0.0,0.0,0.0,0.0,0.0,0.0,0.0,0.0,0.0,0.0,0.0,0.0,0.0,0.0,0.0,0.0,0.0,0.0,0.0,0.0,0.0,0.0,0.0,0.0,-1.2003,-1.3674,-1.4787,-1.454,-1.5043,-1.5167,-1.4562,-1.4232,-1.347,-1.2127,0.0,0.0,0.0,0.0,0.0,0.0,0.0,0.0,0.0,0.0,0.0,0.0,0.0,0.0,0.0,0.0,0.0,0.0,0.0,0.0,0.0,0.0,0.0,0.0,0.0,0.0,0.0,0.0,0.0,0.0,0.0,0.0,0.0,0.0,0.0,0.0,0.0,0.0,0.0,0.0,0.0,0.0,0.0,0.0,0.0,0.0,0.0,0.0,0.0,0.0,0.0,0.0,0.0,0.0,0.0,0.0,0.0,0.0,0.0,0.0,-1.8711,0.0,0.0,0.0,0.0,0.0,0.0,0.0,0.0,0.0,0.0,0.0,0.0,0.0,0.0,0.0,0.0,0.0,0.0,0.0,0.0,0.0,0.0,0.0,0.0,0.0,0.0,0.0,0.0,0.0,0.0,0.0,0.0,0.0,0.0,0.0,0.0,0.0,0.0,0.0,0.0,0.0,-1.2003,-1.3521,-1.4545,-1.4518,-1.5043,-1.5167,-1.4562,-1.4445,-1.3806,-1.247,-1.1841,0.0,0.0,0.0,0.0,0.0,0.0,0.0,0.0,0.0,0.0,0.0,0.0,0.0,0.0,0.0,0.0,0.0,0.0,0.0,0.0,0.0,0.0,0.0,0.0,0.0,0.0,0.0,0.0,0.0,0.0,0.0,0.0,0.0,0.0,0.0,0.0,0.0,0.0,0.0,0.0,0.0,0.0,0.0,0.0,0.0,0.0,0.0,0.0,0.0,0.0,0.0,0.0,0.0,0.0,0.0,0.0,0.0,0.0,0.0,0.0,-1.9326,0.0,0.0,0.0,0.0,0.0,0.0,0.0,0.0,0.0,0.0,0.0,0.0,0.0,0.0,0.0,0.0,0.0,0.0,0.0,0.0,0.0,0.0,0.0,0.0,0.0,0.0,0.0,0.0,0.0,0.0,0.0,0.0,0.0,0.0,0.0,0.0,0.0,0.0,0.0,0.0,-1.2237,-1.3689,-1.4699,-1.4699,-1.5138,-1.5192,-1.4735,-1.4553,-1.4086,-1.3053,-1.238,0.0,0.0,0.0,0.0,0.0,0.0,0.0,0.0,0.0,0.0,0.0,0.0,0.0,0.0,0.0,0.0,0.0,0.0,0.0,0.0,0.0,0.0,0.0,0.0,0.0,0.0,0.0,0.0,0.0,0.0,0.0,0.0,0.0,0.0,0.0,0.0,0.0,0.0,0.0,0.0,0.0,0.0,0.0,0.0,0.0,0.0,0.0,0.0,0.0,0.0,0.0,0.0,0.0,-1.8899,-1.9106,-1.877,-1.9927,-1.9919,-1.9031,-2.0026,-2.0189,-1.9719,-1.9192,0.0,0.0,0.0,0.0,0.0,0.0,0.0,0.0,0.0,0.0,0.0,0.0,0.0,0.0,0.0,0.0,0.0,0.0,0.0,0.0,0.0,0.0,0.0,0.0,-1.5043,-1.4769,0.0,0.0,0.0,0.0,0.0,0.0,0.0,0.0,0.0,0.0,0.0,0.0,-1.2687,-1.3973,-1.49,-1.49,-1.5192,-1.525,-1.4929,-1.4699,-1.4296,-1.3704,-1.2966,-1.2276,0.0,0.0,0.0,0.0,0.0,0.0,0.0,0.0,0.0,0.0,0.0,0.0,0.0,0.0,0.0,0.0,0.0,0.0,0.0,0.0,0.0,0.0,0.0,0.0,0.0,0.0,0.0,0.0,0.0,0.0,0.0,0.0,-1.8418,-1.9001,0.0,0.0,0.0,0.0,0.0,0.0,0.0,0.0,0.0,0.0,0.0,0.0,0.0,-2.0393,-1.972,-2.0313,-2.0579,-2.0451,-2.0742,-2.0874,-2.0832,-2.1024,-2.0814,-2.0451,-2.0585,0.0,-1.8776,-1.865,0.0,0.0,0.0,0.0,0.0,0.0,0.0,0.0,0.0,0.0,0.0,0.0,0.0,0.0,0.0,0.0,0.0,0.0,0.0,0.0,0.0,0.0,-1.6938,-1.6661,-1.6404,-1.6052,0.0,-1.4106,-1.2943,-1.3133,-1.3016,0.0,0.0,0.0,0.0,0.0,0.0,0.0,-1.3331,-1.4251,-1.49,-1.49,-1.5192,-1.525,-1.4929,-1.4863,-1.4721,-1.4401,-1.331,-1.2498,-1.214,-1.1132,0.0,0.0,0.0,0.0,0.0,0.0,0.0,0.0,0.0,0.0,0.0,0.0,0.0,0.0,0.0,0.0,0.0,0.0,0.0,0.0,0.0,0.0,0.0,0.0,0.0,0.0,0.0,0.0,0.0,-1.7959,-1.916,-1.959,-1.9772,-1.9787,0.0,0.0,0.0,0.0,0.0,0.0,0.0,0.0,0.0,-1.9955,-2.0545,-2.0512,-1.9838,-2.0159,-1.9989,-1.9421,-1.9522,-1.9552,-1.9601,-2.0176,-1.9999,-1.9373,-1.9942,-1.9539,-1.8446,-1.8704,-1.8238,-1.7416,0.0,0.0,0.0,0.0,-1.6812,-1.6517,-1.655,-1.6334,-1.6008,-1.5741,0.0,0.0,0.0,0.0,0.0,0.0,0.0,0.0,0.0,0.0,-1.6846,-1.6743,-1.6604,-1.6461,-1.634,-1.5326,-1.4273,0.0,-1.3977,-1.3855,-1.2371,0.0,0.0,0.0,0.0,-1.3404,-1.3726,-1.4333,-1.4803,-1.4984,-1.5004,-1.4942,-1.4799,-1.4792,-1.4657,-1.4391,-1.369,-1.3109,-1.2621,-1.1766,-1.1181,0.0,0.0,0.0,0.0,0.0,0.0,0.0,0.0,0.0,0.0,0.0,0.0,0.0,0.0,0.0,0.0,0.0,0.0,0.0,0.0,0.0,0.0,0.0,0.0,0.0,0.0,0.0,0.0,-1.8846,-1.9755,-2.0342,-2.0348,-2.0237,0.0,0.0,0.0,0.0,0.0,0.0,-1.957,-2.0174,-2.0602,-2.0594,-2.086,-2.0646,-1.9934,-1.9892,-1.9502,-1.8672,-1.8672,-1.8628,-1.8597,-1.933,-1.9243,-1.8473,-1.9208,-1.9056,-1.8316,-1.8575,-1.8274,-1.7637,-1.7562,-1.7506,-1.7507,-1.7489,-1.7278,-1.7039,-1.7334,-1.7206,-1.6837,-1.6404,-1.6126,-1.5755,-1.4909,0.0,0.0,0.0,0.0,-1.5662,-1.6031,-1.6351,-1.654,-1.6579,-1.6588,-1.656,-1.6483,-1.6162,-1.5504,0.0,-1.471,-1.4669,-1.2891,0.0,0.0,0.0,0.0,-1.3708,-1.4026,-1.4388,-1.4735,-1.4977,-1.4824,-1.4692,-1.4692,-1.4692,-1.4608,-1.43,-1.3952,-1.3502,-1.2966,-1.2276,-1.1771,-1.1534,0.0,0.0,0.0,0.0,0.0,0.0,0.0,0.0,0.0,0.0,0.0,0.0,0.0,0.0,0.0,0.0,0.0,0.0,0.0,0.0,0.0,0.0,0.0,0.0,0.0,0.0,0.0,0.0,0.0,-2.1663,-2.0418,0.0,0.0,0.0,0.0,-1.9067,-2.0486,-2.0901,-1.991,-2.1452,-2.1581,-1.991,-2.0746,-2.0855,-2.0189,-2.0189,-2.0043,-1.9742,-1.9742,-1.958,-1.9228,-1.9272,-1.9111,-1.8767,-1.881,-1.8634,-1.8277,-1.7993,-1.7654,-1.7292,-1.7045,-1.6773,-1.6529,-1.6847,-1.6927,-1.6941,-1.7218,-1.7138,-1.6947,-1.7172,-1.6668,-1.589,-1.5274,-1.5076,0.0,0.0,-1.5581,-1.6127,-1.6502,-1.6593,-1.6615,-1.6581,-1.6588,-1.6504,-1.6211,-1.635,-1.6344,0.0,-1.5105,-1.4517,-1.3752,0.0,-1.3635,-1.3275,-1.3551,-1.3926,-1.4235,-1.4517,-1.472,-1.4734,-1.4692,-1.4692,-1.4692,-1.4692,-1.4608,-1.43,-1.3826,-1.3397,-1.3082,-1.2303,-1.1809,-1.1608,-1.0543,0.0,0.0,0.0,0.0,0.0,0.0,0.0,0.0,0.0,0.0,0.0,0.0,0.0,0.0,0.0,0.0,0.0,0.0,0.0,0.0,0.0,0.0,0.0,0.0,0.0,0.0,0.0,0.0,-2.0233,-2.0385,0.0,-2.0204,-2.0399,-2.0331,-1.9764,-2.071,-2.0853,-1.9901,-2.058,-2.0727,-2.0062,-2.0379,-2.0438,-2.0183,-2.0183,-2.0124,-2.0069,-2.0069,-2.0003,-1.9886,-1.9681,-1.958,-1.9403,-1.9199,-1.9038,-1.8906,-1.8577,-1.8247,-1.7947,-1.783,-1.7589,-1.7311,-1.7428,-1.734,-1.7172,-1.7289,-1.7252,-1.7133,-1.7117,-1.6768,-1.6331,-1.6127,-1.6092,-1.6092,-1.6092,-1.6246,-1.6402,-1.6379,-1.6359,-1.6312,-1.6116,-1.6109,-1.6035,-1.5926,-1.5987,-1.6001,-1.5784,-1.5638,-1.5283,-1.4262,-1.4248,-1.4259,-1.3912,-1.4001,-1.423,-1.4538,-1.4539,-1.4524,-1.4524,-1.4405,-1.4328,-1.4328,-1.4109,-1.3953,-1.3852,-1.3148,-1.2766,-1.2891,-1.2257,-1.1548,-1.0833,-1.0361,-0.9299,0.0,0.0,0.0,0.0,0.0,0.0,0.0,0.0,0.0,0.0,0.0,0.0,0.0,0.0,0.0,0.0,0.0,0.0,0.0,0.0,0.0,0.0,0.0,0.0,0.0,-1.9225,-1.9716,-1.9911,-2.0351,-2.0531,-2.0303,-2.0661,-2.0675,-2.0028,-2.0649,-2.0772,-2.0138,-2.0391,-2.0567,-2.0567,-2.0567,-2.0567,-2.0567,-2.0567,-2.0453,-2.0343,-2.0343,-2.0285,-2.0176,-2.0018,-1.9923,-1.9908,-1.9579,-1.9492,-1.9463,-1.9089,-1.8825,-1.8606,-1.8386,-1.8167,-1.7977,-1.7977,-1.7772,-1.7432,-1.7283,-1.7145,-1.7052,-1.6784,-1.6595,-1.6447,-1.6346,-1.6346,-1.6346,-1.6346,-1.6346,-1.6305,-1.6123,-1.6076,-1.6028,-1.5832,-1.5784,-1.5784,-1.5784,-1.5784,-1.5784,-1.5784,-1.5825,-1.5613,-1.4798,-1.4738,-1.473,-1.4481,-1.4503,-1.4579,-1.4627,-1.4513,-1.4387,-1.4292,-1.4166,-1.4088,-1.4088,-1.3773,-1.356,-1.346,-1.2839,-1.2529,-1.263,-1.2167,-1.1594,-1.0909,-1.0307,-0.8931,-0.6872,0.0,0.0,0.0,0.0,0.0,0.0,0.0,0.0,0.0,0.0,0.0,0.0,0.0,0.0,0.0,0.0,0.0,0.0,0.0,0.0,0.0,0.0,0.0,-1.8978,-1.9662,-2.0281,-2.0895,-2.0318,-1.9904,-2.0109,-1.9941,-1.9859,-1.9859,-2.0391,-2.075,-2.075,-2.1064,-2.124,-2.124,-2.124,-2.124,-2.124,-2.1233,-2.1064,-2.075,-2.0742,-2.0574,-2.0212,-2.0205,-2.0197,-2.0176,-1.9916,-1.983,-1.9808,-1.9425,-1.9346,-1.9228,-1.8584,-1.8328,-1.8321,-1.8321,-1.8108,-1.7738,-1.7196,-1.6845,-1.6555,-1.6272,-1.6177,-1.613,-1.5879,-1.5784,-1.5784,-1.5784,-1.5784,-1.5784,-1.5784,-1.5784,-1.5784,-1.5784,-1.5784,-1.5784,-1.5784,-1.5784,-1.5784,-1.5784,-1.5605,-1.5411,-1.5411,-1.517,-1.5022,-1.5022,-1.5015,0.0,-1.4569,-1.4536,-1.4422,-1.4128,-1.4102,-1.4095,-1.4088,-1.3773,-1.348,-1.3227,-1.2951,-1.2643,-1.2288,-1.2001,-1.1855,-1.1817,-1.0267,-0.8705,-0.7223,0.0,0.0,0.0,0.0,0.0,0.0,0.0,0.0,0.0,0.0,0.0,0.0,0.0,0.0,0.0,0.0,0.0,0.0,0.0,0.0,0.0,-1.8078,-1.869,-1.9105,-1.9353,-1.9657,-2.0089,-2.0327,-2.0494,-2.0528,-2.0678,-2.0815,-2.0815,-2.1196,-2.143,-2.143,-2.1737,-2.1913,-2.1913,-2.1913,-2.1913,-2.1913,-2.1679,-2.1518,-2.1423,-2.1189,-2.1028,-2.0933,-2.0698,-2.0533,-2.0518,-2.0245,-2.0106,-2.0084,-1.9762,-1.9683,-1.9639,-1.9169,-1.8862,-1.8657,-1.8657,-1.8353,-1.7787,-1.7223,-1.6876,-1.6608,-1.6293,-1.6076,-1.5879,-1.5825,-1.5784,-1.5784,-1.5784,-1.5784,-1.5784,-1.5784,-1.5784,-1.5784,-1.5784,-1.5784,-1.5784,-1.5784,-1.5784,-1.5784,-1.5784,-1.5718,-1.5712,-1.5712,-1.5471,-1.5277,-1.5277,-1.5142,0.0,-1.485,-1.4843,-1.473,-1.4436,-1.4402,-1.4315,-1.4108,-1.3773,-1.348,-1.3227,-1.2712,-1.2216,-1.1688,-1.1353,-1.0845,-1.017,-0.8918,-0.8168,0.0,0.0,0.0,0.0,0.0,0.0,0.0,0.0,0.0,0.0,0.0,0.0,0.0,0.0,0.0,0.0,0.0,0.0,0.0,0.0,0.0,0.0,-1.8246,-1.8836,-1.9242,-1.9417,-1.9612,-1.9954,-2.0444,-2.0799,-2.1115,-2.1306,-2.1467,-2.1606,-2.1796,-2.1898,-2.1898,-2.2081,-2.2184,-2.2184,-2.2184,-2.2184,-2.2184,-2.2001,-2.1832,-2.1693,-2.1503,-2.1342,-2.1203,-2.1013,-2.0925,-2.0911,-2.0581,-2.0332,-2.02,-1.9936,-1.9744,0.0,0.0,0.0,0.0,0.0,-1.8167,-1.7717,-1.7203,-1.6821,-1.6496,-1.632,-1.6027,-1.5784,-1.5784,-1.5784,-1.5784,-1.5784,-1.5784,-1.5784,-1.5784,-1.5784,-1.5784,-1.5784,-1.5784,-1.5784,-1.5784,-1.5784,-1.5784,-1.5784,-1.5784,0.0,-1.5784,-1.5691,-1.5578,-1.5578,-1.5431,-1.5284,-1.5164,-1.5189,-1.503,-1.4736,-1.4703,-1.4636,-1.4469,-1.3724,0.0,0.0,0.0,-1.1343,-1.0948,-1.0796,0.0,0.0,0.0,0.0,0.0,0.0,0.0,0.0,-0.8251,-0.8353,0.0,0.0,0.0,0.0,0.0,0.0,0.0,0.0,0.0,0.0,0.0,0.0,0.0,0.0,0.0,0.0,-1.8424,-1.885,-1.9423,-1.9685,-1.9955,-2.0337,-2.0587,-2.1003,-2.1657,-2.1693,-2.1869,-2.2162,-2.2213,-2.2235,-2.2235,0.0,0.0,0.0,0.0,-2.2286,-2.2286,-2.225,-2.2089,-2.1803,-2.1767,-2.1576,-2.1269,-2.1204,-2.1182,-2.1131,-2.079,-2.0498,-2.0259,-1.9938,-1.9553,-1.9228,-1.8989,-1.8898,-1.8781,-1.8231,-1.7877,-1.7579,-1.7227,0.0,0.0,-1.6382,-1.6119,-1.5879,-1.5879,-1.5804,-1.5784,-1.5784,-1.5784,-1.5784,-1.5784,-1.5784,-1.5784,-1.5784,-1.5784,-1.5784,-1.5784,-1.5784,-1.5784,-1.5784,-1.5784,-1.5784,-1.5784,-1.5784,-1.5784,-1.5784,-1.5784,-1.5684,-1.5478,-1.5444,-1.5337,-1.5089,0.0,0.0,-1.5015,-1.3642,-1.2777,-1.2747,-1.1247,-1.0315,-1.0285,-1.0322,-1.012,-0.9566,-0.9593,-0.9466,-0.9157,-0.9359,-0.9355,-0.9145,-0.8666,-0.8686,0.0,0.0,0.0,0.0,0.0,0.0,0.0,0.0,0.0,0.0,0.0,0.0,0.0,0.0,0.0,-1.8625,-1.9199,-1.9646,-2.0,-2.0093,-2.0244,-2.0585,-2.0882,-2.1272,-2.1642,-2.1701,-2.1857,-2.2176,-2.2403,-2.2535,-2.2535,-2.2784,-2.293,-2.293,-2.293,-2.293,-2.293,-2.2667,-2.2506,-2.244,0.0,0.0,-2.1598,-2.135,-2.1024,-2.078,-2.0494,-2.0358,-2.028,-1.9963,-1.9466,-1.8988,-1.8893,-1.8752,-1.8475,-1.8105,-1.7987,-1.7834,-1.7322,-1.713,-1.6991,-1.67,-1.6426,-1.6186,-1.6186,-1.6019,0.0,-1.5784,-1.5784,-1.5784,-1.5784,-1.5784,-1.5784,-1.5784,-1.5784,-1.5784,-1.5784,-1.5784,-1.5784,-1.5784,-1.5784,-1.5784,-1.5784,-1.5784,-1.5784,-1.5784,-1.5784,-1.5758,-1.5752,-1.5698,-1.5631,-1.5344,-1.5311,-1.5217,-1.5028,-1.3937,-1.3147,-1.2937,-1.1121,-1.0069,-1.0074,-0.9751,-0.9537,-0.9434,-0.9536,-0.955,-0.9527,-0.9559,-0.9559,-0.9522,-0.9417,-0.9348,0.0,0.0,0.0,0.0,0.0,0.0,0.0,0.0,0.0,0.0,0.0,-1.6627,-1.7074,0.0,-1.8671,-1.9265,-1.9726,-2.0067,-2.0153,-2.0361,-2.0524,-2.0699,-2.0856,-2.1129,-2.1579,-2.1661,-2.1786,-2.214,-2.2291,-2.2431,-2.2617,-2.2589,-2.2675,-2.2856,-2.2675,-2.2606,-2.2606,-2.2448,-2.2291,-2.2072,-2.199,-2.1754,-2.1446,-2.1261,-2.1024,-2.0662,-2.0552,-2.0352,-2.0033,-1.9709,-1.9305,-1.8908,-1.8919,-1.8585,-1.8169,-1.7913,-1.7799,-1.7779,-1.7467,-1.7326,-1.7172,-1.6974,-1.6734,-1.6466,-1.6319,-1.6166,-1.6019,-1.5872,-1.5784,-1.5784,-1.5784,-1.5784,-1.5784,-1.5784,-1.5784,-1.5784,-1.5784,-1.5784,-1.5784,-1.5784,-1.5784,-1.5784,-1.5784,-1.5784,-1.5784,-1.5784,-1.5784,-1.5784,-1.5784,-1.5784,-1.5724,-1.5625,-1.5611,-1.5318,-1.471,-1.3113,-1.182,-1.1096,-1.0182,-0.9689,-0.9689,-0.9583,-0.949,-0.949,-0.9579,-0.9579,-0.9579,-0.9579,-0.9579,-0.9579,-0.9713,-0.9661,0.0,0.0,0.0,0.0,0.0,0.0,0.0,-1.5571,-1.6012,-1.631,-1.7275,-1.809,-1.8282,-1.9065,-1.97,-1.9933,-2.0214,-2.034,-2.034,-2.0608,-2.0772,-2.0713,-2.0733,-2.0978,-2.1527,-2.1609,-2.1714,-2.209,-2.2111,-2.2237,-2.248,-2.2237,-2.2237,-2.248,-2.223,-2.2111,-2.2111,-2.2111,-2.1978,-2.1671,-2.1671,-2.1572,-2.1278,-2.1218,-2.099,-2.0691,-2.0576,-2.0206,-1.9707,-1.9482,-1.9225,-1.9005,-1.8945,-1.8582,-1.8115,-1.7809,-1.7635,-1.7582,-1.7582,-1.7481,-1.7286,-1.7286,-1.7085,-1.6747,-1.6563,-1.6415,-1.6219,-1.5985,-1.5872,-1.5784,-1.5784,-1.5784,-1.5784,-1.5784,-1.5784,-1.5784,-1.5784,-1.5784,-1.5784,-1.5784,-1.5784,-1.573,-1.554,-1.5493,-1.5588,-1.5784,-1.5784,-1.5784,-1.5784,-1.5784,-1.573,-1.554,-1.5493,-1.501,-1.3806,-1.1985,-1.0439,-0.9257,-0.9332,-0.9457,-0.9457,-0.9551,-0.9579,-0.9579,-0.9579,-0.9579,-0.9579,-0.9579,-0.9579,-0.9583,-0.9807,-0.9811,-1.5148,-1.4984,-1.4572,-1.5431,-1.5611,-1.5984,0.0,-1.7649,-1.7856,-1.8464,-1.9098,-1.9566,-1.9599,-2.0114,-2.0541,-2.0575,-2.0822,-2.1009,-2.1009,-2.1042,-2.0955,-2.0723,-2.0918,-2.1211,-2.1553,-2.1622,-2.1762,-2.2041,-2.2111,-2.2111,-2.2174,-2.2111,-2.2111,-2.2174,-2.2111,-2.2111,-2.2111,-2.2111,-2.209,-2.2055,-2.2055,-2.1894,-2.1532,-2.1293,-2.1012,-2.0643,-2.0145,-1.975,-1.9424,-1.9424,-1.941,-1.9292,-1.9025,-1.8885,-1.8701,-1.8149,-1.7816,-1.7582,-1.7582,-1.7562,-1.7535,-1.7535,-1.7387,-1.7146,-1.7112,-1.6737,-1.6315,-1.6233,-1.6032,-1.5784,-1.5784,-1.5784,-1.5784,-1.5784,-1.5784,-1.5784,-1.5784,-1.5784,-1.5784,-1.5784,-1.5784,-1.554,-1.4634,-1.449,-1.4777,-1.5683,-1.5784,-1.5784,-1.5784,-1.5784,-1.5445,-1.4586,-1.449,-1.3655,-1.1707,-1.1297,-1.0698,-0.9616,-0.9583,-0.9596,-0.9596,-0.9567,-0.9579,-0.9579,-0.9579,-0.9579,-0.9579,-0.9579,-0.9579,-0.9583,-0.9807,-0.9876,-1.5734,-1.5939,-1.5925,-1.6466,-1.686,-1.723,-1.7849,-1.8255,-1.8677,-1.9092,-1.9786,-2.0307,-2.0307,-2.0648,-2.0929,-2.0929,-2.1029,-2.1109,-2.1109,-2.0962,-2.0815,-2.0688,-2.0782,-2.0918,-2.1043,-2.1198,-2.1355,-2.1488,-2.1544,-2.1607,-2.1796,-2.1607,-2.1607,-2.1796,-2.1607,-2.1544,-2.1544,-2.1544,-2.1544,-2.1544,-2.1544,-2.142,-2.1298,-2.1173,-2.0955,-2.0645,-2.006,-1.9733,-1.9606,-1.9432,-1.9424,-1.9417,-1.9232,-1.9078,-1.8851,-1.8209,-1.7909,-1.7822,-1.7649,-1.7582,-1.7582,-1.7582,-1.7502,-1.742,-1.7253,-1.7032,-1.6764,-1.6415,-1.6186,-1.6046,-1.5872,-1.5784,-1.5784,-1.5784,-1.5784,-1.5635,-1.5064,-1.4921,-1.4723,-1.413,-1.3986,-1.3842,-1.3463,-1.3366,-1.3511,-1.3938,-1.3986,-1.3986,-1.3986,-1.3986,-1.3842,-1.3414,-1.2829,-1.215,-1.1268,-1.0641,-1.0064,-0.9628,-0.9579,-0.9579,-0.9579,-0.9579,-0.9579,-0.9579,-0.9579,-0.9579,-0.9579,-0.9579,-0.9681,-0.9782,-0.9961,-1.0103,-1.6046,-1.6486,-1.6814,-1.7281,-1.7789,-1.8135,-1.8215,-1.8744,-1.9225,-1.9439,-2.0054,-2.0555,-2.0555,-2.0795,-2.0989,-2.0989,-2.1056,-2.1109,-2.1109,-2.0862,-2.0675,-2.0675,-2.0675,-2.0675,-2.0675,-2.0942,-2.1109,-2.1109,-2.1109,-2.1235,-2.1418,-2.1235,-2.1235,-2.1418,-2.1235,-2.1109,-2.1109,-2.1109,-2.1109,-2.1109,-2.1109,-2.1109,-2.1109,-2.1109,-2.0949,-2.0655,-2.0227,-1.9947,-1.978,-1.9573,-1.9497,-1.9424,-1.9424,-1.9232,-1.8985,-1.8422,-1.8182,-1.8123,-1.7816,-1.7709,-1.7695,-1.7609,-1.7582,-1.7542,-1.7387,-1.7266,-1.7061,-1.6277,-1.6002,-1.5823,-1.5194,-1.5028,-1.5009,-1.4975,-1.4956,-1.4765,-1.3998,-1.3854,-1.3613,-1.2829,-1.2678,-1.263,-1.2339,-1.229,-1.2193,-1.1907,-1.1858,-1.2052,-1.263,-1.2436,-1.229,-1.229,-1.137,-1.0739,-1.0739,-1.0064,-0.9579,-0.9579,-0.9579,-0.9579,-0.9579,-0.9579,-0.9579,-0.9579,-0.9529,-0.9529,-0.9579,-0.9577,-0.9662,-0.979,-1.002,-1.0143,-1.6308,-1.6486,-1.6914,-1.7749,-1.825,-1.8551,-1.8831,-1.9352,-1.9773,-1.9786,-2.0034,-2.0247,-2.0247,-2.0488,-2.0688,-2.0688,-2.0922,-2.1109,-2.1109,-2.0862,-2.0675,-2.0675,-2.0675,-2.0675,-2.0675,-2.0942,-2.1109,-2.1109,-2.1109,-2.1109,-2.1109,-2.1109,-2.1109,-2.1109,-2.1109,-2.1109,-2.1109,-2.1109,-2.1109,-2.1109,-2.1109,-2.1109,-2.1109,-2.1109,-2.0949,-2.0675,-2.0661,-2.0327,-1.98,-1.9786,-1.9619,-1.9424,-1.9424,-1.9366,-1.9319,-1.9011,-1.8718,-1.8437,-1.8082,-1.7975,-1.7929,-1.7675,-1.7582,-1.7582,-1.7569,-1.7427,-1.6935,-1.5756,-1.5252,-1.4746,-1.3446,-1.3082,-1.3023,-1.2835,-1.2775,-1.278,-1.278,-1.2732,-1.2732,-1.2732,-1.2678,-1.2387,-1.1414,-1.1268,-1.0886,-0.9871,-0.9673,-1.0404,-1.2441,-1.1853,-1.1268,-1.1268,-1.0306,-0.9624,-0.9624,-0.9628,-0.9579,-0.9579,-0.9579,-0.9579,-0.9579,-0.9579,-0.9579,-0.9579,-0.9331,-0.9331,-0.9579,-0.9547,-0.9529,-0.954,-0.9824,-0.9823,-1.7032,-1.7508,-1.8009,-1.8504,-1.8851,-1.9098,-1.9192,-1.9519,-1.9746,-1.9553,-1.974,-1.9887,-1.9693,-1.99,-2.0154,-2.0354,-2.0628,-2.0889,-2.1082,-2.0862,-2.0675,-2.0675,-2.0675,-2.0675,-2.0675,-2.0762,-2.0902,-2.1096,-2.0935,-2.0909,-2.1096,-2.1109,-2.1109,-2.1109,-2.1109,-2.1109,-2.1109,-2.1109,-2.1109,-2.1109,-2.1109,-2.1109,-2.1109,-2.1109,-2.1056,-2.0955,-2.0762,-2.0561,-2.0354,-1.996,-1.974,-1.9633,-1.9446,-1.8887,-1.8156,-1.8004,-1.7389,-1.6732,-1.7942,-1.7698,-1.6853,-1.6752,-1.6054,-1.5263,-1.5263,-1.5205,-1.4994,-1.446,-1.4197,-1.3977,-1.3383,-1.3223,-1.3164,-1.2929,-1.2925,-1.268,-1.1888,-1.1707,-1.1517,-1.0792,-1.065,-1.0551,-1.0207,-1.0158,-1.0015,-0.9673,-0.9579,-0.9871,-1.0547,-1.0355,-1.0158,-1.0158,-0.9821,-0.9579,-0.9579,-0.9579,-0.9579,-0.9579,-0.9579,-0.9579,-0.9579,-0.9579,-0.9529,-0.9335,-0.9392,-0.9349,-0.9249,-0.9314,-0.9399,-0.9504,-0.9617,-0.9676,-1.7662,-1.819,-1.8584,-1.8985,-1.9225,-1.9424,-1.9424,-1.9432,-1.9406,-1.9112,-1.9118,-1.9078,-1.8784,-1.8971,-1.9339,-1.984,-2.0174,-2.0535,-2.1042,-2.0862,-2.0715,-2.0815,-2.0742,-2.0715,-2.0822,-2.0735,-2.0795,-2.1089,-2.0935,-2.0909,-2.1096,-2.1109,-2.1109,-2.1109,-2.1109,-2.1109,-2.1109,-2.1109,-2.1109,-2.1109,-2.1109,-2.1109,-2.1109,-2.1109,-2.1109,-2.1032,-2.04,-2.0069,-1.9884,-1.8962,-1.8511,-1.8379,-1.8205,-1.7604,-1.6803,-1.6803,-1.6279,-1.5751,-1.6909,-1.6634,-1.5774,-1.5681,-1.493,-1.4078,-1.4078,-1.4078,-1.3997,-1.3422,-1.3222,-1.307,-1.2434,-1.2276,-1.2223,-1.2064,-1.1952,-1.1704,-1.092,-1.069,-1.04,-0.9723,-0.9579,-0.9579,-0.9579,-0.9529,-0.948,-0.948,-0.9381,-0.9377,-0.9579,-0.9579,-0.9579,-0.9579,-0.9579,-0.9579,-0.948,-0.948,-0.943,-0.9327,-0.9327,-0.9327,-0.9327,-0.9327,-0.9229,-0.908,-0.9144,-0.918,-0.9078,-0.9201,-0.9306,-0.9348,-0.941,-0.9494,-1.8257,-1.851,-1.8671,-1.929,-1.9424,-1.9424,-1.941,-1.9118,-1.8818,-1.851,-1.821,-1.7856,-1.7595,-1.7816,-1.8275,-1.9199,-1.9613,-2.012,-2.0989,-2.0869,-2.0808,-2.1096,-2.0875,-2.0815,-2.1102,-2.0869,-2.0815,-2.1089,0.0,-2.1096,-2.1109,-2.1109,-2.1109,-2.1109,-2.1109,-2.1109,-2.1109,-2.1109,-2.1109,-2.1109,-2.1109,-2.1109,-2.1109,-2.1046,-2.0982,-2.0912,-1.9489,-1.877,-1.8411,-1.7072,-1.6225,-1.5819,-1.5793,-1.5659,-1.5531,-1.5515,-1.5456,-1.5365,-1.5019,-1.4907,-1.4781,-1.4444,-1.4145,-1.3938,-1.3938,-1.3927,-1.3706,-1.263,-1.2309,-1.1996,-1.0754,-1.0395,-1.04,-1.0217,-1.0038,-0.9908,-0.99,-0.9762,-0.9591,-0.9591,-0.9583,-0.9579,-0.9579,-0.9331,-0.9187,-0.9187,-0.8977,-0.8977,-0.9476,-0.9579,-0.9579,-0.9579,-0.9579,-0.948,-0.9183,-0.9187,-0.908,-0.8825,-0.8825,-0.8825,-0.8825,-0.8825,-0.8779,-0.8786,-0.8755,-0.8842,-0.9104,-0.916,-0.9151,-0.9097,-0.9308,-0.9213,-1.843,-1.8811,-1.9178,-1.939,-1.9424,-1.9305,-1.9085,-1.8811,-1.845,-1.7923,-1.7582,-1.7288,-1.6981,-1.7542,-1.8209,-1.8931,-1.9646,-2.0354,-2.1015,-2.1042,-2.1109,-2.1403,-2.1176,-2.1116,-2.141,-2.1176,-2.1029,-2.1102,-2.0909,-2.0882,-2.1096,-2.1109,-2.1109,-2.1109,-2.1109,-2.1109,-2.1109,-2.1109,-2.1109,-2.1109,-2.1109,-2.1109,-2.1046,-2.0005,-1.9553,-1.9489,-1.8069,-1.7457,-1.7385,-1.6758,-1.6423,-1.6279,-1.5926,-1.5211,-1.4307,-1.4201,-1.3555,-1.2779,-1.2671,-1.3167,-1.3795,-1.3683,-1.2786,-1.1779,-1.1779,-1.1674,-1.15,-1.1232,-1.1122,-1.1059,-1.0694,-1.0627,-1.0582,-1.0408,-1.0331,-1.0257,-1.0171,-0.9949,-0.9769,-0.9571,-0.926,-0.9023,-0.9023,-0.8928,-0.8928,-0.8928,-0.8825,-0.8874,-0.8977,-0.9023,-0.9023,-0.9023,-0.9023,-0.8973,-0.8928,-0.8928,-0.8874,-0.8825,-0.8825,-0.8825,-0.8825,-0.8825,-0.8785,-0.8711,-0.8822,-0.8856,-0.8807,-0.8896,-0.8989,-0.8934,-0.903,-0.8992,-1.8804,-1.9118,-1.9424,-1.9424,-1.9265,-1.9092,-1.8804,-1.8404,-1.7923,-1.7321,-1.6967,-1.6723,-1.638,-1.684,-1.7549,-1.8348,-1.9114,-1.9953,-2.0802,-2.1142,-2.1363,-2.1601,-2.1516,-2.1557,-2.1789,-2.1476,-2.1303,-2.1303,-2.1029,-2.0935,-2.1102,-2.1109,-2.1109,-2.1109,-2.1109,-2.1109,-2.1109,-2.1109,-2.1109,-2.1109,-2.1109,-2.0786,-2.0138,-1.9361,-1.8652,-1.8075,0.0,-1.6073,-1.5998,-1.5232,-1.474,-1.4499,-1.4264,-1.3513,-1.261,-1.2479,-1.1947,-1.1295,-1.1295,-1.1641,-1.2199,-1.2493,-1.1885,-1.1066,-1.0992,-1.0895,-1.0798,-1.0716,-1.0692,-1.0692,-1.0692,-1.0637,-1.0503,-1.0357,-1.0162,-0.9972,-0.9928,-0.9767,-0.9598,-0.9444,-0.9214,-0.8994,-0.8994,-0.8884,-0.8762,-0.8834,-0.8621,-0.8482,-0.8668,-0.8764,-0.8825,-0.8825,-0.8825,-0.8775,-0.8627,-0.8627,-0.8581,-0.8432,-0.855,-0.8589,-0.8589,-0.865,-0.8626,-0.8619,-0.8723,-0.8788,-0.871,-0.8807,-0.8885,-0.8885,-0.8885,-0.8974,-1.911,-1.9249,-1.9249,-1.9249,-1.9024,-1.8725,-1.8448,-1.7902,-1.7309,-1.6774,-1.642,-1.6132,-1.5831,-1.6099,-1.672,-1.7802,-1.8486,-1.9276,-2.0451,-2.1082,-2.1505,-2.1474,-2.17,-2.1872,-2.1905,-2.1646,-2.1467,-2.1492,-2.1188,-2.1022,-2.1109,-2.1109,-2.1109,-2.1109,-2.1109,-2.1109,-2.1109,-2.1109,-2.1109,-2.1109,-2.1109,-2.0335,-1.8908,-1.871,-1.7876,-1.6522,-1.5098,-1.452,-1.439,-1.3157,-1.2416,-1.1945,-1.1922,-1.1595,-1.105,-1.086,-1.0688,-1.0617,-1.0617,-1.0617,-1.068,-1.1292,-1.1352,-1.1174,-1.1086,-1.1065,-1.0936,-1.0718,-1.0657,-1.0637,-1.0582,-1.0417,-1.0257,-1.0257,-0.9864,-0.9542,-0.9542,-0.942,-0.9302,-0.9227,-0.9223,-0.9171,-0.9171,-0.8898,-0.8701,-0.8839,-0.8419,-0.8191,-0.8448,-0.8624,-0.8684,-0.8709,-0.8691,-0.8588,-0.8414,-0.8364,-0.8275,-0.8096,-0.8225,-0.835,-0.835,-0.8418,-0.8489,-0.8513,-0.8642,-0.872,-0.874,-0.8817,-0.8885,-0.8885,-0.8885,-0.9015,-1.8571,-1.8596,-1.8596,-1.8596,-1.8384,-1.8101,-1.7799,-1.7285,0.0,-1.6417,-1.6112,-1.5892,-1.5791,-1.6266,-1.6919,-1.7875,-1.8444,-1.9167,-2.006,-2.0509,-2.0798,-2.1029,-2.1034,-2.1155,-2.1385,-2.1155,0.0,0.0,-2.067,-2.0728,-2.1059,-2.1109,-2.1109,-2.1109,-2.1109,-2.1109,-2.1109,-2.1109,-2.1109,-2.1109,-2.1109,-2.0195,-1.857,-1.735,-1.5923,-1.4306,-1.2951,0.0,-1.2305,-1.2045,-1.1894,-1.179,-1.1644,-1.1479,-1.121,-1.0904,-1.0688,-1.0617,-1.0617,-1.0617,-1.0695,-1.1183,-1.1177,-1.1091,-1.136,-1.1204,-1.0908,-1.0591,-1.0421,-1.0312,-1.0036,-0.9926,-0.9871,-0.9871,-0.9794,-0.9771,-0.9771,-0.9479,-0.9169,-0.899,-0.88,-0.864,-0.864,-0.8567,-0.856,-0.8584,-0.849,-0.8425,-0.8476,-0.8272,-0.8185,-0.8367,-0.8216,-0.8189,-0.8319,-0.8333,-0.8333,-0.8397,-0.8431,-0.8445,-0.8445,-0.8469,-0.854,-0.8669,-0.8696,-0.8771,-0.8844,-0.8871,-0.8885,-0.8885,-0.8885,-0.9015,-1.8383,-1.8421,-1.8421,-1.8421,-1.7989,-1.751,-1.7197,0.0,0.0,-1.589,-1.5645,-1.5499,-1.5635,-1.5894,-1.6268,-1.6865,-1.7405,-1.8115,-1.9137,-1.9718,-2.0291,-2.0863,-2.1187,-2.1416,-2.155,-2.1308,-2.1028,-2.0755,-2.0602,-2.0522,-2.0565,-2.0609,-2.0609,-2.0609,-2.0609,-2.0609,-2.0609,-1.982,-1.9495,-1.9489,-1.8768,-1.7602,-1.6048,-1.5339,-1.4241,-1.275,-1.2107,-1.178,-1.178,-1.178,-1.1648,-1.1505,-1.1359,-1.1171,-1.0863,-1.0484,-1.0272,-1.0176,-1.0016,-1.0012,-1.0154,-1.0524,-1.0793,-1.0898,-1.0932,-1.0852,-1.069,-1.0341,-1.0175,-1.0091,-0.9839,-0.9706,-0.9596,-0.9596,-0.9434,-0.932,-0.932,-0.9154,-0.9026,-0.8902,-0.8777,-0.872,-0.872,-0.8655,-0.8628,-0.8706,-0.8584,-0.854,-0.8699,-0.8455,-0.8299,-0.8374,-0.8313,-0.8299,-0.8374,-0.8381,-0.8411,-0.8479,-0.8557,-0.8601,-0.8601,-0.8676,-0.8754,-0.8828,-0.8828,-0.8811,-0.8885,-0.8885,-0.8885,-0.8885,-0.9015,-0.913,-1.8112,-1.8181,-1.8181,-1.8181,-1.761,-1.6917,-1.6693,-1.5986,-1.5414,-1.5415,-1.5267,-1.5178,-1.5356,-1.54,-1.5541,-1.5941,-1.6373,-1.7108,-1.8229,-1.9046,-1.9858,-2.058,-2.1225,-2.1559,-2.1559,-2.1357,0.0,-2.0693,-2.036,-2.0142,-2.0119,-2.0106,-2.0106,-2.0106,-2.0106,-2.0106,-2.0106,-1.8728,-1.8005,-1.8005,-1.6571,-1.5139,-1.3718,-1.3718,-1.2943,-1.1582,-1.1582,-1.1582,-1.1582,-1.1582,-1.138,-1.1115,-1.1115,-1.0823,-1.046,-1.0195,-0.9981,-0.9788,-0.9554,-0.9534,-0.9675,-0.994,-1.0328,-1.0706,-1.058,-1.0521,-1.0439,-1.0126,-0.9948,-0.9863,-0.9735,-0.9455,-0.9268,-0.9268,-0.9103,-0.8885,-0.8885,-0.8885,-0.8885,-0.8885,-0.8885,-0.8885,-0.8885,-0.8838,-0.8801,-0.8865,-0.8733,-0.8665,-0.8851,-0.8726,-0.8581,-0.8581,-0.852,-0.8496,-0.8526,-0.853,-0.8547,-0.8577,-0.8693,-0.876,-0.876,-0.8821,-0.8885,-0.8885,-0.8885,-0.8885,-0.8885,-0.8885,-0.8898,-0.8988,-0.91,-0.9309,-1.7529,-1.7596,-1.7596,-1.7596,-1.6988,-1.6374,-1.6332,0.0,-1.5163,-1.5134,-1.5131,-1.5131,-1.5131,-1.515,-1.5333,-1.5811,-1.6132,-1.674,-1.7772,-1.8653,-1.9376,-1.9954,-2.0482,-2.0804,-2.0804,-2.0786,-2.0561,-2.0057,-1.9534,-1.9487,-2.0043,-2.0106,-2.0106,-2.0106,-2.0106,-2.0106,-2.0106,-1.8728,-1.8005,-1.8005,-1.6571,-1.5009,-1.3325,-1.3325,-1.2413,-1.0787,-1.0787,-1.0787,0.0,-1.0787,-1.0787,-1.0721,-1.0721,-1.0626,-1.0473,-1.0317,-1.0073,-0.9819,-0.9788,-0.9703,-0.9632,-0.9761,-1.0051,-1.0425,-1.071,-1.0666,-1.0428,-1.0166,-0.9885,-0.9599,-0.9306,-0.9091,-0.8937,-0.8937,-0.894,-0.8885,-0.8885,-0.8885,-0.8885,-0.8885,-0.8885,-0.8885,-0.8885,-0.8871,-0.8868,-0.8881,-0.8858,-0.8851,-0.8878,-0.8858,-0.8841,-0.8841,-0.8648,-0.8537,-0.8676,-0.8689,-0.875,-0.8834,-0.8854,-0.8861,-0.8861,-0.8875,-0.8885,-0.8885,-0.8885,-0.8885,-0.8885,-0.8885,-0.9008,-0.919,-0.9204,-0.931,-1.7129,-1.7364,-1.7485,-1.7485,-1.6754,-1.6072,-1.6076,-1.5302,-1.4673,-1.4808,-1.4736,-1.4688,-1.4838,-1.4736,-1.4697,-1.4875,-1.5015,-1.5445,-1.6568,-1.7237,-1.8082,-1.9259,-1.9869,-2.0321,-2.0641,-2.0665,-2.0448,-1.9923,-1.8797,-1.8128,-1.8221,-1.8215,-1.8215,-1.8215,-1.7437,-1.6985,-1.6985,-1.5549,-1.4893,-1.4828,-1.3456,-1.2413,-1.1762,-1.1762,-1.1372,-1.0721,-1.0721,-1.0721,0.0,-1.0721,-1.0721,-1.0721,-1.0721,-1.0683,-1.0612,-1.0463,-1.0276,-1.007,-0.9883,-0.9785,-0.9734,-0.9703,-0.9811,-1.0004,-1.0183,-1.0144,-1.0017,-0.987,-0.9697,-0.9559,-0.9258,-0.9045,-0.8885,-0.8885,-0.8885,-0.8885,-0.8885,-0.8885,-0.8885,-0.8885,-0.8885,-0.8885,-0.8885,-0.8885,-0.8885,-0.8885,-0.8885,-0.8885,-0.8885,-0.8885,-0.8885,-0.8885,-0.8828,-0.8781,-0.8842,-0.8849,-0.8817,-0.8878,-0.8885,-0.8885,-0.8885,-0.8885,-0.8981,-0.9066,-0.9066,-0.9113,-0.9205,-0.9205,-0.9235,-0.9293,-0.9384,-0.9493,-1.6712,-1.705,-1.7249,-1.7249,-1.6507,-1.5777,-1.5777,-1.501,-1.4346,-1.4544,-1.4442,-1.4346,-1.4544,-1.4442,-1.4298,-1.4298,-1.4431,-1.4883,-1.5873,-1.6543,-1.7436,-1.8801,-1.9368,-1.9717,-1.9747,-1.9381,-1.8993,-1.8574,-1.7378,-1.6579,-1.6403,-1.6003,-1.5939,-1.6398,-1.5424,-1.4907,-1.4907,-1.3468,-1.2816,-1.275,-1.1376,-1.0721,-1.0721,-1.0721,-1.0721,-1.0721,-1.0721,-1.0721,0.0,-1.0721,-1.0721,-1.0721,-1.0721,-1.0721,-1.0707,-1.0599,-1.0466,-1.0307,-1.0046,-0.9927,-0.9866,-0.972,-0.9741,-0.9822,-0.9822,-0.9822,-0.9798,-0.97,-0.9642,-0.954,-0.9289,-0.9079,-0.8991,-0.8895,-0.8885,-0.8885,-0.8885,-0.8885,-0.8885,-0.8885,-0.8885,-0.8885,-0.8885,-0.8885,-0.8885,-0.8885,-0.8885,-0.8885,-0.8885,-0.8885,-0.8885,-0.8885,-0.8885,-0.8885,-0.8885,-0.8885,-0.8885,-0.8885,-0.8885,-0.8902,-0.9001,-0.9001,-0.9069,-0.9275,-0.9275,-0.933,-0.9381,-0.9381,-0.9405,-0.9452,-0.9557,-0.9632,-1.6169,-1.6507,-1.6706,-1.6706,-1.6103,-1.5499,-1.5499,-1.4877,-1.4298,-1.4298,-1.4298,-1.4298,-1.4298,-1.4298,-1.4298,-1.4298,-1.4751,-1.5378,-1.6193,-1.6984,-1.7774,-1.8589,-1.8921,-1.8694,-1.7714,-1.6398,-1.5499,-1.5367,-1.5096,0.0,-1.4907,-1.36,-1.3473,-1.4907,-1.4907,-1.4907,-1.4907,-1.3468,-1.2816,-1.275,-1.1376,-1.0721,-1.0721,-1.0721,-1.0721,-1.0721,-1.0721,-1.0721,0.0,-1.0721,-1.0721,-1.0721,-1.0721,-1.0721,-1.0721,-1.0717,-1.0622,-1.047,-1.0327,-1.0175,-0.996,-0.9869,-0.9819,-0.9822,-0.9822,-0.9822,-0.9822,-0.9819,-0.9717,-0.954,-0.9289,-0.9207,-0.9173,-0.8974,-0.8885,-0.8885,-0.8885,-0.8885,-0.8885,-0.8885,-0.8885,-0.8885,-0.8885,-0.8885,-0.8885,-0.8885,-0.8885,-0.8885,-0.8885,-0.8885,-0.8885,-0.8885,-0.8885,-0.8885,-0.8885,-0.8885,-0.8885,-0.8885,-0.8885,-0.9001,-0.92,-0.9207,-0.9279,-0.9374,-0.9381,-0.9381,-0.9381,-0.9381,-0.9459,-0.9608,-0.9608,-0.9686,-1.5614,-1.5946,-1.6145,-1.6145,-1.5686,-1.5234,-1.5234,-1.4751,-1.4298,-1.4298,-1.4298,-1.4298,-1.4298,-1.4298,-1.4479,-1.5028,-1.5264,0.0,-1.6465,-1.6276,-1.6314,-1.7063,-1.7013,-1.6756,-1.6335,-1.5924,-1.5567,-1.5295,-1.4356,-1.3671,-1.3477,-1.2161,-1.2033,-1.3403,-1.2553,-1.2029,-1.2029,-1.1571,-1.1376,-1.1376,-1.0916,-1.0721,-1.0721,-1.0721,-1.0721,-1.0721,-1.0721,-1.0721,-1.0721,-1.0721,-1.0721,-1.0721,-1.0721,-1.0721,-1.0721,-1.0721,-1.0622,-1.0483,-1.0439,-1.0259,-0.9977,-0.993,-0.9845,-0.9822,-0.9822,-0.9822,-0.9822,-0.9822,-0.972,-0.9588,-0.949,-0.9388,-0.9269,-0.912,-0.9086,-0.9059,-0.8905,-0.8885,-0.8885,-0.8885,-0.8885,-0.8885,-0.8885,-0.8885,-0.8885,-0.8885,-0.8885,-0.8885,-0.8885,-0.8885,-0.8885,-0.8885,-0.8885,-0.8885,-0.8885,-0.8885,-0.8885,-0.8885,-0.9032,-0.9163,-0.9207,-0.9309,-0.9381,-0.9534,-0.9537,-0.9585,-0.9683,-0.9683,-0.9707,-0.9754,-0.9754,-0.929,-1.5059,-1.5396,-1.5596,-1.5596,-1.5276,-1.4962,-1.4962,-1.4618,-1.4298,-1.4298,-1.4298,-1.4298,-1.4298,-1.4298,-1.4345,-1.453,-1.5025,-1.5346,-1.5261,-1.525,-1.5334,-1.5533,-1.5007,-1.4589,-1.4459,-1.4109,-1.3777,-1.359,-1.2782,-1.2206,-1.2037,-1.1181,-1.1111,-1.1967,-1.1178,-1.0721,-1.0721,-1.0721,-1.0721,-1.0721,-1.0721,-1.0721,-1.0721,-1.0721,-1.0721,-1.0721,-1.0721,-1.0721,0.0,-1.0721,-1.0721,-1.0721,-1.0721,-1.0721,-1.0721,-1.0721,-1.066,-1.0568,-1.051,-1.0371,-1.0198,-1.0024,-0.9883,-0.9822,-0.9822,-0.9822,-0.9822,-0.9822,-0.9758,-0.9676,-0.9625,-0.954,-0.9429,-0.9333,-0.9251,-0.92,-0.9113,-0.8962,-0.8898,-0.9008,-0.8977,-0.8885,-0.8885,-0.8885,-0.8885,-0.8885,-0.8885,-0.8885,-0.8885,-0.8885,-0.8885,-0.8885,-0.8885,-0.8905,-0.9015,-0.8967,-0.8905,-0.9015,-0.9103,-0.9262,-0.932,-0.9415,-0.9537,-0.9686,-0.969,-0.9734,-0.9822,-0.9822,-0.9822,-0.9761,-0.9329,-0.8653,0.0,-1.4865,-1.5046,-1.5046,-1.4865,-1.469,-1.469,-1.4485,0.0,-1.4298,-1.4298,-1.431,-1.4346,-1.4292,-1.3994,-1.3274,-1.4179,-1.4505,-1.3136,-1.4036,-1.4609,-1.3939,-1.3065,-1.2435,-1.2269,-1.1427,-1.0806,-1.0731,-1.0721,-1.0721,-1.0721,-1.0721,-1.0721,-1.0721,-1.0721,-1.0721,-1.0721,-1.0721,-1.0721,-1.0721,-1.0721,-1.0721,-1.0721,-1.0721,-1.0721,0.0,-1.0721,-1.0721,-1.0721,-1.0721,-1.0721,-1.0721,-1.0721,-1.0721,-1.0721,-1.0721,-1.0721,-1.07,-1.0558,-1.05,-1.0443,-1.0081,-0.9883,-0.9822,-0.9822,-0.9822,-0.9822,-0.9822,-0.9822,-0.9791,-0.9659,-0.9625,-0.9588,-0.9435,-0.9347,-0.9279,-0.9354,-0.9157,-0.8994,-0.9183,-0.9035,-0.8885,-0.8885,-0.8892,-0.8898,-0.8898,-0.8908,-0.8912,-0.8898,-0.8898,-0.8898,-0.8898,-0.8898,-0.9011,-0.9214,-0.9035,-0.9015,-0.9217,-0.9234,-0.9313,-0.9598,-0.9618,-0.9686,-0.9819,-0.9822,-0.9822,-0.9822,-0.9697,-0.9636,-0.9636,-0.8346,-0.7734,-1.4358,0.0,-1.4491,-1.4491,-1.4443,-1.4395,0.0,-1.4346,-1.4298,-1.4298,-1.4298,-1.4425,-1.4841,-1.4044,-1.3583,-1.4402,-1.394,-1.3549,-1.3605,-1.3233,-1.2648,-1.1624,-1.1371,-1.1231,-1.1139,-1.0864,-1.0758,-1.0724,-1.0721,-1.0721,-1.0721,-1.0721,-1.0721,-1.0721,-1.0721,-1.0721,-1.0721,-1.0721,-1.0721,-1.0721,-1.0721,-1.0721,-1.0721,-1.0721,-1.0721,-1.0721,-1.0721,-1.0721,-1.0721,-1.0721,-1.0721,-1.0721,-1.0721,-1.0721,-1.0721,-1.0721,-1.0721,-1.0714,-1.068,-1.0592,-1.0443,-1.0148,-0.9947,-0.9822,-0.9822,-0.9822,-0.9822,-0.9822,-0.9822,-0.9815,-0.9781,-0.9771,-0.9734,-0.9591,-0.953,-0.9479,-0.9398,-0.9235,-0.9169,-0.9204,-0.9035,-0.8885,-0.8885,-0.9028,-0.9103,-0.9103,-0.9201,-0.9235,-0.9117,-0.9103,-0.9103,-0.9103,-0.9103,-0.9164,-0.9313,-0.9188,-0.9167,-0.9317,-0.9439,-0.9534,-0.9605,-0.9713,-0.9788,-0.9822,-0.9822,-0.9822,-0.9822,-0.8836,-0.8346,-0.8288,-0.6999,-0.5835,-1.3709,-1.3688,-1.3821,-1.3821,-1.3413,-1.3204,-1.3667,-1.3682,-1.3709,-1.4202,-1.4298,-1.4279,-1.4136,-1.3579,-1.3075,-1.2966,-1.2833,-1.282,-1.2875,-1.2143,-1.141,-1.0777,-1.0729,-1.0812,-1.0727,-1.0721,-1.0721,-1.0721,-1.0721,-1.0721,-1.0721,-1.0721,-1.0721,-1.0721,-1.0721,-1.0721,-1.0721,-1.0721,-1.0721,-1.0721,-1.0721,-1.0721,-1.0721,-1.0721,-1.0721,-1.0721,-1.0721,-1.0721,-1.0721,-1.0721,-1.0721,-1.0721,-1.0721,-1.0721,-1.0721,-1.0721,-1.0721,-1.0721,-1.0721,-1.0578,-1.0368,-1.0209,-1.0005,-0.9822,-0.9822,-0.9822,-0.9822,-0.9822,-0.9822,-0.9822,-0.9822,-0.9822,-0.9802,-0.9724,-0.9656,-0.9605,-0.9588,-0.9412,-0.9333,-0.9351,-0.9242,-0.9144,-0.9144,-0.9208,-0.9316,-0.9316,-0.9327,-0.9351,-0.9326,-0.9316,-0.9316,-0.9316,-0.9316,-0.932,-0.9473,-0.9408,-0.9398,-0.9483,-0.9564,-0.9639,-0.9703,-0.9781,-0.9822,-0.9822,-0.9822,-0.9822,-0.9822,-0.8532,-0.7919,-0.7856,-0.5896,-0.4611,-1.2721,-1.2635,-1.2812,-1.2915,-1.2257,-1.1878,-1.2735,0.0,0.0,0.0,0.0,-1.3665,-1.3002,-1.2838,-1.2307,-1.0906,-1.1478,-1.1973,-1.1638,-1.1084,-1.0694,-1.0717,-1.0721,-1.0721,-1.0721,-1.0721,-1.0721,-1.0721,-1.0721,-1.0721,-1.0721,-1.0721,-1.0721,-1.0721,-1.0721,-1.0721,-1.0721,-1.0721,-1.0721,-1.0721,-1.0721,-1.0721,-1.0721,-1.0721,-1.0721,-1.0721,0.0,0.0,-1.0721,-1.0721,-1.0721,-1.0721,-1.0721,-1.0721,-1.0721,-1.0721,-1.0721,-1.0721,-1.0721,-1.0541,-1.031,-1.0287,-1.0086,-0.9849,-0.9829,-0.9822,-0.9822,-0.9822,-0.9822,-0.9822,-0.9822,-0.9822,-0.9822,-0.9822,-0.973,-0.9676,-0.9795,-0.9608,-0.9456,-0.9585,-0.9486,-0.9381,-0.9381,-0.9401,-0.9415,-0.9415,-0.9435,-0.9442,-0.9418,-0.9415,-0.9415,-0.9415,-0.9415,-0.9479,-0.9629,-0.9642,-0.9642,-0.9642,-0.9642,-0.9696,-0.9815,-0.9822,-0.9822,-0.9822,-0.9636,-0.9515,-0.9515,-0.8,-0.7322,-0.7243,-0.4744,-0.3581,-1.1463,-1.1171,-1.1027,-1.1569,-1.1742,-1.1791,-1.1827,-1.1706,0.0,0.0,0.0,-1.1961,-1.2248,-1.1541,-1.0986,-1.1277,-1.0801,-1.0463,-1.0696,-1.0613,-1.0575,-1.0704,-1.0721,-1.0721,-1.0721,-1.0721,-1.0721,-1.0721,-1.0721,-1.0721,-1.0721,-1.0721,-1.0721,-1.0721,-1.0721,-1.0721,-1.0721,-1.0721,-1.0721,-1.0721,-1.0721,-1.0721,-1.0721,-1.0721,-1.0721,-1.0721,0.0,-1.0721,-1.0721,-1.0721,-1.0721,-1.0721,-1.0721,-1.0721,-1.0721,-1.0721,-1.0721,-1.0721,-1.0721,-1.0605,-1.0439,-1.0321,-1.0161,-0.9926,-0.9859,-0.9822,-0.9822,-0.9822,-0.9822,-0.9822,-0.9822,-0.9822,-0.9822,-0.9822,-0.9805,-0.9795,-0.9815,-0.969,-0.9581,-0.9605,-0.9486,-0.9381,-0.9381,-0.949,-0.9574,-0.9574,-0.9676,-0.971,-0.9591,-0.9574,-0.9574,-0.9574,-0.9574,-0.9632,-0.9778,-0.9788,-0.9788,-0.9788,-0.9788,-0.9798,-0.9819,-0.9822,-0.9822,-0.9822,-0.8714,-0.8163,-0.8163,-0.5788,-0.4546,-0.449,-0.2995,-0.2262,-1.0324,-1.0268,-1.0245,-0.9995,-1.0239,-1.0651,-1.1114,-1.1039,0.0,0.0,0.0,-1.1515,-1.1221,-1.0849,-1.0633,-1.0651,-1.0464,-1.0334,-1.0473,-1.0565,-1.0639,-1.0711,-1.0721,-1.0721,-1.0721,-1.0721,-1.0721,-1.0721,-1.0721,-1.0721,-1.0721,-1.0721,-1.0721,-1.0721,-1.0721,-1.0721,-1.0721,-1.0721,-1.0721,-1.0721,-1.0721,-1.0721,-1.0721,-1.0721,-1.0721,-1.0721,0.0,-1.0721,-1.0721,-1.0721,-1.0721,-1.0721,-1.0721,-1.0721,-1.0721,-1.0721,-1.0721,-1.0721,-1.0721,-1.0619,-1.048,-1.0415,-1.0236,-0.9974,-0.9903,-0.9886,-0.9822,-0.9822,-0.9822,-0.9822,-0.9822,-0.9822,-0.9822,-0.9822,-0.9822,-0.9822,-0.9822,-0.9771,-0.9724,-0.9724,-0.9666,-0.9618,-0.9618,-0.9676,-0.9724,-0.9724,-0.9778,-0.9798,-0.9734,-0.9724,-0.9724,-0.9724,-0.9724,-0.9751,-0.9815,-0.9822,-0.9822,-0.9822,-0.9822,-0.9822,-0.9822,-0.9822,-0.9451,-0.8778,-0.8224,-0.7521,-0.6836,-0.4951,-0.3967,-0.391,-0.267,-0.2043,-0.9244,-0.9384,-0.9511,-0.8876,-0.8998,-0.9533,-1.0385,-1.0352,-1.0339,0.0,0.0,-1.1,-1.0112,-1.0277,-1.0394,-1.0029,-1.0327,-1.0544,-1.0544,-1.0646,-1.0721,-1.0721,-1.0721,-1.0721,-1.0721,-1.0721,-1.0721,-1.0721,-1.0721,-1.0721,-1.0721,-1.0721,-1.0721,-1.0721,-1.0721,-1.0721,-1.0721,-1.0721,-1.0721,-1.0721,-1.0721,-1.0721,-1.0721,-1.0721,-1.0721,-1.0721,-1.0721,-1.0721,-1.0721,-1.0721,-1.0721,-1.0721,-1.0721,-1.0721,-1.0721,-1.0721,-1.0721,-1.0721,-1.0721,-1.0619,-1.0487,-1.0453,-1.0263,-0.998,-0.9947,-0.9852,-0.9822,-0.9822,-0.9822,-0.9822,-0.9822,-0.9822,-0.9822,-0.9822,-0.9822,-0.9822,-0.9822,-0.9822,-0.9822,-0.9822,-0.9822,-0.9822,-0.9822,-0.9822,-0.9822,-0.9822,-0.9822,-0.9822,-0.9822,-0.9822,-0.9822,-0.9822,-0.9822,-0.9822,-0.9822,-0.97,-0.9576,-0.9265,-0.9576,-0.9636,-0.939,-0.9329,-0.8717,-0.7368,-0.7001,-0.6313,-0.5218,-0.3915,-0.331,-0.3283,-0.2328,-0.1815,-0.8041,-0.8251,-0.8457,-0.8638,-0.8842,-0.9079,-0.9555,-0.9367,0.0,-0.9505,0.0,0.0,-0.9082,-0.9504,-0.9893,-0.9957,-1.0419,-1.0704,-1.0704,-1.0714,-1.0721,-1.0721,-1.0721,-1.0721,-1.0721,-1.0721,-1.0721,-1.0721,-1.0721,-1.0721,-1.0721,-1.0721,-1.0721,-1.0721,-1.0721,-1.0721,-1.0721,-1.0721,-1.0721,-1.0721,-1.0721,-1.0721,-1.0721,-1.0721,-1.0721,-1.0721,-1.0721,-1.0721,-1.0721,-1.0721,-1.0721,-1.0721,-1.0721,-1.0721,-1.0721,-1.0721,-1.0721,-1.0721,-1.0721,-1.0619,-1.047,-1.0337,-1.0185,-0.996,-0.988,-0.9829,-0.9822,-0.9822,-0.9822,-0.9822,-0.9822,-0.9822,-0.9822,-0.9822,-0.9822,-0.9822,-0.9822,-0.9822,-0.9822,-0.9822,-0.9822,-0.9822,-0.9822,-0.9822,-0.9822,-0.9822,-0.9822,-0.9822,-0.9822,-0.9822,-0.9822,-0.9822,-0.9822,-0.9822,-0.9822,-0.9518,-0.8842,-0.7667,-0.8958,-0.9268,-0.8102,-0.8041,-0.7245,-0.5594,-0.4369,-0.3536,-0.3212,-0.1853,-0.1223,-0.1225,-0.1111,-0.1053,-0.7685,-0.8011,-0.834,-0.8635,-0.8825,0.0,0.0,-0.9547,-0.9547,-0.9754,-0.972,0.0,-0.9269,-0.9547,-0.9873,-0.9963,-1.0348,-1.0612,-1.0707,-1.0721,-1.0721,-1.0721,-1.0721,-1.0721,-1.0721,-1.0721,-1.0721,-1.0721,-1.0721,-1.0721,-1.0721,-1.0721,-1.0721,-1.0721,-1.0721,-1.0721,-1.0721,-1.0721,-1.0721,-1.0721,-1.0721,-1.0721,-1.0721,-1.0721,-1.0721,-1.0721,-1.0721,-1.0721,-1.0721,-1.0721,-1.0721,-1.0721,-1.0721,-1.0721,-1.0721,-1.0721,-1.0721,-1.0721,-1.0721,-1.0619,-1.0483,-1.0429,-1.0246,-0.9977,-0.992,-0.9897,-0.9822,-0.9822,-0.9822,-0.9822,-0.9822,-0.9822,-0.9822,-0.9822,-0.9822,-0.9822,-0.9822,-0.9822,-0.9822,-0.9822,-0.9822,-0.9822,-0.9822,-0.9822,-0.9822,-0.9822,-0.9822,-0.9822,-0.9822,-0.9822,-0.939,-0.8404,-0.7365,-0.6752,-0.6752,-0.6632,-0.6388,-0.5894,-0.7182,-0.7429,-0.608,-0.6018,-0.5371,-0.3931,-0.3435,-0.2719,-0.175,-0.1238,-0.1051,-0.106,-0.1066,-0.1068,-0.7668,-0.7997,-0.834,-0.8635,0.0,0.0,-0.9507,-0.9686,-0.9825,-1.0073,-0.9927,-0.9707,-0.9547,-0.9563,-0.969,-0.9839,-1.0085,-1.0274,-1.0376,-1.0389,-1.0389,-1.0389,-1.0455,-1.0522,-1.0522,-1.0654,-1.0721,-1.0721,-1.0721,-1.0721,-1.0721,-1.0721,-1.0721,-1.0721,-1.0721,-1.0721,-1.0721,-1.0721,-1.0721,-1.0721,-1.0721,-1.0721,-1.0721,-1.0721,-1.0721,-1.0721,-1.0721,-1.0721,-1.0721,-1.0721,-1.0721,-1.0721,-1.0721,-1.0721,-1.0721,-1.0721,-1.0721,-1.0721,-1.0721,-1.0619,-1.049,-1.049,-1.0324,-1.0051,-1.0,-0.9913,-0.9883,-0.9836,-0.9822,-0.9822,-0.9822,-0.9822,-0.9822,-0.9822,-0.9822,-0.9822,-0.9822,-0.9822,-0.9822,-0.9822,-0.9822,-0.9822,-0.9822,-0.97,-0.9515,-0.9083,-0.9329,-0.9211,-0.8346,-0.8653,-0.8285,-0.675,-0.559,-0.4916,-0.4916,-0.4794,-0.4548,-0.418,-0.4916,-0.5039,-0.4304,-0.4304,-0.3657,-0.2269,-0.2206,-0.1727,-0.0659,-0.0659,-0.073,-0.074,-0.074,-0.074,-0.7944,-0.815,-0.8343,-0.8635,-0.8828,-0.9003,-0.9507,-0.9612,-0.9737,-1.0188,-0.9924,-0.9656,-0.9795,-0.9518,-0.9326,-0.9467,-0.9589,-0.9728,-0.9728,-0.9728,-0.9728,-0.9728,-0.9994,-1.0193,-1.0193,-1.0522,-1.0721,-1.0721,-1.0721,-1.0721,-1.0721,-1.0721,-1.0721,-1.0721,-1.0721,-1.0721,-1.0721,-1.0721,-1.0721,-1.0721,-1.0721,-1.0721,-1.0721,-1.0721,-1.0721,-1.0721,-1.0721,-1.0721,-1.0721,-1.0721,-1.0721,-1.0721,-1.0721,-1.0721,-1.0721,-1.0721,-1.0721,-1.0721,-1.0721,-1.0619,-1.049,-1.049,-1.0395,-1.0253,-1.0034,-0.9987,-0.9957,-0.9866,-0.9822,-0.9822,-0.9822,-0.9822,-0.9822,-0.9822,-0.9822,-0.9822,-0.9822,-0.9822,-0.9822,-0.9758,-0.9761,-0.9761,-0.9758,-0.9518,-0.8842,-0.7545,-0.823,-0.7928,-0.5223,-0.6018,-0.6326,-0.5039,-0.4855,-0.4855,-0.4855,-0.4547,-0.3811,-0.2586,-0.2157,-0.2281,-0.2957,-0.2956,-0.2173,-0.0505,-0.0506,-0.032,0.0,0.0,0.0,0.0,0.0,0.0,-0.7719,-0.8069,-0.8465,-0.8662,-0.8981,-0.9313,-0.9554,-0.9686,0.0,0.0,-0.9705,-0.9442,-0.9036,-0.9047,-0.9072,-0.9112,-0.9316,-0.9551,-0.9649,-0.9728,-0.9728,-0.9728,-0.9794,-0.9861,-0.9861,-0.9927,-0.9994,-0.9994,-0.9994,-0.9994,-0.9994,-1.0193,-1.0256,-0.9994,-1.0256,-1.0323,-1.0323,-1.0127,-1.0127,-1.0323,-1.0323,-1.0455,-1.0721,-1.0721,-1.0721,-1.0721,-1.0721,-1.0721,-1.0721,-1.0721,-1.0721,-1.0721,-1.0721,-1.0721,-1.0721,-1.0721,-1.0721,-1.0721,-1.0721,-1.0619,-1.049,-1.049,-1.0395,-1.0253,-1.0034,-1.0127,-1.0158,-0.9897,-0.9897,-0.9896,-0.9849,-0.9822,-0.9822,-0.9822,-0.9822,-0.9822,-0.9822,-0.9822,-0.9451,-0.8343,-0.8839,-0.8781,-0.6693,-0.706,-0.7184,-0.5833,-0.5898,-0.5776,-0.4977,-0.4281,-0.3672,-0.3264,-0.2155,-0.1479,-0.1479,-0.1356,-0.1115,-0.0752,-0.0627,-0.069,-0.0877,-0.0877,-0.0634,-0.013,-0.013,-0.0131,0.0,0.0,0.0,0.0,0.0,0.0,-0.7831,-0.8255,-0.8713,-0.8923,-0.9225,-0.9451,-0.948,-0.9626,-0.9646,-0.9544,-0.9424,-0.9189,-0.8894,-0.8781,-0.8747,-0.8798,-0.8852,-0.8951,-0.9098,-0.9153,-0.9185,-0.9185,-0.9318,-0.9402,-0.9452,-0.9546,-0.9669,-0.9724,-0.9728,-0.9728,-0.9728,-0.9861,-0.9927,-0.9728,-0.9871,-0.9908,-0.9908,-0.9658,-0.9658,-0.9908,-0.9908,-1.0069,-1.0323,-1.0588,-1.0721,-1.0721,-1.0721,-1.0721,-1.0721,-1.0721,-1.0721,-1.0721,-1.0721,-1.0721,-1.0721,-1.0721,-1.0721,-1.0721,-1.0721,-1.066,-1.0582,-1.0582,-1.0524,-1.0426,-1.0273,-1.029,-1.03,-0.9998,-0.9854,-0.9705,-0.8995,-0.8775,-0.8714,-0.8961,-0.8958,-0.8711,-0.8163,-0.7919,-0.7548,-0.6566,-0.6999,-0.7001,-0.5223,-0.5466,-0.5466,-0.4119,-0.3383,-0.3144,-0.3658,-0.243,-0.1494,-0.1481,-0.0617,0.0,0.0,0.0,0.0,0.0,0.0,0.0,0.0,0.0,0.0,0.0,0.0,0.0,0.0,0.0,0.0,0.0,0.0,0.0,-0.8153,-0.8514,-0.8932,-0.9229,-0.9438,-0.9483,-0.9249,-0.938,-0.9446,-0.9254,-0.9022,-0.8894,-0.8954,-0.8579,-0.8298,-0.8469,-0.8342,-0.8172,-0.8172,-0.8331,-0.8402,-0.8402,-0.866,-0.8896,-0.9004,-0.9243,-0.9431,-0.9567,-0.9576,-0.9582,-0.9594,-0.9649,-0.9643,-0.9576,-0.9511,-0.9438,-0.9438,-0.9249,-0.9249,-0.9438,-0.9438,-0.9511,-0.9643,-1.0316,-1.0588,-1.0588,-1.0588,-1.0654,-1.0654,-1.0588,-1.0654,-1.0721,-1.0654,-1.0654,-1.0721,-1.0721,-1.0721,-1.0721,-1.0721,-1.0721,-1.0721,-1.0721,-1.0721,-1.069,-1.0472,-1.036,-1.0168,-0.9817,-0.9486,-0.8892,-0.7516,-0.6935,-0.6815,-0.7307,-0.7301,-0.6811,-0.5594,-0.5102,-0.4858,-0.4681,-0.4803,-0.4744,-0.4506,-0.4315,-0.3757,-0.2468,-0.0991,-0.0437,-0.1639,-0.0749,0.0,0.0,0.0,0.0,0.0,0.0,0.0,0.0,0.0,0.0,0.0,0.0,0.0,0.0,0.0,0.0,0.0,0.0,0.0,0.0,0.0,0.0,-0.7892,-0.812,-0.8449,-0.8791,-0.8964,-0.8942,-0.8665,-0.8634,-0.8664,-0.8629,-0.8529,-0.8439,-0.8214,-0.8155,-0.8149,-0.8174,-0.8218,-0.8172,-0.8172,-0.8194,-0.8274,-0.8274,-0.8338,-0.8347,-0.8371,-0.8416,-0.8517,-0.8642,-0.8653,-0.8758,-0.8851,-0.8964,-0.8978,-0.8719,-0.8854,-0.8977,-0.8977,-0.8631,-0.8631,-0.8977,-0.8977,-0.898,-0.9112,-0.9678,-0.9927,-0.9927,-0.9927,-1.006,-1.0256,-0.9994,-1.0256,-1.0654,-1.0389,-1.0455,-1.0721,-1.0721,-1.0721,-1.0721,-1.0721,-1.0721,-1.0721,-1.0721,-1.0721,-1.0627,-1.0215,-0.9376,-0.8404,-0.7851,-0.6906,-0.5944,-0.555,-0.5406,-0.51,-0.4243,-0.4732,-0.5345,-0.504,-0.4979,-0.4502,-0.3249,-0.3818,-0.3768,-0.1465,-0.1895,-0.2068,-0.0753,-0.0256,-0.013,-0.0386,-0.0192,0.0,0.0,0.0,0.0,0.0,0.0,0.0,0.0,0.0,0.0,0.0,0.0,0.0,0.0,0.0,0.0,0.0,0.0,0.0,0.0,0.0,0.0,-0.7537,-0.7792,-0.816,-0.8571,-0.866,-0.8515,-0.8337,-0.8156,-0.8038,-0.8038,-0.8141,-0.8119,-0.7933,-0.7985,-0.8029,-0.8029,-0.8019,-0.8062,-0.8062,-0.8111,-0.8149,-0.8149,-0.8149,-0.8171,-0.8167,-0.8182,-0.8198,-0.832,-0.8331,-0.8356,-0.8416,-0.8491,-0.8458,-0.8331,-0.8403,-0.8465,-0.8465,-0.8215,-0.8215,-0.8465,-0.8465,-0.853,-0.8593,-0.9372,-0.9728,-0.9728,-0.9728,-0.9794,-0.9921,-0.9723,-0.9864,-1.0183,-0.9984,-1.0,-1.0193,-1.0193,-1.0193,-1.0193,-1.0193,-1.0193,-1.0193,-1.0193,-0.9718,-0.9097,-0.8898,-0.7817,-0.6651,-0.6271,-0.5523,-0.4676,-0.3958,-0.363,-0.3201,-0.1849,-0.2708,-0.3568,-0.2955,-0.2647,-0.2284,-0.1494,-0.1818,-0.1832,-0.0255,-0.0574,-0.0831,-0.0129,0.0,0.0,0.0,0.0,0.0,0.0,0.0,0.0,0.0,0.0,0.0,0.0,0.0,0.0,0.0,0.0,0.0,0.0,0.0,0.0,0.0,0.0,0.0,0.0,0.0,0.0,-0.7088,-0.7446,-0.7877,-0.8335,-0.8242,-0.8082,-0.8082,-0.7847,-0.7671,-0.7671,-0.7777,-0.7872,-0.7872,-0.7872,-0.7872,-0.7872,-0.7872,-0.7872,-0.7872,-0.8021,-0.8086,-0.8086,-0.8086,-0.8062,-0.8163,-0.8081,-0.8073,-0.8195,-0.8204,-0.8212,-0.817,-0.8214,-0.8204,-0.8204,-0.8087,-0.8086,-0.8086,-0.7982,-0.7982,-0.8086,-0.8106,-0.8106,-0.8212,-0.9086,-0.9462,-0.9462,-0.9483,-0.9483,-0.9516,-0.9338,-0.9425,-0.9582,-0.9428,-0.9527,-0.9697,-0.9718,-0.9728,-0.9728,-0.9728,-0.9728,-0.9661,-0.9392,-0.8512,-0.7434,-0.71,-0.6021,-0.4854,-0.4674,-0.4184,-0.3518,-0.2374,-0.186,-0.1362,-0.0248,-0.105,-0.1787,-0.0679,-0.0185,0.0,0.0,0.0,0.0,0.0,0.0,0.0,0.0,0.0,0.0,0.0,0.0,0.0,0.0,0.0,0.0,0.0,0.0,0.0,0.0,0.0,0.0,0.0,0.0,0.0,0.0,0.0,0.0,0.0,0.0,0.0,0.0,0.0,0.0,-0.6574,-0.6945,-0.7338,-0.746,-0.7519,-0.7602,-0.7602,-0.7543,-0.7543,-0.7543,-0.7717,-0.7872,-0.7872,-0.7872,-0.7872,-0.7872,-0.7872,-0.7872,-0.7872,-0.7886,-0.7955,-0.7955,-0.7955,-0.7902,-0.7918,-0.7905,-0.801,-0.8133,-0.8141,-0.8125,-0.8167,-0.8136,-0.8141,-0.8141,-0.8021,-0.7955,-0.7955,-0.788,-0.788,-0.7958,-0.8065,-0.8125,-0.8147,-0.8284,-0.8411,-0.8416,-0.8527,-0.8705,-0.8922,-0.8523,-0.8779,-0.9316,-0.9092,-0.9208,-0.9565,-0.9684,-0.9728,-0.9728,-0.9728,-0.9728,-0.9458,-0.8176,-0.7636,-0.7234,-0.5628,-0.4187,-0.2963,-0.2626,-0.1561,-0.058,-0.0385,-0.0318,-0.0252,-0.0063,-0.0187,-0.0309,-0.0123,-0.0062,0.0,0.0,0.0,0.0,0.0,0.0,0.0,0.0,0.0,0.0,0.0,0.0,0.0,0.0,0.0,0.0,0.0,0.0,0.0,0.0,0.0,0.0,0.0,0.0,0.0,0.0,0.0,0.0,0.0,0.0,0.0,0.0,0.0,0.0,-0.6325,-0.6602,-0.6943,-0.7199,-0.7274,-0.7331,-0.7402,-0.7415,-0.7415,-0.7415,-0.7554,-0.7695,-0.7763,-0.7828,-0.785,-0.7785,-0.7831,-0.7823,-0.7693,-0.7788,-0.7847,-0.7782,-0.7834,-0.7872,-0.7872,-0.7872,-0.7894,-0.801,-0.8012,-0.7975,-0.8027,-0.7981,-0.8012,-0.8012,-0.796,-0.7872,-0.7872,-0.7872,-0.7872,-0.7872,-0.7988,-0.8012,-0.8018,-0.8079,-0.8171,-0.8175,-0.8293,-0.8349,-0.842,-0.8223,-0.8361,-0.8678,-0.8536,-0.8573,-0.8781,-0.891,-0.8489,-0.7832,-0.7828,-0.731,-0.6571,-0.5899,-0.5163,-0.4293,-0.3556,-0.2273,-0.113,-0.099,-0.0459,0.0,0.0,0.0,0.0,0.0,0.0,0.0,0.0,0.0,0.0,0.0,0.0,0.0,0.0,0.0,0.0,0.0,0.0,0.0,0.0,0.0,0.0,0.0,0.0,0.0,0.0,0.0,0.0,0.0,0.0,0.0,0.0,0.0,0.0,0.0,0.0,0.0,0.0,0.0,0.0,0.0,0.0,0.0,-0.6002,-0.6282,-0.6524,-0.6883,-0.7098,-0.7135,-0.7225,-0.7269,-0.729,-0.729,-0.7385,-0.75,-0.7592,-0.7703,-0.7755,-0.7668,-0.7725,-0.772,-0.7543,-0.7671,-0.775,-0.7665,-0.7731,-0.7793,-0.7823,-0.7828,-0.7839,-0.7869,-0.7872,-0.7872,-0.7872,-0.7872,-0.7872,-0.7872,-0.7872,-0.7872,-0.7872,-0.7872,-0.7872,-0.7872,-0.7872,-0.7872,-0.7875,-0.8026,-0.7866,-0.7635,-0.7983,-0.8171,-0.8072,-0.7731,-0.7556,-0.7564,-0.7193,-0.7093,-0.7176,-0.7284,-0.6682,-0.5788,-0.5852,-0.515,-0.4227,-0.3892,-0.3023,-0.2017,-0.1681,-0.0807,0.0,0.0,0.0,0.0,0.0,0.0,0.0,0.0,0.0,0.0,0.0,0.0,0.0,0.0,0.0,0.0,0.0,0.0,0.0,0.0,0.0,0.0,0.0,0.0,0.0,0.0,0.0,0.0,0.0,0.0,0.0,0.0,0.0,0.0,0.0,0.0,0.0,0.0,0.0,0.0,0.0,0.0,0.0,0.0,0.0,0.0,-0.5588,-0.585,-0.6026,-0.6336,-0.6736,-0.6994,-0.7002,-0.7086,-0.7221,-0.7221,-0.726,-0.729,-0.7296,-0.7453,-0.7535,-0.7529,-0.7532,-0.7532,-0.7521,-0.7529,-0.7535,-0.7529,-0.7532,-0.7581,-0.7698,-0.7709,-0.7755,-0.7861,-0.7872,-0.7872,-0.7872,-0.7872,-0.7872,-0.7872,-0.7872,-0.7872,-0.7872,-0.7872,-0.7872,-0.7872,-0.7872,-0.7872,-0.7872,-0.7877,-0.7207,-0.6109,-0.7513,-0.8059,-0.7827,-0.653,-0.6039,-0.5929,-0.4757,-0.4281,-0.4356,-0.4486,-0.4482,-0.44,-0.4404,-0.4378,-0.4093,-0.2687,-0.2151,-0.1882,-0.0538,-0.0067,0.0,0.0,0.0,0.0,0.0,0.0,0.0,0.0,0.0,0.0,0.0,0.0,0.0,0.0,0.0,0.0,0.0,0.0,0.0,0.0,0.0,0.0,0.0,0.0,0.0,0.0,0.0,0.0,0.0,0.0,0.0,0.0,0.0,0.0,0.0,0.0,0.0,0.0,0.0,0.0,0.0,0.0,0.0,0.0,0.0,0.0,-0.5453,-0.5697,-0.5972,-0.6257,-0.6483,-0.6673,-0.6831,-0.6959,-0.7046,-0.7046,-0.7138,-0.722,-0.722,-0.7383,-0.7494,-0.7415,-0.7467,-0.7464,-0.7307,-0.7418,-0.7489,-0.741,-0.747,-0.7568,-0.769,-0.7701,-0.7747,-0.7861,-0.7872,-0.7872,-0.7872,-0.7872,-0.7872,-0.7872,-0.7872,-0.7872,-0.7872,-0.7872,-0.7872,-0.7872,-0.7872,-0.7872,-0.7872,-0.7872,-0.7194,-0.5908,-0.6436,-0.6181,-0.5287,-0.4797,-0.4613,-0.4555,-0.4146,-0.397,-0.3981,-0.4146,-0.3615,-0.286,-0.2848,-0.2275,-0.1479,-0.0942,-0.074,-0.0673,-0.0135,0.0,0.0,0.0,0.0,0.0,0.0,0.0,0.0,0.0,0.0,0.0,0.0,0.0,0.0,0.0,0.0,0.0,0.0,0.0,0.0,0.0,0.0,0.0,0.0,0.0,0.0,0.0,0.0,0.0,0.0,0.0,0.0,0.0,0.0,0.0,0.0,0.0,0.0,0.0,0.0,0.0,0.0,0.0,0.0,0.0,0.0,0.0,-0.5347,-0.5572,-0.5893,-0.6094,-0.6263,-0.6442,-0.6684,-0.6804,-0.6885,-0.697,-0.7046,-0.7163,-0.7202,-0.7288,-0.7369,-0.7288,-0.7342,-0.7339,-0.7232,-0.7296,-0.7366,-0.7285,-0.7347,-0.7445,-0.7568,-0.7616,-0.769,-0.7804,-0.785,0.0,-0.7872,-0.7872,-0.7872,-0.7872,-0.7872,-0.7872,-0.7872,-0.7872,-0.7872,-0.7872,-0.7872,-0.7872,-0.7872,-0.7872,-0.695,-0.5228,-0.5228,-0.4737,-0.3875,-0.3446,-0.3263,-0.3201,-0.2771,-0.2594,-0.2612,-0.2666,-0.2123,-0.1366,-0.1393,-0.0804,0.0,0.0,0.0,0.0,0.0,0.0,0.0,0.0,0.0,0.0,0.0,0.0,0.0,0.0,0.0,0.0,0.0,0.0,0.0,0.0,0.0,0.0,0.0,0.0,0.0,0.0,0.0,0.0,0.0,0.0,0.0,0.0,0.0,0.0,0.0,0.0,0.0,0.0,0.0,0.0,0.0,0.0,0.0,0.0,0.0,0.0,0.0,0.0,0.0,0.0,0.0,0.0,0.0,0.0,0.0,-0.5871,-0.6078,-0.632,-0.6554,-0.6608,-0.6679,-0.6923,-0.6975,-0.701,-0.7182,-0.7204,-0.7204,-0.721,-0.721,-0.721,-0.721,-0.721,-0.721,-0.721,-0.721,-0.7201,-0.7269,-0.7448,-0.757,-0.7693,-0.7807,-0.7872,-0.7872,-0.7872,-0.7872,-0.7872,-0.7872,-0.7872,-0.7872,-0.7872,-0.7872,-0.7872,-0.7872,-0.7872,-0.7872,-0.7872,-0.6455,-0.3875,-0.3875,-0.3875,-0.3692,-0.2465,-0.1912,-0.1788,-0.0494,0.0,0.0,0.0,0.0,0.0,0.0,0.0,0.0,0.0,0.0,0.0,0.0,0.0,0.0,0.0,0.0,0.0,0.0,0.0,0.0,0.0,0.0,0.0,0.0,0.0,0.0,0.0,0.0,0.0,0.0,0.0,0.0,0.0,0.0,0.0,0.0,0.0,0.0,0.0,0.0,0.0,0.0,0.0,0.0,0.0,0.0,0.0,0.0,0.0,0.0,0.0,0.0,0.0,0.0,0.0,0.0,0.0,0.0,0.0,-0.5211,0.0,0.0,0.0,0.0,0.0,-0.6312,-0.6366,-0.6434,-0.6671,-0.6719,-0.6785,-0.6994,-0.7032,-0.7114,-0.7196,-0.721,-0.721,-0.721,-0.721,-0.721,-0.721,-0.721,-0.7201,-0.7269,-0.7448,-0.757,0.0,-0.7807,-0.7872,-0.7872,-0.7872,-0.7872,-0.7872,-0.7872,-0.7872,-0.7872,-0.7872,-0.7872,-0.7872,-0.7872,-0.7872,-0.7872,-0.7872,-0.6455,-0.3875,-0.3875,-0.2831,-0.1048,-0.0679,-0.0555,-0.0494,-0.0123,0.0,0.0,0.0,0.0,0.0,0.0,0.0,0.0,0.0,0.0,0.0,0.0,0.0,0.0,0.0,0.0,0.0,0.0,0.0,0.0,0.0,0.0,0.0,0.0,0.0,0.0,0.0,0.0,0.0,0.0,0.0,0.0,0.0,0.0,0.0,0.0,0.0,0.0,0.0,0.0,0.0,0.0,0.0,0.0,0.0,0.0,0.0,0.0,0.0,0.0,0.0,0.0,0.0,0.0,0.0,0.0,0.0,0.0,0.0,0.0,0.0,0.0,0.0,0.0,0.0,-0.6259,-0.6279,-0.6274,-0.6559,-0.6619,-0.6679,-0.6872,-0.691,-0.6931,-0.6997,-0.7106,-0.7155,-0.7202,-0.721,-0.721,-0.721,-0.721,-0.7237,-0.7252,-0.7372,-0.7472,-0.7543,-0.7703,-0.782,-0.7869,-0.7826,-0.7801,-0.7801,-0.7752,-0.7747,-0.7801,-0.7801,-0.7823,-0.7872,-0.7872,-0.7625,-0.7072,-0.7072,-0.5596,-0.3078,-0.3078,-0.191,0.0,0.0,0.0,0.0,0.0,0.0,0.0,0.0,0.0,0.0,0.0,0.0,0.0,0.0,0.0,0.0,0.0,0.0,0.0,0.0,0.0,0.0,0.0,0.0,0.0,0.0,0.0,0.0,0.0,0.0,0.0,0.0,0.0,0.0,0.0,0.0,0.0,0.0,0.0,0.0,0.0,0.0,0.0,0.0,0.0,0.0,0.0,0.0,0.0,0.0,0.0,0.0,0.0,0.0,0.0,0.0,0.0,0.0,0.0,0.0,0.0,0.0,0.0,0.0,-0.5014,-0.5494,0.0,0.0,-0.5839,0.0,-0.6181,-0.6143,-0.6159,-0.6491,-0.6548,-0.6581,-0.6717,-0.6752,-0.6766,-0.6779,-0.6885,-0.7005,-0.7174,-0.7202,-0.721,-0.721,-0.721,-0.721,-0.721,-0.7266,-0.728,-0.728,-0.7562,-0.7739,-0.7828,-0.775,-0.7695,-0.7682,-0.7576,-0.757,-0.7682,-0.7682,-0.7739,-0.7853,-0.7853,-0.7184,-0.5906,-0.5906,-0.4493,-0.1973,-0.1973,-0.1234,0.0,0.0,0.0,0.0,0.0,0.0,0.0,0.0,0.0,0.0,0.0,0.0,0.0,0.0,0.0,0.0,0.0,0.0,0.0,0.0,0.0,0.0,0.0,0.0,0.0,0.0,0.0,0.0,0.0,0.0,0.0,0.0,0.0,0.0,0.0,0.0,0.0,0.0,0.0,0.0,0.0,0.0,0.0,0.0,0.0,0.0,0.0,0.0,0.0,0.0,0.0,0.0,0.0,0.0,0.0,0.0,0.0,0.0,0.0,0.0,0.0,0.0,0.0,0.0,-0.4221,-0.4623,-0.4938,-0.5667,0.0,0.0,-0.5986,-0.5956,-0.5986,-0.6154,-0.6111,-0.6111,-0.6331,-0.6448,-0.6489,-0.6638,-0.6757,-0.688,-0.6999,-0.7152,-0.721,-0.721,-0.721,-0.721,-0.721,-0.7266,-0.728,-0.728,-0.7562,-0.7668,-0.7592,-0.766,-0.7657,-0.7557,-0.7532,-0.7529,-0.7554,-0.7554,-0.7614,-0.7733,-0.7733,-0.7115,-0.5906,-0.5906,-0.4493,-0.1973,-0.1973,-0.1234,0.0,0.0,0.0,0.0,0.0,0.0,0.0,0.0,0.0,0.0,0.0,0.0,0.0,0.0,0.0,0.0,0.0,0.0,0.0,0.0,0.0,0.0,0.0,0.0,0.0,0.0,0.0,0.0,0.0,0.0,0.0,0.0,0.0,0.0,0.0,0.0,0.0,0.0,0.0,0.0,0.0,0.0,0.0,0.0,0.0,0.0,0.0,0.0,0.0,0.0,0.0,0.0,0.0,0.0,0.0,0.0,0.0,0.0,0.0,0.0,0.0,0.0,0.0,0.0,-0.3341,-0.4084,-0.4703,-0.508,0.0,0.0,0.0,-0.5947,-0.5956,-0.614,-0.6081,-0.6051,-0.6284,-0.6314,-0.6372,-0.6434,-0.6594,-0.6733,-0.6793,-0.6956,-0.7147,-0.7202,-0.721,-0.721,-0.721,-0.7211,-0.7271,-0.7274,-0.7451,-0.7519,-0.7519,-0.7519,-0.7491,-0.7429,-0.7369,-0.7366,-0.7426,-0.7426,-0.7519,-0.7701,-0.7701,-0.6731,-0.4921,-0.4921,-0.3447,-0.0987,-0.0987,-0.0617,0.0,0.0,0.0,0.0,0.0,0.0,0.0,0.0,0.0,0.0,0.0,0.0,0.0,0.0,0.0,0.0,0.0,0.0,0.0,0.0,0.0,0.0,0.0,0.0,0.0,0.0,0.0,0.0,0.0,0.0,0.0,0.0,0.0,0.0,0.0,0.0,0.0,0.0,0.0,0.0,0.0,0.0,0.0,0.0,0.0,0.0,0.0,0.0,0.0,0.0,0.0,0.0,0.0,0.0,0.0,0.0,0.0,0.0,0.0,0.0,0.0,0.0,0.0,0.0,0.0,0.0,-0.4159,0.0,0.0,-0.5863,0.0,0.0,0.0,-0.613,-0.6086,-0.6053,-0.6176,-0.6246,-0.6254,-0.6279,0.0,0.0,0.0,-0.6777,0.0,-0.7128,-0.7141,-0.7141,-0.7141,-0.7141,-0.7138,-0.7258,-0.7288,-0.7345,-0.7442,-0.7377,-0.7269,-0.7301,-0.7206,-0.7201,-0.7298,-0.7301,-0.7423,-0.7665,-0.7425,-0.6103,-0.3875,-0.363,-0.2217,0.0,0.0,0.0,0.0,0.0,0.0,0.0,0.0,0.0,0.0,0.0,0.0,0.0,0.0,0.0,0.0,0.0,0.0,0.0,0.0,0.0,0.0,0.0,0.0,0.0,0.0,0.0,0.0,0.0,0.0,0.0,0.0,0.0,0.0,0.0,0.0,0.0,0.0,0.0,0.0,0.0,0.0,0.0,0.0,0.0,0.0,0.0,0.0,0.0,0.0,0.0,0.0,0.0,0.0,0.0,0.0,0.0,0.0,0.0,0.0,0.0,0.0,0.0,0.0,0.0,0.0,0.0,0.0,0.0,0.0,0.0,-0.467,0.0,0.0,0.0,-0.5882,-0.5764,0.0,-0.5809,-0.5923,0.0,0.0,0.0,0.0,0.0,-0.6392,-0.6575,-0.6706,-0.6828,-0.6842,-0.6842,-0.6842,-0.6842,-0.6893,-0.7016,-0.7116,-0.7237,-0.7251,-0.7285,-0.7288,-0.7235,-0.7218,-0.7218,-0.7232,-0.7232,-0.7298,-0.7482,-0.6298,-0.5081,-0.3875,-0.271,-0.1418,0.0,0.0,0.0,0.0,0.0,0.0,0.0,0.0,0.0,0.0,0.0,0.0,0.0,0.0,0.0,0.0,0.0,0.0,0.0,0.0,0.0,0.0,0.0,0.0,0.0,0.0,0.0,0.0,0.0,0.0,0.0,0.0,0.0,0.0,0.0,0.0,0.0,0.0,0.0,0.0,0.0,0.0,0.0,0.0,0.0,0.0,0.0,0.0,0.0,0.0,0.0,0.0,0.0,0.0,0.0,0.0,0.0,0.0,0.0,0.0,0.0,0.0,0.0,0.0,0.0,0.0,0.0,0.0,0.0,0.0,0.0,0.0,0.0,-0.5621,0.0,-0.5809,0.0,0.0,0.0,0.0,0.0,0.0,0.0,-0.613,0.0,0.0,0.0,-0.6431,0.0,0.0,0.0,-0.6801,-0.6801,-0.6823,-0.6874,-0.6989,-0.7111,-0.7111,-0.7165,-0.7206,-0.7213,-0.721,-0.7243,-0.7258,-0.7258,-0.6976,-0.6428,-0.589,-0.4637,-0.2772,-0.2219,-0.1296,0.0,0.0,0.0,0.0,0.0,0.0,0.0,0.0,0.0,0.0,0.0,0.0,0.0,0.0,0.0,0.0,0.0,0.0,0.0,0.0,0.0,0.0,0.0,0.0,0.0,0.0,0.0,0.0,0.0,0.0,0.0,0.0,0.0,0.0,0.0,0.0,0.0,0.0,0.0,0.0,0.0,0.0,0.0,0.0,0.0,0.0,0.0,0.0,0.0,0.0,0.0,0.0,0.0,0.0,0.0,0.0,0.0,0.0,0.0,0.0,0.0,0.0,0.0,0.0,0.0,0.0,0.0,0.0,0.0,0.0,0.0,0.0,0.0,0.0,0.0,0.0,0.0,0.0,0.0,0.0,0.0,0.0,0.0,0.0,-0.6086,0.0,-0.6116,0.0,0.0,0.0,0.0,0.0,-0.6703,-0.661,-0.6325,-0.6406,-0.6317,-0.6105,-0.6177,-0.6186,-0.6189,-0.6191,-0.624,-0.6288,-0.626,-0.594,-0.5167,-0.4787,-0.3684,-0.1973,-0.1603,-0.0925,0.0,0.0,0.0,0.0,0.0,0.0,0.0,0.0,0.0,0.0,0.0,0.0,0.0,0.0,0.0,0.0,0.0,0.0,0.0,0.0,0.0,0.0,0.0,0.0,0.0,0.0,0.0,0.0,0.0,0.0,0.0,0.0,0.0,0.0,0.0,0.0,0.0,0.0,0.0,0.0,0.0,0.0,0.0,0.0,0.0,0.0,0.0,0.0,0.0,0.0,0.0,0.0,0.0,0.0,0.0,0.0,0.0,0.0,0.0,0.0,0.0,0.0,0.0,0.0,0.0,0.0,0.0,0.0,0.0,0.0,-0.2403,0.0,0.0,0.0,0.0,-0.6043,0.0,0.0,0.0,0.0,0.0,0.0,0.0,0.0,0.0,0.0,0.0,0.0,0.0,0.0,0.0,0.0,-0.6398,-0.604,0.0,-0.5072,-0.4678,-0.3755,-0.371,-0.3712,-0.3722,-0.3725,-0.3698,-0.3699,-0.37,-0.3787,-0.3845,-0.2548,-0.1975,-0.1973,-0.0679,-0.0062,0.0,0.0,0.0,0.0,0.0,0.0,0.0,0.0,0.0,0.0,0.0,0.0,0.0,0.0,0.0,0.0,0.0,0.0,0.0,0.0,0.0,0.0,0.0,0.0,0.0,0.0,0.0,0.0,0.0,0.0,0.0,0.0,0.0,0.0,0.0,0.0,0.0,0.0,0.0,0.0,0.0,0.0,0.0,0.0,0.0,0.0,0.0,0.0,0.0,0.0,0.0,0.0,0.0,0.0,0.0,0.0,0.0,0.0,0.0,0.0,0.0,0.0,0.0,0.0,0.0,0.0,0.0,0.0,0.0,-0.0311,-0.1573,0.0,0.0,0.0,0.0,0.0,0.0,0.0,0.0,0.0,0.0,0.0,0.0,0.0,0.0,0.0,0.0,0.0,0.0,0.0,0.0,0.0,0.0,0.0,0.0,-0.4312,0.0,-0.3473,-0.3553,-0.3582,-0.3608,-0.3593,-0.3643,-0.3703,-0.3741,-0.3359,-0.2588,-0.2156,-0.1511,-0.0679,-0.0185,0.0,0.0,0.0,0.0,0.0,0.0,0.0,0.0,0.0,0.0,0.0,0.0,0.0,0.0,0.0,0.0,0.0,0.0,0.0,0.0,0.0,0.0,0.0,0.0,0.0,0.0,0.0,0.0,0.0,0.0,0.0,0.0,0.0,0.0,0.0,0.0,0.0,0.0,0.0,0.0,0.0,0.0,0.0,0.0,0.0,0.0,0.0,0.0,0.0,0.0,0.0,0.0,0.0,0.0,0.0,0.0,0.0,0.0,0.0,0.0,0.0,0.0,0.0,0.0,0.0,0.0,0.0,0.0,0.0,0.0,0.0,-0.1149,-0.1399,0.0,-0.3443,0.0,-0.4017,0.0,0.0,0.0,0.0,0.0,0.0,0.0,0.0,0.0,0.0,-0.4853,0.0,0.0,0.0,0.0,0.0,0.0,-0.4501,-0.3725,-0.3086,0.0,0.0,-0.2289,-0.2302,-0.2313,-0.2339,-0.2378,-0.2431,-0.2463,-0.2058,-0.1315,-0.1307,-0.0839,0.0,0.0,0.0,0.0,0.0,0.0,0.0,0.0,0.0,0.0,0.0,0.0,0.0,0.0,0.0,0.0,0.0,0.0,0.0,0.0,0.0,0.0,0.0,0.0,0.0,0.0,0.0,0.0,0.0,0.0,0.0,0.0,0.0,0.0,0.0,0.0,0.0,0.0,0.0,0.0,0.0,0.0,0.0,0.0,0.0,0.0,0.0,0.0,0.0,0.0,0.0,0.0,0.0,0.0,0.0,0.0,0.0,0.0,0.0,0.0,0.0,0.0,0.0,0.0,0.0,0.0,0.0,0.0,0.0,0.0]},{"header":{"parameterUnit":"m.s-1","parameterCategory":1,"la1":30.6,"la2":29.2853,"lo1":-89.7004,"lo2":-87.6739,"dy":0.0162,"dx":0.0183,"nx":112,"ny":82,"refTime":"2024-08-18T06:00:00:Z","depth":0,"parameterNumber":3,"parameterNumberName":"V-component_of_WINDS"},"data":[0.0,0.0,0.0,0.0,0.0,0.0,0.0,0.0,0.0,0.0,0.0,0.0,0.0,0.0,0.0,0.0,0.0,0.0,0.0,0.0,0.0,0.0,0.0,0.0,0.0,0.0,0.0,0.0,0.0,0.0,0.0,0.0,0.0,0.0,0.0,0.0,0.0,0.0,0.0,0.0,0.0,0.0,0.0,0.0,0.0,0.0,0.0,0.0,0.0,0.0,0.0,0.0,0.0,0.0,0.0,0.0,0.0,0.0,0.0,0.0,0.0,0.0,0.0,0.0,0.0,0.0,0.0,0.0,0.0,0.0,0.0,0.0,0.0,0.0,0.0,0.0,0.0,0.0,0.0,0.0,0.0,0.0,0.0,0.0,0.0,0.0,0.0,0.0,0.0,0.0,3.3004,3.4827,3.7195,3.8396,3.7787,3.7635,3.5994,3.2361,0.0,0.0,0.0,0.0,0.0,0.0,0.0,0.0,0.0,0.0,0.0,0.0,0.0,0.0,0.0,0.0,0.0,0.0,0.0,0.0,0.0,0.0,0.0,0.0,0.0,0.0,0.0,0.0,0.0,0.0,0.0,0.0,0.0,0.0,0.0,0.0,0.0,0.0,0.0,0.0,0.0,0.0,0.0,0.0,0.0,0.0,0.0,0.0,0.0,0.0,0.0,0.0,0.0,0.0,0.0,0.0,0.0,0.0,0.0,0.0,0.0,0.0,0.0,0.0,0.0,0.0,0.0,0.0,0.0,0.0,0.0,0.0,0.0,0.0,0.0,0.0,0.0,0.0,0.0,0.0,0.0,0.0,0.0,0.0,0.0,0.0,0.0,0.0,0.0,0.0,0.0,0.0,0.0,0.0,0.0,0.0,0.0,0.0,0.0,0.0,0.0,0.0,0.0,0.0,3.3613,3.7026,3.7229,3.71,3.6981,3.6349,3.4641,3.1562,0.0,0.0,0.0,0.0,0.0,0.0,0.0,0.0,0.0,0.0,0.0,0.0,0.0,0.0,0.0,0.0,0.0,0.0,0.0,0.0,0.0,0.0,0.0,0.0,0.0,0.0,0.0,0.0,0.0,0.0,0.0,0.0,0.0,0.0,0.0,0.0,0.0,0.0,0.0,0.0,0.0,0.0,0.0,0.0,0.0,0.0,0.0,0.0,0.0,0.0,0.0,0.0,0.0,0.0,0.0,0.0,0.0,0.0,0.0,0.0,0.0,0.0,0.0,0.0,0.0,0.0,0.0,0.0,0.0,0.0,0.0,0.0,0.0,0.0,0.0,0.0,0.0,0.0,0.0,0.0,0.0,0.0,0.0,0.0,0.0,0.0,0.0,0.0,0.0,0.0,0.0,0.0,0.0,0.0,0.0,0.0,0.0,0.0,0.0,0.0,0.0,0.0,0.0,3.207,3.4015,3.6975,3.7015,3.6626,3.618,3.5802,3.4332,3.1376,3.0446,0.0,0.0,0.0,0.0,0.0,0.0,0.0,0.0,0.0,0.0,0.0,0.0,0.0,0.0,0.0,0.0,0.0,0.0,0.0,0.0,0.0,0.0,0.0,0.0,0.0,0.0,0.0,0.0,0.0,0.0,0.0,0.0,0.0,0.0,0.0,0.0,0.0,0.0,0.0,0.0,0.0,0.0,0.0,0.0,0.0,0.0,0.0,0.0,0.0,0.0,0.0,0.0,0.0,0.0,0.0,0.0,0.0,0.0,0.0,0.0,0.0,0.0,0.0,0.0,0.0,0.0,0.0,0.0,0.0,0.0,0.0,0.0,0.0,0.0,0.0,0.0,0.0,0.0,0.0,0.0,0.0,0.0,0.0,0.0,0.0,0.0,0.0,0.0,0.0,0.0,0.0,0.0,0.0,0.0,0.0,0.0,0.0,0.0,0.0,0.0,0.0,0.0,3.3891,3.469,3.6597,3.6807,3.65,3.5693,3.5275,3.3857,3.0989,2.9292,0.0,0.0,0.0,0.0,0.0,0.0,0.0,0.0,0.0,0.0,0.0,0.0,0.0,0.0,0.0,0.0,0.0,0.0,0.0,0.0,0.0,0.0,0.0,0.0,0.0,0.0,0.0,0.0,0.0,0.0,0.0,0.0,0.0,0.0,0.0,0.0,0.0,0.0,0.0,0.0,0.0,0.0,0.0,0.0,0.0,0.0,0.0,0.0,0.0,0.0,0.0,0.0,0.0,0.0,0.0,0.0,0.0,0.0,0.0,0.0,0.0,0.0,0.0,0.0,0.0,0.0,0.0,0.0,0.0,0.0,0.0,0.0,0.0,0.0,0.0,0.0,0.0,0.0,0.0,0.0,0.0,0.0,0.0,0.0,0.0,0.0,0.0,0.0,0.0,0.0,0.0,0.0,0.0,0.0,0.0,0.0,0.0,0.0,0.0,0.0,0.0,0.0,3.4019,3.5852,3.6704,3.6869,3.6573,3.5766,3.4327,3.235,2.9782,2.7714,0.0,0.0,0.0,0.0,0.0,0.0,0.0,0.0,0.0,0.0,0.0,0.0,0.0,0.0,0.0,0.0,0.0,0.0,0.0,0.0,0.0,0.0,0.0,0.0,0.0,0.0,0.0,0.0,0.0,0.0,0.0,0.0,0.0,0.0,0.0,0.0,0.0,0.0,0.0,0.0,0.0,0.0,0.0,0.0,0.0,0.0,0.0,0.0,0.0,0.0,0.0,0.0,0.0,0.0,0.0,0.0,0.0,0.0,0.0,0.0,0.0,0.0,0.0,0.0,0.0,0.0,0.0,0.0,0.0,0.0,0.0,0.0,0.0,0.0,0.0,0.0,0.0,0.0,0.0,0.0,0.0,0.0,0.0,0.0,0.0,0.0,0.0,0.0,0.0,0.0,0.0,0.0,0.0,0.0,0.0,0.0,0.0,0.0,0.0,0.0,0.0,0.0,3.2631,3.4793,0.0,3.6599,3.6584,3.5773,3.514,3.3351,2.9965,0.0,0.0,0.0,0.0,0.0,0.0,0.0,0.0,0.0,0.0,0.0,0.0,0.0,0.0,0.0,0.0,0.0,0.0,0.0,0.0,0.0,0.0,0.0,0.0,0.0,0.0,0.0,0.0,0.0,0.0,0.0,0.0,0.0,0.0,0.0,0.0,0.0,0.0,0.0,0.0,0.0,0.0,0.0,0.0,0.0,0.0,0.0,0.0,0.0,0.0,0.0,0.0,0.0,0.0,0.0,0.0,0.0,0.0,0.0,0.0,0.0,0.0,0.0,0.0,0.0,0.0,0.0,0.0,0.0,0.0,0.0,0.0,0.0,0.0,0.0,0.0,0.0,0.0,0.0,0.0,0.0,0.0,0.0,0.0,0.0,0.0,0.0,0.0,0.0,0.0,0.0,0.0,0.0,0.0,0.0,0.0,0.0,0.0,0.0,0.0,0.0,0.0,2.9147,3.2207,3.4622,0.0,3.668,3.6875,3.5829,3.5261,3.3368,2.9598,0.0,0.0,0.0,0.0,0.0,0.0,0.0,0.0,0.0,0.0,0.0,0.0,0.0,0.0,0.0,0.0,0.0,0.0,0.0,0.0,0.0,0.0,0.0,0.0,0.0,0.0,0.0,0.0,0.0,0.0,0.0,0.0,0.0,0.0,0.0,0.0,0.0,0.0,0.0,0.0,0.0,0.0,0.0,0.0,0.0,0.0,0.0,0.0,0.0,0.0,0.0,0.0,0.0,0.0,0.0,0.0,0.0,0.0,0.0,0.0,0.0,0.0,0.0,0.0,0.0,0.0,0.0,0.0,0.0,0.0,0.0,0.0,0.0,0.0,0.0,0.0,0.0,0.0,0.0,0.0,0.0,0.0,0.0,0.0,0.0,0.0,0.0,0.0,0.0,0.0,0.0,0.0,0.0,0.0,0.0,0.0,0.0,0.0,0.0,0.0,0.0,0.0,2.9187,3.3105,3.5804,3.5804,3.7232,3.754,3.5931,3.4353,3.1935,0.0,0.0,0.0,0.0,0.0,0.0,0.0,0.0,0.0,0.0,0.0,0.0,0.0,0.0,0.0,0.0,0.0,0.0,0.0,0.0,0.0,0.0,0.0,0.0,0.0,0.0,0.0,0.0,0.0,0.0,0.0,0.0,0.0,0.0,0.0,0.0,0.0,0.0,0.0,0.0,0.0,0.0,0.0,0.0,0.0,0.0,0.0,0.0,0.0,0.0,0.0,0.0,0.0,0.0,0.0,0.0,0.0,0.0,0.0,0.0,0.0,0.0,0.0,0.0,0.0,0.0,0.0,0.0,0.0,0.0,0.0,0.0,0.0,0.0,0.0,0.0,0.0,0.0,0.0,0.0,0.0,0.0,0.0,0.0,0.0,0.0,0.0,0.0,0.0,0.0,0.0,0.0,0.0,0.0,0.0,0.0,0.0,0.0,0.0,0.0,0.0,0.0,0.0,2.8427,3.2748,3.5804,3.5804,3.7232,3.754,3.5931,3.5369,3.3204,2.875,0.0,0.0,0.0,0.0,0.0,0.0,0.0,0.0,0.0,0.0,0.0,0.0,0.0,0.0,0.0,0.0,0.0,0.0,0.0,0.0,0.0,0.0,0.0,0.0,0.0,0.0,0.0,0.0,0.0,0.0,0.0,0.0,0.0,0.0,0.0,0.0,0.0,0.0,0.0,0.0,0.0,0.0,0.0,0.0,0.0,0.0,0.0,0.0,0.0,0.0,0.0,0.0,0.0,0.0,0.0,0.0,0.0,0.0,0.0,0.0,0.0,0.0,0.0,0.0,0.0,0.0,0.0,0.0,0.0,0.0,0.0,0.0,0.0,0.0,0.0,0.0,0.0,0.0,0.0,0.0,0.0,0.0,0.0,0.0,0.0,0.0,0.0,0.0,0.0,0.0,0.0,0.0,0.0,0.0,0.0,0.0,0.0,0.0,0.0,0.0,0.0,0.0,2.8766,3.3181,3.6164,3.5822,3.7232,3.754,3.5931,3.5514,3.3538,2.9337,0.0,0.0,0.0,0.0,0.0,0.0,0.0,0.0,0.0,0.0,0.0,0.0,0.0,0.0,0.0,0.0,0.0,0.0,0.0,0.0,0.0,0.0,0.0,0.0,0.0,0.0,0.0,0.0,0.0,0.0,0.0,0.0,0.0,0.0,0.0,0.0,0.0,0.0,0.0,0.0,0.0,0.0,0.0,0.0,0.0,0.0,0.0,0.0,0.0,0.0,0.0,0.0,0.0,0.0,0.0,0.0,0.0,0.0,0.0,0.0,0.0,0.0,0.0,0.0,0.0,0.0,0.0,0.0,0.0,0.0,0.0,0.0,0.0,0.0,0.0,0.0,0.0,0.0,0.0,0.0,0.0,0.0,0.0,0.0,0.0,0.0,0.0,0.0,0.0,0.0,0.0,0.0,0.0,0.0,0.0,0.0,0.0,0.0,0.0,0.0,0.0,0.0,2.9802,3.3951,3.6598,3.5876,3.7232,3.754,3.5931,3.5116,3.3339,3.011,0.0,0.0,0.0,0.0,0.0,0.0,0.0,0.0,0.0,0.0,0.0,0.0,0.0,0.0,0.0,0.0,0.0,0.0,0.0,0.0,0.0,0.0,0.0,0.0,0.0,0.0,0.0,0.0,0.0,0.0,0.0,0.0,0.0,0.0,0.0,0.0,0.0,0.0,0.0,0.0,0.0,0.0,0.0,0.0,0.0,0.0,0.0,0.0,0.0,0.0,0.0,0.0,0.0,0.0,0.0,0.0,0.0,0.0,0.0,0.0,3.0911,0.0,0.0,0.0,0.0,0.0,0.0,0.0,0.0,0.0,0.0,0.0,0.0,0.0,0.0,0.0,0.0,0.0,0.0,0.0,0.0,0.0,0.0,0.0,0.0,0.0,0.0,0.0,0.0,0.0,0.0,0.0,0.0,0.0,0.0,0.0,0.0,0.0,0.0,0.0,0.0,0.0,2.9802,3.3465,3.6001,3.5822,3.7232,3.754,3.5931,3.5641,3.4172,3.0962,2.9215,0.0,0.0,0.0,0.0,0.0,0.0,0.0,0.0,0.0,0.0,0.0,0.0,0.0,0.0,0.0,0.0,0.0,0.0,0.0,0.0,0.0,0.0,0.0,0.0,0.0,0.0,0.0,0.0,0.0,0.0,0.0,0.0,0.0,0.0,0.0,0.0,0.0,0.0,0.0,0.0,0.0,0.0,0.0,0.0,0.0,0.0,0.0,0.0,0.0,0.0,0.0,0.0,0.0,0.0,0.0,0.0,0.0,0.0,0.0,0.0,3.2728,0.0,0.0,0.0,0.0,0.0,0.0,0.0,0.0,0.0,0.0,0.0,0.0,0.0,0.0,0.0,0.0,0.0,0.0,0.0,0.0,0.0,0.0,0.0,0.0,0.0,0.0,0.0,0.0,0.0,0.0,0.0,0.0,0.0,0.0,0.0,0.0,0.0,0.0,0.0,0.0,3.0382,3.3882,3.6381,3.6381,3.7468,3.772,3.6472,3.6019,3.4754,3.2306,3.064,0.0,0.0,0.0,0.0,0.0,0.0,0.0,0.0,0.0,0.0,0.0,0.0,0.0,0.0,0.0,0.0,0.0,0.0,0.0,0.0,0.0,0.0,0.0,0.0,0.0,0.0,0.0,0.0,0.0,0.0,0.0,0.0,0.0,0.0,0.0,0.0,0.0,0.0,0.0,0.0,0.0,0.0,0.0,0.0,0.0,0.0,0.0,0.0,0.0,0.0,0.0,0.0,0.0,3.8219,3.8531,3.7956,3.8179,3.8469,3.8698,3.6598,3.6329,3.7185,3.4269,0.0,0.0,0.0,0.0,0.0,0.0,0.0,0.0,0.0,0.0,0.0,0.0,0.0,0.0,0.0,0.0,0.0,0.0,0.0,0.0,0.0,0.0,0.0,0.0,3.7232,3.6669,0.0,0.0,0.0,0.0,0.0,0.0,0.0,0.0,0.0,0.0,0.0,0.0,3.1401,3.4694,3.6995,3.6995,3.772,3.7865,3.7067,3.6381,3.5385,3.3918,3.2194,3.0577,0.0,0.0,0.0,0.0,0.0,0.0,0.0,0.0,0.0,0.0,0.0,0.0,0.0,0.0,0.0,0.0,0.0,0.0,0.0,0.0,0.0,0.0,0.0,0.0,0.0,0.0,0.0,0.0,0.0,0.0,0.0,0.0,3.1901,3.2827,0.0,0.0,0.0,0.0,0.0,0.0,0.0,0.0,0.0,0.0,0.0,0.0,0.0,3.8153,3.9338,4.0853,4.1615,4.17,4.2645,4.3037,4.2949,4.2986,4.2675,4.2048,4.1743,0.0,3.7866,3.7405,0.0,0.0,0.0,0.0,0.0,0.0,0.0,0.0,0.0,0.0,0.0,0.0,0.0,0.0,0.0,0.0,0.0,0.0,0.0,0.0,0.0,0.0,4.1922,4.1107,4.0474,3.9731,0.0,3.4914,3.2035,3.2506,3.2216,0.0,0.0,0.0,0.0,0.0,0.0,0.0,3.2995,3.5382,3.6995,3.6995,3.772,3.7865,3.7067,3.6904,3.6435,3.5532,3.3361,3.1729,3.082,2.8719,0.0,0.0,0.0,0.0,0.0,0.0,0.0,0.0,0.0,0.0,0.0,0.0,0.0,0.0,0.0,0.0,0.0,0.0,0.0,0.0,0.0,0.0,0.0,0.0,0.0,0.0,0.0,0.0,0.0,3.1106,3.3186,3.3931,3.4074,3.3929,0.0,0.0,0.0,0.0,0.0,0.0,0.0,0.0,0.0,4.0464,4.065,4.1366,4.2664,4.3355,4.3863,4.4139,4.45,4.47,4.4678,4.44,4.4266,4.416,4.3885,4.3124,4.1922,3.9658,3.8236,3.735,0.0,0.0,0.0,0.0,3.5951,3.6666,3.7613,3.8133,3.8292,3.7769,0.0,0.0,0.0,0.0,0.0,0.0,0.0,0.0,0.0,0.0,4.2359,4.2505,4.2287,4.1923,4.1614,3.9158,3.6466,0.0,3.4924,3.451,3.1107,0.0,0.0,0.0,0.0,3.3176,3.3973,3.5812,3.7223,3.7677,3.8089,3.8176,3.7812,3.7794,3.7449,3.6651,3.5205,3.3818,3.2561,3.0651,2.9223,0.0,0.0,0.0,0.0,0.0,0.0,0.0,0.0,0.0,0.0,0.0,0.0,0.0,0.0,0.0,0.0,0.0,0.0,0.0,0.0,0.0,0.0,0.0,0.0,0.0,0.0,0.0,0.0,3.3141,3.4916,3.5323,3.6241,3.6415,0.0,0.0,0.0,0.0,0.0,0.0,4.0348,4.1249,4.2474,4.4165,4.4105,4.4657,4.5982,4.6022,4.6082,4.6214,4.6214,4.6106,4.5886,4.554,4.5471,4.5578,4.5252,4.5168,4.5052,4.1843,4.0566,4.0442,3.8873,3.8083,3.7867,3.8155,3.8808,3.9659,4.0467,4.1158,4.1542,4.06,4.0039,3.9366,3.737,0.0,0.0,0.0,0.0,3.9509,4.0959,4.1777,4.2396,4.3051,4.3214,4.3142,4.2941,4.2102,4.0388,0.0,3.7344,3.7003,3.3043,0.0,0.0,0.0,0.0,3.4359,3.5157,3.6526,3.7649,3.8267,3.8368,3.8399,3.8399,3.8399,3.8054,3.7252,3.6465,3.5403,3.3998,3.2401,3.1172,3.0343,0.0,0.0,0.0,0.0,0.0,0.0,0.0,0.0,0.0,0.0,0.0,0.0,0.0,0.0,0.0,0.0,0.0,0.0,0.0,0.0,0.0,0.0,0.0,0.0,0.0,0.0,0.0,0.0,0.0,3.7807,3.9222,0.0,0.0,0.0,0.0,3.8985,4.177,4.3696,4.4199,4.5229,4.6678,4.8515,4.8142,4.8541,4.9814,4.9814,4.9452,4.871,4.871,4.8312,4.7591,4.7551,4.7153,4.645,4.6411,4.5977,4.5236,4.4256,4.3423,4.2664,4.1794,4.0998,4.0402,4.1179,4.1505,4.1668,4.2483,4.2284,4.1813,4.2502,4.1778,4.0469,3.966,3.9402,0.0,0.0,4.0589,4.2011,4.285,4.3087,4.3142,4.3196,4.3214,4.2996,4.223,4.2595,4.2576,0.0,3.9349,3.7817,3.606,0.0,3.552,3.4695,3.5301,3.6161,3.6963,3.7817,3.8346,3.8382,3.8399,3.8399,3.8399,3.8399,3.8054,3.7252,3.6492,3.5714,3.4873,3.335,3.2117,3.1254,3.0618,0.0,0.0,0.0,0.0,0.0,0.0,0.0,0.0,0.0,0.0,0.0,0.0,0.0,0.0,0.0,0.0,0.0,0.0,0.0,0.0,0.0,0.0,0.0,0.0,0.0,0.0,0.0,0.0,3.9603,4.145,0.0,4.1082,4.229,4.3231,4.3493,4.5445,4.6837,4.7313,4.8192,4.8978,4.9655,4.9504,4.9649,5.0112,5.0112,4.9967,4.9673,4.9673,4.951,4.922,4.8713,4.8312,4.8025,4.7518,4.712,4.6794,4.5979,4.5164,4.4421,4.4132,4.3534,4.2846,4.3136,4.2918,4.2502,4.2792,4.2701,4.2539,4.2903,4.2705,4.2267,4.2011,4.192,4.192,4.192,4.2321,4.2868,4.3232,4.3323,4.334,4.3393,4.3375,4.3319,4.3026,4.3191,4.3227,4.2641,4.1549,4.0075,3.8018,3.7606,3.7268,3.648,3.6593,3.707,3.7872,3.8248,3.8462,3.8462,3.8528,3.8578,3.8578,3.8117,3.7696,3.7421,3.564,3.472,3.4944,3.345,3.2274,3.1572,3.1422,2.9834,0.0,0.0,0.0,0.0,0.0,0.0,0.0,0.0,0.0,0.0,0.0,0.0,0.0,0.0,0.0,0.0,0.0,0.0,0.0,0.0,0.0,0.0,0.0,0.0,0.0,4.0081,4.2161,4.1744,4.4019,4.5183,4.4041,4.5467,4.6574,4.6898,4.8353,4.9383,4.9687,5.047,5.0904,5.0904,5.0904,5.0904,5.0904,5.0904,5.0782,5.051,5.051,5.0365,5.0093,4.9546,4.9311,4.9275,4.846,4.8094,4.8022,4.7246,4.6595,4.6051,4.5508,4.4965,4.4494,4.4494,4.3987,4.3281,4.3047,4.2975,4.3013,4.316,4.3233,4.3269,4.3286,4.3286,4.3286,4.3286,4.3286,4.3322,4.3411,4.3429,4.3446,4.3497,4.3515,4.3515,4.3515,4.3515,4.3515,4.3515,4.2751,4.1621,4.0111,3.955,3.9136,3.8604,3.8533,3.8608,3.8862,3.8946,3.8868,3.8611,3.8658,3.8707,3.8707,3.797,3.7382,3.7107,3.5275,3.4307,3.4582,3.3316,3.2402,3.2021,3.2199,3.1147,2.8761,0.0,0.0,0.0,0.0,0.0,0.0,0.0,0.0,0.0,0.0,0.0,0.0,0.0,0.0,0.0,0.0,0.0,0.0,0.0,0.0,0.0,0.0,0.0,4.0931,4.3775,4.5552,4.4304,4.7008,4.8201,4.6247,4.7847,4.8999,4.8999,5.047,5.1357,5.1357,5.2136,5.257,5.257,5.257,5.257,5.257,5.2552,5.2136,5.1357,5.1339,5.0923,5.0184,5.0166,5.0148,5.0093,4.9293,4.8927,4.8873,4.8079,4.7732,4.7591,4.5997,4.5363,4.5345,4.5345,4.482,4.4042,4.3376,4.3178,4.3269,4.3376,4.3412,4.3429,4.348,4.3515,4.3515,4.3515,4.3515,4.3515,4.3515,4.3515,4.3515,4.3515,4.3515,4.3515,4.3515,4.3515,4.3515,4.3515,4.2873,4.2341,4.2341,4.168,4.1132,4.1132,4.1113,0.0,4.0029,3.9937,3.9625,3.8817,3.8744,3.8726,3.8707,3.797,3.7162,3.634,3.5463,3.4619,3.3875,3.3086,3.2682,3.28,3.3194,3.3658,3.4167,0.0,0.0,0.0,0.0,0.0,0.0,0.0,0.0,0.0,0.0,0.0,0.0,0.0,0.0,0.0,0.0,0.0,0.0,0.0,0.0,0.0,4.3376,4.4983,4.3808,4.6293,4.8048,4.7615,4.9378,5.0407,4.9866,5.0859,5.152,5.152,5.2462,5.3041,5.3041,5.3802,5.4237,5.4237,5.4237,5.4237,5.4237,5.3657,5.3259,5.3023,5.2444,5.2045,5.181,5.123,5.0981,5.0945,5.0108,4.9764,4.9709,4.8912,4.8565,4.8456,4.7446,4.6685,4.6178,4.6178,4.5711,4.5011,4.4288,4.4108,4.4126,4.3577,4.3429,4.348,4.3479,4.3515,4.3515,4.3515,4.3515,4.3515,4.3515,4.3515,4.3515,4.3515,4.3515,4.3515,4.3515,4.3515,4.3515,4.3515,4.3331,4.3167,4.3167,4.2506,4.1974,4.1974,4.1462,0.0,4.0799,4.0781,4.0469,3.9662,3.957,3.9331,3.8762,3.797,3.7162,3.634,3.4926,3.4378,3.4932,3.4179,3.4794,3.6986,3.6102,3.6279,0.0,0.0,0.0,0.0,0.0,0.0,0.0,0.0,0.0,0.0,0.0,0.0,0.0,0.0,0.0,0.0,0.0,0.0,0.0,0.0,0.0,0.0,4.6321,4.8125,4.7774,4.9135,5.0107,5.0014,5.108,5.1969,5.2263,5.2733,5.3132,5.3476,5.3947,5.42,5.42,5.4653,5.4907,5.4907,5.4907,5.4907,5.4907,5.4454,5.4037,5.3693,5.3222,5.2824,5.248,5.2009,5.1792,5.1756,5.0941,5.0641,5.0631,4.9811,4.9488,0.0,0.0,0.0,0.0,0.0,4.6415,4.6003,4.5259,4.4839,4.4564,4.4088,4.3738,4.3515,4.3515,4.3515,4.3515,4.3515,4.3515,4.3515,4.3515,4.3515,4.3515,4.3515,4.3515,4.3515,4.3515,4.3515,4.3515,4.3515,4.3515,0.0,4.3515,4.3112,4.28,4.28,4.2396,4.1992,4.1662,4.159,4.1295,4.0487,4.0396,4.0212,3.9753,3.8755,0.0,0.0,0.0,3.5436,3.6091,3.6014,0.0,0.0,0.0,0.0,0.0,0.0,0.0,0.0,3.882,3.9298,0.0,0.0,0.0,0.0,0.0,0.0,0.0,0.0,0.0,0.0,0.0,0.0,0.0,0.0,0.0,0.0,4.8952,5.144,5.2123,5.213,5.1985,5.1795,5.2431,5.3149,5.3771,5.3862,5.4128,5.4852,5.4979,5.5033,5.5033,0.0,0.0,0.0,0.0,5.516,5.516,5.507,5.4671,5.3965,5.3874,5.3403,5.2643,5.2648,5.2594,5.2467,5.1783,5.1542,5.1595,5.0777,5.0444,5.0256,4.8673,4.7975,4.7832,4.7186,4.7029,4.7016,4.623,0.0,0.0,4.4856,4.4287,4.3626,4.3626,4.357,4.3515,4.3515,4.3515,4.3515,4.3515,4.3515,4.3515,4.3515,4.3515,4.3515,4.3515,4.3515,4.3515,4.3515,4.3515,4.3515,4.3515,4.3515,4.3515,4.3515,4.3515,4.3239,4.2525,4.2433,4.2139,4.1315,0.0,0.0,4.1113,4.0045,3.9324,3.9231,3.8122,3.7514,3.7563,3.8524,3.9485,4.0427,4.0541,4.1412,4.308,4.3796,4.3777,4.3023,4.0769,4.0864,0.0,0.0,0.0,0.0,0.0,0.0,0.0,0.0,0.0,0.0,0.0,0.0,0.0,0.0,0.0,5.0316,5.2394,5.3977,5.4763,5.4833,5.4507,5.3626,5.4223,5.4701,5.4766,5.4742,5.4785,5.4888,5.545,5.5776,5.5776,5.6391,5.6754,5.6754,5.6754,5.6754,5.6754,5.6102,5.5703,5.554,0.0,0.0,5.3458,5.3515,5.3203,5.2586,5.253,5.252,5.2488,5.1668,5.1043,5.0451,4.938,4.8534,4.7972,4.7945,4.7948,4.7859,4.7112,4.6745,4.6526,4.5883,4.5131,4.447,4.447,4.4011,0.0,4.3515,4.3515,4.3515,4.3515,4.3515,4.3515,4.3515,4.3515,4.3515,4.3515,4.3515,4.3515,4.3515,4.3515,4.3515,4.3515,4.3515,4.3515,4.3515,4.3515,4.3441,4.3277,4.3276,4.2947,4.2158,4.2066,4.1809,4.115,4.1058,4.0764,4.0114,4.027,4.0385,4.0404,4.2028,4.3018,4.3221,4.3918,4.4454,4.4819,4.4972,4.4972,4.48,4.4303,4.3978,0.0,0.0,0.0,0.0,0.0,0.0,0.0,0.0,0.0,0.0,0.0,4.5681,4.6911,0.0,5.1298,5.2931,5.4197,5.5133,5.5559,5.5941,5.5819,5.4816,5.5049,5.5405,5.5671,5.5702,5.5842,5.6207,5.6588,5.6764,5.669,5.7163,5.7381,5.7289,5.7381,5.7388,5.7388,5.6988,5.6588,5.6212,5.5825,5.5225,5.4444,5.4496,5.4064,5.3303,5.3367,5.3192,5.2875,5.2538,5.198,5.1252,5.0769,4.9872,4.8756,4.8393,4.8247,4.8192,4.7828,4.7443,4.7021,4.6636,4.5975,4.5241,4.4837,4.4415,4.4011,4.3608,4.3515,4.3515,4.3515,4.3515,4.3515,4.3515,4.3515,4.3515,4.3515,4.3515,4.3515,4.3515,4.3515,4.3515,4.3515,4.3515,4.3515,4.3515,4.3515,4.3515,4.3515,4.3515,4.3349,4.2928,4.2892,4.2811,4.2569,4.2557,4.2265,4.1592,4.2207,4.2603,4.2603,4.3908,4.4647,4.4647,4.5067,4.5307,4.5307,4.5307,4.5307,4.5307,4.5698,4.5449,0.0,0.0,0.0,0.0,0.0,0.0,0.0,4.2782,4.3993,4.4965,4.7462,4.9701,5.04,5.238,5.4124,5.4766,5.5537,5.6073,5.6073,5.662,5.6685,5.577,5.5825,5.6109,5.6632,5.6664,5.6937,5.7546,5.7601,5.7553,5.7437,5.7553,5.7553,5.7437,5.7534,5.7601,5.7601,5.7601,5.7255,5.664,5.664,5.6197,5.5431,5.5454,5.504,5.4255,5.4131,5.3687,5.306,5.3164,5.2821,5.2215,5.205,5.1226,4.9941,4.893,4.8453,4.8306,4.8306,4.7865,4.7333,4.7333,4.6782,4.6012,4.5351,4.4948,4.4562,4.392,4.3608,4.3515,4.3515,4.3515,4.3515,4.3515,4.3515,4.3515,4.3515,4.3515,4.3515,4.3515,4.3515,4.3513,4.3582,4.3599,4.3565,4.3515,4.3515,4.3515,4.3515,4.3515,4.3513,4.3582,4.3599,4.3747,4.4121,4.3962,4.3692,4.3319,4.3902,4.4255,4.4255,4.4934,4.5307,4.5307,4.5307,4.5307,4.5307,4.5307,4.5307,4.5326,4.6137,4.6156,3.8704,3.929,4.0173,4.2396,4.3037,4.4065,0.0,4.8656,4.9225,5.0729,5.2472,5.3757,5.3849,5.5262,5.6436,5.6528,5.7207,5.7721,5.7721,5.7813,5.7574,5.6744,5.7276,5.7689,5.7645,5.764,5.7629,5.7607,5.7601,5.7601,5.7577,5.7601,5.7601,5.7577,5.7601,5.7601,5.7601,5.7601,5.7546,5.7455,5.7455,5.7036,5.6275,5.6387,5.6013,5.5212,5.4606,5.3897,5.3185,5.3185,5.3148,5.3004,5.227,5.1885,5.1557,5.0033,4.8948,4.8306,4.8306,4.8251,4.8177,4.8177,4.7608,4.6947,4.6856,4.5828,4.4673,4.4599,4.4048,4.3515,4.3515,4.3515,4.3515,4.3515,4.3515,4.3515,4.3515,4.3515,4.3515,4.3515,4.3515,4.3582,4.3894,4.3942,4.3846,4.3531,4.3515,4.3515,4.3515,4.3515,4.3615,4.391,4.3942,4.4147,4.4663,4.4688,4.4775,4.5,4.5086,4.5144,4.5144,4.525,4.5307,4.5307,4.5307,4.5307,4.5307,4.5307,4.5307,4.5326,4.6137,4.6462,4.1805,4.2917,4.3754,4.5241,4.6324,4.7499,4.9206,5.0326,5.1316,5.2454,5.4363,5.5794,5.5794,5.673,5.7501,5.7501,5.7776,5.7997,5.7997,5.7593,5.7189,5.684,5.7097,5.7276,5.7231,5.7652,5.7886,5.7857,5.7815,5.7792,5.7721,5.7792,5.7792,5.7721,5.7792,5.7815,5.7815,5.7815,5.7815,5.7815,5.7815,5.7674,5.7344,5.7391,5.6992,5.6149,5.4928,5.4216,5.3867,5.339,5.3185,5.3167,5.2839,5.2417,5.1793,5.0198,4.9372,4.8967,4.8489,4.8306,4.8306,4.8306,4.8086,4.77,4.7241,4.6636,4.5902,4.4948,4.447,4.4085,4.3608,4.3515,4.3515,4.3515,4.3515,4.3548,4.3749,4.3798,4.3844,4.3977,4.4023,4.4069,4.4206,4.4236,4.4192,4.4038,4.4023,4.4023,4.4023,4.4023,4.4069,4.4221,4.4374,4.4565,4.4776,4.4969,4.5162,4.5297,4.5307,4.5307,4.5307,4.5307,4.5307,4.5307,4.5307,4.5307,4.5307,4.5307,4.5545,4.6023,4.6863,4.7532,4.4085,4.5296,4.6195,4.748,4.8875,4.9996,5.0216,5.1499,5.2821,5.3408,5.5097,5.6473,5.6473,5.7134,5.7666,5.7666,5.785,5.7997,5.7997,5.7317,5.6804,5.6804,5.6804,5.6804,5.6804,5.7538,5.7997,5.7997,5.7997,5.795,5.7862,5.795,5.795,5.7862,5.795,5.7997,5.7997,5.7997,5.7997,5.7997,5.7997,5.7997,5.7997,5.7997,5.7556,5.6748,5.5574,5.4803,5.4344,5.3775,5.3387,5.3185,5.3185,5.2839,5.216,5.0785,5.0124,4.9793,4.8948,4.8655,4.8618,4.8379,4.8306,4.8196,4.7608,4.7278,4.6874,4.5807,4.5345,4.4994,4.4282,4.4112,4.4056,4.38,4.3744,4.3809,4.406,4.4106,4.4181,4.4374,4.4397,4.4411,4.4493,4.4506,4.4533,4.463,4.4643,4.4591,4.4411,4.4465,4.4506,4.4506,4.477,4.4946,4.4946,4.5162,4.5307,4.5307,4.5307,4.5307,4.5307,4.5307,4.5307,4.5307,4.5317,4.5317,4.5307,4.5547,4.5948,4.656,4.7649,4.8501,4.4654,4.5296,4.6471,4.8931,5.0141,5.0967,5.1738,5.317,5.4326,5.4363,5.5042,5.5629,5.5629,5.629,5.684,5.684,5.7483,5.7997,5.7997,5.7317,5.6804,5.6804,5.6804,5.6804,5.6804,5.7538,5.7997,5.7997,5.7997,5.7997,5.7997,5.7997,5.7997,5.7997,5.7997,5.7997,5.7997,5.7997,5.7997,5.7997,5.7997,5.7997,5.7997,5.7997,5.7556,5.6804,5.6767,5.5849,5.4399,5.4363,5.3904,5.3185,5.3185,5.3206,5.3078,5.2234,5.1426,5.0655,4.9849,4.9555,4.9427,4.8563,4.8306,4.8306,4.8269,4.7718,4.7169,4.7432,4.694,4.6241,4.5761,4.5622,4.5416,4.4576,4.4369,4.4388,4.4388,4.4402,4.4402,4.4402,4.4397,4.4479,4.4739,4.4776,4.491,4.5224,4.5267,4.5065,4.4484,4.4624,4.4776,4.4776,4.5087,4.5277,4.5277,4.5297,4.5307,4.5307,4.5307,4.5307,4.5307,4.5307,4.5307,4.5307,4.5359,4.5359,4.5307,4.6152,4.6574,4.6632,4.8288,4.9105,4.6636,4.8104,4.9481,5.0839,5.1793,5.2472,5.2729,5.3628,5.4252,5.372,5.4234,5.4638,5.4106,5.4675,5.5372,5.5923,5.6675,5.7391,5.7923,5.7317,5.6804,5.6804,5.6804,5.6804,5.6804,5.7042,5.7428,5.796,5.7519,5.7446,5.796,5.7997,5.7997,5.7997,5.7997,5.7997,5.7997,5.7997,5.7997,5.7997,5.7997,5.7997,5.7997,5.7997,5.785,5.7574,5.7042,5.6492,5.5923,5.484,5.4234,5.394,5.3427,5.3336,5.3487,5.3229,5.3125,5.2865,5.1019,5.0152,4.9825,4.9529,4.9226,4.8965,4.8965,4.8779,4.8476,4.8047,4.7738,4.7376,4.6674,4.6496,4.6289,4.5463,4.5261,4.5148,4.4757,4.4663,4.4733,4.4953,4.5007,4.503,4.5109,4.5121,4.5173,4.5267,4.5307,4.5224,4.5011,4.5076,4.5121,4.5121,4.5235,4.5307,4.5307,4.5307,4.5307,4.5307,4.5307,4.5307,4.5307,4.5307,4.5317,4.5378,4.5905,4.6212,4.6232,4.7095,4.7795,4.8332,4.8907,4.9493,4.8526,4.9976,5.1059,5.216,5.2821,5.3185,5.3185,5.339,5.3316,5.2509,5.2527,5.2417,5.161,5.2123,5.3133,5.4509,5.5427,5.6418,5.7813,5.7317,5.6914,5.7189,5.6987,5.6914,5.7207,5.6969,5.7134,5.7941,5.7519,5.7446,5.796,5.7997,5.7997,5.7997,5.7997,5.7997,5.7997,5.7997,5.7997,5.7997,5.7997,5.7997,5.7997,5.7997,5.7997,5.7983,5.7608,5.7269,5.694,5.606,5.5325,5.4731,5.4212,5.3979,5.3907,5.3907,5.4088,5.404,5.2234,5.1193,5.0606,5.0308,4.9802,4.9299,4.9299,4.9299,4.922,4.8813,4.8706,4.8565,4.7864,4.7683,4.7475,4.6649,4.6214,4.5874,4.5485,4.5178,4.5045,4.5256,4.5307,4.5307,4.5307,4.5317,4.5328,4.5328,4.5348,4.5329,4.5307,4.5307,4.5307,4.5307,4.5307,4.5307,4.5328,4.5328,4.5338,4.5339,4.5339,4.5339,4.5339,4.5339,4.536,4.539,4.6233,4.6684,4.6704,4.7894,4.8729,4.9238,4.9564,5.0005,5.016,5.0857,5.1298,5.2818,5.3185,5.3185,5.3148,5.2527,5.1701,5.0857,5.0031,4.9225,4.8343,4.8948,5.0381,5.2747,5.3885,5.528,5.7666,5.7336,5.7171,5.796,5.7354,5.7189,5.7978,5.7336,5.7189,5.7941,0.0,5.796,5.7997,5.7997,5.7997,5.7997,5.7997,5.7997,5.7997,5.7997,5.7997,5.7997,5.7997,5.7997,5.7997,5.802,5.8042,5.8047,5.8458,5.82,5.7516,5.7866,5.7054,5.5626,5.5532,5.5063,5.4388,5.4332,5.4349,5.4253,5.3478,5.2637,5.1759,5.1002,5.0153,4.942,4.942,4.9382,4.9424,4.973,4.983,4.9726,4.927,4.9167,4.8926,4.8067,4.7226,4.6615,4.6577,4.5927,4.5364,4.5364,4.5326,4.5307,4.5307,4.5359,4.5408,4.5408,4.539,4.539,4.5309,4.5307,4.5307,4.5307,4.5307,4.5328,4.5389,4.5408,4.539,4.54,4.54,4.54,4.54,4.54,4.5429,4.5467,4.6388,4.6849,4.6838,4.8538,4.9374,4.9384,5.0219,5.0633,5.0637,5.1683,5.2692,5.3093,5.3185,5.3041,5.2435,5.1683,5.0692,4.9242,4.8306,4.7498,4.6654,4.8196,5.0198,5.2013,5.3977,5.5923,5.774,5.7813,5.7997,5.8804,5.818,5.8015,5.8822,5.818,5.7776,5.7978,5.7446,5.7373,5.796,5.7997,5.7997,5.7997,5.7997,5.7997,5.7997,5.7997,5.7997,5.7997,5.7997,5.7997,5.802,5.8304,5.8437,5.8458,5.8871,5.8934,5.869,5.8202,5.7749,5.7242,5.6002,5.5553,5.5571,5.4912,5.4874,5.508,5.4884,5.4064,5.3101,5.2908,5.2006,5.1021,5.1021,5.0564,5.0063,5.0144,5.0169,5.0142,5.0042,4.9996,4.9786,4.8965,4.8602,4.8258,4.7597,4.6806,4.6205,4.6266,4.5772,4.5361,4.5361,4.54,4.54,4.54,4.54,4.539,4.539,4.5361,4.5361,4.5361,4.5361,4.5371,4.54,4.54,4.539,4.54,4.54,4.54,4.54,4.54,4.5726,4.6436,4.7309,4.8078,4.8702,4.9817,5.0336,5.0346,5.0567,5.0673,5.1665,5.2527,5.3185,5.3185,5.2931,5.2454,5.1665,5.0563,4.9242,4.759,4.6617,4.5792,4.5002,4.6269,4.8214,5.0583,5.2695,5.4821,5.7152,5.8088,5.8694,5.9148,5.9116,5.9226,5.9661,5.9006,5.8529,5.8529,5.7776,5.7519,5.7978,5.7997,5.7997,5.7997,5.7997,5.7997,5.7997,5.7997,5.7997,5.7997,5.7997,5.8092,5.8279,5.85,5.871,5.889,0.0,5.9467,5.9447,5.9164,5.8846,5.8423,5.7475,5.6833,5.63,5.5429,5.5026,5.4905,5.4905,5.4473,5.391,5.3843,5.306,5.2059,5.1716,5.1257,5.0799,5.0417,5.0302,5.0302,5.0302,5.0314,5.0222,4.9794,4.9395,4.9015,4.8526,4.7741,4.7178,4.7209,4.6856,4.6541,4.6541,4.6244,4.6148,4.6532,4.5956,4.5764,4.6484,4.5889,4.54,4.54,4.54,4.541,4.5438,4.5438,4.5467,4.5495,4.585,4.6061,4.6061,4.6388,4.6829,4.7367,4.8241,4.8904,4.9394,5.0269,5.0712,5.0712,5.0712,5.0894,5.2863,5.3248,5.3248,5.3248,5.2624,5.1797,5.0859,4.9353,4.7719,4.6085,4.5112,4.4323,4.3643,4.4232,4.5938,4.9244,5.1136,5.3322,5.6573,5.8318,5.9286,5.9402,6.0026,6.0504,6.0596,5.9879,5.9383,5.925,5.8612,5.8153,5.7997,5.7997,5.7997,5.7997,5.7997,5.7997,5.7997,5.7997,5.7997,5.7997,5.7997,5.8231,5.8628,5.8671,5.893,5.9324,5.9723,5.9906,5.9937,6.028,6.0018,5.9377,5.9262,5.8291,5.6846,5.5868,5.4986,5.4304,5.4304,5.4304,5.4311,5.4287,5.3696,5.2855,5.2155,5.178,5.1448,5.0696,5.0409,5.0314,5.0325,5.0359,5.0412,5.0412,4.9874,4.9379,4.9379,4.8746,4.8133,4.8028,4.8009,4.8019,4.8019,4.7434,4.7233,4.7982,4.6847,4.6451,4.7913,4.6532,4.5467,4.5601,4.5506,4.5505,4.5677,4.5686,4.5762,4.5913,4.6644,4.7058,4.7058,4.774,4.8144,4.8279,4.9009,4.9452,4.9567,5.0327,5.0712,5.0712,5.0712,5.1125,5.3365,5.3439,5.3439,5.3439,5.283,5.1833,5.0262,4.8641,0.0,4.5259,4.4268,4.3663,4.3533,4.469,4.6801,5.0131,5.2085,5.4315,5.7644,5.8936,5.9766,6.043,6.0656,6.1006,6.1671,6.1006,0.0,0.0,5.9397,5.8942,5.8056,5.7997,5.7997,5.7997,5.7997,5.7997,5.7997,5.7997,5.7997,5.7997,5.7997,5.8238,5.8674,5.9046,5.9427,5.9877,6.0284,0.0,6.048,6.0552,6.0482,6.0303,5.9556,5.8712,5.767,5.6098,5.4986,5.4304,5.4304,5.4304,5.4388,5.4968,5.463,5.391,5.3734,5.2709,5.1594,5.148,5.0937,5.0401,5.0457,5.0478,5.0489,5.0489,5.0385,5.027,5.027,4.963,4.8874,4.8212,4.8068,4.8077,4.8077,4.7971,4.7933,4.8068,4.7846,4.7778,4.8067,4.6615,4.5837,4.6559,4.601,4.5856,4.6587,4.6664,4.6962,4.7625,4.7817,4.7894,4.7894,4.8029,4.8432,4.9163,4.9317,4.974,5.0481,5.0635,5.0712,5.0712,5.0712,5.1125,5.3388,5.3499,5.3499,5.3499,5.2243,5.0673,4.9417,0.0,0.0,4.4411,4.3876,4.3617,4.3548,4.4575,4.61,4.8126,4.9841,5.2055,5.5381,5.7267,5.8929,6.0591,6.1532,6.2197,6.2585,6.1883,6.1071,6.0277,5.9833,5.9179,5.8275,5.8197,5.8197,5.8197,5.8197,5.8197,5.8197,5.8388,5.8476,5.8458,5.8632,5.8951,5.9373,5.958,5.9893,6.0307,6.052,6.0604,6.0604,6.0604,6.0629,6.0597,6.0187,5.9547,5.8611,5.6913,5.5761,5.4905,5.404,5.4021,5.4452,5.4779,5.4886,5.4786,5.4341,5.364,5.2836,5.1989,5.1445,5.1023,5.0615,5.0521,5.0542,5.0542,5.0593,5.0594,5.0594,5.0307,4.9913,4.9538,4.9462,4.9452,4.9452,4.9086,4.8933,4.9375,4.8682,4.8432,4.9336,4.7952,4.7067,4.749,4.7144,4.7067,4.749,4.7528,4.7702,4.8086,4.8529,4.8779,4.8779,4.9202,4.9644,5.0067,5.0067,5.0289,5.0712,5.0712,5.0712,5.0712,5.1125,5.1779,5.3357,5.3561,5.3561,5.3561,5.1692,4.9658,4.8827,4.6757,4.4764,4.3833,4.3719,4.3771,4.3667,4.4252,4.5134,4.6297,4.7718,4.9861,5.3318,5.5907,5.8292,6.0626,6.2304,6.3284,6.3284,6.2692,0.0,6.0958,5.9978,5.9124,5.843,5.8393,5.8393,5.8393,5.8393,5.8393,5.8393,5.8727,5.8891,5.8891,5.925,5.9611,6.0015,6.0015,6.0246,6.0642,6.0642,6.0642,6.0642,6.0642,6.066,6.071,6.071,6.0227,5.9319,5.7819,5.6607,5.5511,5.4184,5.4068,5.4519,5.463,5.5055,5.5401,5.4749,5.4442,5.402,5.2708,5.2086,5.1645,5.0973,5.0708,5.0623,5.0623,5.0653,5.0712,5.0712,5.0712,5.0712,5.0712,5.0712,5.0712,5.0712,5.0125,4.9913,5.0596,4.9529,4.9144,5.0519,4.949,4.8663,4.8663,4.8317,4.8182,4.8355,4.8375,4.8471,4.8644,4.9298,4.9683,4.9683,5.0346,5.0712,5.0712,5.0712,5.0712,5.0712,5.0712,5.0789,5.0971,5.1606,5.2462,5.3552,5.3756,5.3756,5.3756,5.19,4.984,4.899,0.0,4.4829,4.3952,4.3788,4.3788,4.3788,4.3843,4.4689,4.7084,4.8213,5.0213,5.4294,5.6986,5.9194,6.0958,6.2573,6.3557,6.3557,6.3501,6.2814,6.1273,5.9677,5.8664,5.8415,5.8393,5.8393,5.8393,5.8393,5.8393,5.8393,5.8727,5.8891,5.8891,5.925,5.9644,6.0103,6.0103,6.0338,6.0788,6.0788,6.0788,0.0,6.0788,6.0788,6.08,6.08,6.0262,5.9396,5.8511,5.7126,5.5684,5.5511,5.503,5.4626,5.5357,5.5583,5.5573,5.542,5.4871,5.4281,5.4191,5.3012,5.1794,5.1788,5.1231,5.0683,5.0683,5.0702,5.0712,5.0712,5.0712,5.0712,5.0712,5.0712,5.0712,5.0712,5.0635,5.0616,5.0693,5.0558,5.0519,5.0673,5.0558,5.0462,5.0462,4.9048,4.8413,4.9202,4.9279,4.9625,5.0423,5.0539,5.0577,5.0577,5.0654,5.0712,5.0712,5.0712,5.0712,5.0712,5.0712,5.1087,5.1788,5.1865,5.2799,5.2717,5.3441,5.3813,5.3813,5.1565,4.9281,4.8931,4.6574,4.4334,4.3939,4.3881,4.3897,4.3867,4.3881,4.4244,4.5275,4.5702,4.7185,5.0804,5.3051,5.5652,5.9274,6.115,6.2543,6.3527,6.3602,6.2933,6.1317,6.0302,5.9527,5.8906,5.8888,5.8888,5.8888,5.9102,5.9234,5.9234,5.9587,5.9734,5.975,6.0074,6.0338,6.0508,6.0508,6.0622,6.08,6.08,6.08,0.0,6.08,6.08,6.08,6.08,6.0589,6.0185,5.9338,5.828,5.7107,5.6049,5.5491,5.5203,5.503,5.5288,5.5671,5.5618,5.5407,5.5053,5.4583,5.396,5.3191,5.2173,5.1298,5.0712,5.0712,5.0712,5.0712,5.0712,5.0712,5.0712,5.0712,5.0712,5.0712,5.0712,5.0712,5.0712,5.0712,5.0712,5.0712,5.0712,5.0712,5.0712,5.0712,5.0067,4.9798,5.0144,5.0183,5.0327,5.0673,5.0712,5.0712,5.0712,5.0712,5.0933,5.1414,5.1414,5.1683,5.2202,5.2202,5.2375,5.2702,5.3222,5.3837,5.1435,5.2475,5.3088,5.3088,5.0803,4.8556,4.8556,4.6197,4.3989,4.3945,4.3958,4.3989,4.3945,4.3958,4.4005,4.4005,4.4413,4.5807,4.8853,5.0915,5.3664,5.7862,5.9608,6.1137,6.287,6.3147,6.2612,6.1229,6.0604,6.0038,5.9398,5.9466,5.9484,5.9379,5.9639,5.9791,5.9791,6.0131,6.0293,6.0307,6.0641,6.08,6.08,6.08,6.08,6.08,6.08,6.08,0.0,6.08,6.08,6.08,6.08,6.08,6.0723,6.0108,5.9358,5.8454,5.6973,5.6299,5.5953,5.5126,5.5241,5.5703,5.5703,5.5703,5.5568,5.5011,5.4684,5.4107,5.2346,5.1491,5.0991,5.077,5.0712,5.0712,5.0712,5.0712,5.0712,5.0712,5.0712,5.0712,5.0712,5.0712,5.0712,5.0712,5.0712,5.0712,5.0712,5.0712,5.0712,5.0712,5.0712,5.0712,5.0712,5.0712,5.0712,5.0712,5.0712,5.0808,5.1048,5.1048,5.1433,5.2269,5.2269,5.2577,5.3203,5.3203,5.3337,5.3606,5.4203,5.4626,4.9763,5.0803,5.1416,5.1416,4.9559,4.7701,4.7701,4.5788,4.4005,4.4005,4.4005,4.4005,4.4005,4.4005,4.4005,4.4005,4.5398,4.733,4.9837,5.2271,5.4704,5.7212,5.8234,5.9516,6.1524,6.2009,6.1877,6.1065,6.0267,0.0,5.9791,6.0102,6.015,5.9791,5.9791,5.9791,5.9791,6.0131,6.0293,6.0307,6.0641,6.08,6.08,6.08,6.08,6.08,6.08,6.08,0.0,6.08,6.08,6.08,6.08,6.08,6.08,6.0781,6.0242,5.9377,5.8569,5.7703,5.6849,5.5972,5.5684,5.5703,5.5703,5.5703,5.5703,5.5684,5.5107,5.4107,5.2346,5.1885,5.1692,5.0894,5.0712,5.0712,5.0712,5.0712,5.0712,5.0712,5.0712,5.0712,5.0712,5.0712,5.0712,5.0712,5.0712,5.0712,5.0712,5.0712,5.0712,5.0712,5.0712,5.0712,5.0712,5.0712,5.0712,5.0712,5.0712,5.1048,5.1846,5.1885,5.2288,5.3164,5.3203,5.3203,5.3203,5.3203,5.3645,5.4491,5.4491,5.4934,4.8054,4.9076,4.9689,4.9689,4.8277,4.6884,4.6884,4.5398,4.4005,4.4005,4.4005,4.4005,4.4005,4.4005,4.4562,4.6252,4.6977,0.0,5.0673,5.2823,5.5076,5.7604,6.0322,6.1994,6.2046,6.2132,6.186,6.1063,6.0969,6.0726,6.0169,6.0449,6.0494,6.0146,6.0349,6.0475,6.0475,6.0585,6.0641,6.0641,6.0746,6.08,6.08,6.08,6.08,6.08,6.08,6.08,6.08,6.08,6.08,6.08,6.08,6.08,6.08,6.08,6.0242,5.9454,5.9204,5.8184,5.6945,5.6676,5.6195,5.5703,5.5703,5.5703,5.5703,5.5703,5.5126,5.4376,5.3818,5.3241,5.2568,5.1722,5.1529,5.1375,5.0827,5.0712,5.0712,5.0712,5.0712,5.0712,5.0712,5.0712,5.0712,5.0712,5.0712,5.0712,5.0712,5.0712,5.0712,5.0712,5.0712,5.0712,5.0712,5.0712,5.0712,5.0712,5.1221,5.1635,5.1885,5.2462,5.3203,5.4068,5.4087,5.4357,5.4914,5.4914,5.5049,5.5318,5.5318,5.5517,4.6345,4.7386,4.7999,4.7999,4.7014,4.6048,4.6048,4.4989,4.4005,4.4005,4.4005,4.4005,4.4005,4.4005,4.4646,4.6616,4.7115,4.8304,5.1314,5.2965,5.4829,5.7469,6.047,6.1958,6.1106,6.1728,6.1823,6.0985,6.1119,6.1017,6.0514,6.0697,6.069,6.0507,6.0678,6.08,6.08,6.08,6.08,6.08,6.08,6.08,6.08,6.08,6.08,6.08,6.08,6.08,0.0,6.08,6.08,6.08,6.08,6.08,6.08,6.08,6.0454,5.9935,5.9608,5.8819,5.7838,5.7214,5.6406,5.5703,5.5703,5.5703,5.5703,5.5703,5.5338,5.4876,5.4587,5.4107,5.3472,5.2596,5.2135,5.1846,5.1683,5.1154,5.0789,5.1087,5.0914,5.0712,5.0712,5.0712,5.0712,5.0712,5.0712,5.0712,5.0712,5.0712,5.0712,5.0712,5.0712,5.0827,5.1125,5.0856,5.0827,5.1125,5.1625,5.2192,5.2856,5.3395,5.4087,5.4934,5.4953,5.5203,5.5703,5.5703,5.5703,5.5714,5.5748,5.5817,0.0,4.5751,4.6308,4.6308,4.5751,4.5212,4.5212,4.4581,0.0,4.4005,4.4005,4.4042,4.4153,4.415,4.4553,4.5913,4.6561,4.8196,5.1959,5.3078,5.4522,5.7233,5.924,6.0114,5.9311,6.091,6.1678,6.0858,6.08,6.08,6.08,6.08,6.08,6.08,6.08,6.08,6.08,6.08,6.08,6.08,6.08,6.08,6.08,6.08,6.08,0.0,6.08,6.08,6.08,6.08,6.08,6.08,6.08,6.08,6.08,6.08,6.08,6.0685,5.9877,5.955,5.9223,5.7541,5.6406,5.5703,5.5703,5.5703,5.5703,5.5703,5.5703,5.553,5.478,5.4587,5.4376,5.351,5.2673,5.2288,5.3049,5.1933,5.101,5.175,5.1241,5.0712,5.0712,5.075,5.0789,5.0789,5.0846,5.0866,5.0789,5.0789,5.0789,5.0789,5.0789,5.1106,5.1923,5.1241,5.1125,5.1942,5.2038,5.2818,5.4434,5.4549,5.4934,5.5684,5.5703,5.5703,5.5703,5.5705,5.5716,5.5716,5.5844,5.5913,4.4191,0.0,4.4599,4.4599,4.4451,4.4302,0.0,4.4153,4.4005,4.4005,4.4005,4.4395,4.5677,4.5581,4.6413,4.9815,5.0696,5.1691,5.3815,5.6197,5.8252,5.9799,6.098,6.1344,6.0467,6.0834,6.1012,6.0819,6.08,6.08,6.08,6.08,6.08,6.08,6.08,6.08,6.08,6.08,6.08,6.08,6.08,6.08,6.08,6.08,6.08,6.08,6.08,6.08,6.08,6.08,6.08,6.08,6.08,6.08,6.08,6.08,6.08,6.0762,6.0569,6.0069,5.9223,5.755,5.6415,5.5703,5.5703,5.5703,5.5703,5.5703,5.5703,5.5665,5.5472,5.5415,5.5203,5.4395,5.4049,5.376,5.3299,5.2375,5.1673,5.1865,5.1241,5.0712,5.0712,5.1202,5.1625,5.1625,5.2183,5.2375,5.1702,5.1625,5.1625,5.1625,5.1625,5.1972,5.2818,5.2106,5.1991,5.2837,5.353,5.4068,5.4472,5.5088,5.5511,5.5703,5.5703,5.5703,5.5703,5.5789,5.5844,5.5873,5.599,5.6104,4.4151,4.4771,4.5383,4.5383,4.5465,4.5485,4.541,4.4752,4.4151,4.4036,4.4005,4.4442,4.5879,4.621,4.7349,5.0591,5.1471,5.2641,5.5218,5.806,6.0098,6.0731,6.1235,6.132,6.0839,6.08,6.08,6.08,6.08,6.08,6.08,6.08,6.08,6.08,6.08,6.08,6.08,6.08,6.08,6.08,6.08,6.08,6.08,6.08,6.08,6.08,6.08,6.08,6.08,6.08,6.08,6.08,6.08,6.08,6.08,6.08,6.08,6.08,6.08,5.9992,5.88,5.7896,5.6742,5.5703,5.5703,5.5703,5.5703,5.5703,5.5703,5.5703,5.5703,5.5703,5.5588,5.5145,5.4761,5.4472,5.4376,5.3376,5.2596,5.3029,5.2414,5.1856,5.1856,5.2222,5.25,5.25,5.2895,5.3029,5.2558,5.25,5.25,5.25,5.25,5.2856,5.3722,5.3356,5.3299,5.378,5.4241,5.4664,5.503,5.5472,5.5703,5.5703,5.5703,5.5703,5.5703,5.5836,5.5907,5.5896,5.6097,5.6237,4.4364,4.5951,4.7401,4.6968,4.7184,4.7422,4.7118,0.0,0.0,0.0,0.0,4.4696,4.5909,4.6887,4.824,5.0496,5.151,5.3181,5.6569,5.9086,6.0646,6.0781,6.08,6.08,6.08,6.08,6.08,6.08,6.08,6.08,6.08,6.08,6.08,6.08,6.08,6.08,6.08,6.08,6.08,6.08,6.08,6.08,6.08,6.08,6.08,6.08,0.0,0.0,6.08,6.08,6.08,6.08,6.08,6.08,6.08,6.08,6.08,6.08,6.08,5.9781,5.8473,5.8338,5.7203,5.5857,5.5742,5.5703,5.5703,5.5703,5.5703,5.5703,5.5703,5.5703,5.5703,5.5703,5.5184,5.4876,5.5549,5.4491,5.3626,5.4357,5.3799,5.3203,5.3203,5.3318,5.3395,5.3395,5.351,5.3549,5.3414,5.3395,5.3395,5.3395,5.3395,5.376,5.4607,5.4684,5.4684,5.4684,5.4684,5.4991,5.5665,5.5703,5.5703,5.5703,5.5716,5.5737,5.5737,5.6033,5.6086,5.5959,5.6344,5.6527,4.4525,4.7212,4.9229,4.6834,4.7315,4.8188,4.7434,4.6518,0.0,0.0,0.0,4.6252,4.7791,4.9011,5.0598,5.3053,5.4925,5.6798,5.8781,5.9431,5.9973,6.0704,6.08,6.08,6.08,6.08,6.08,6.08,6.08,6.08,6.08,6.08,6.08,6.08,6.08,6.08,6.08,6.08,6.08,6.08,6.08,6.08,6.08,6.08,6.08,6.08,0.0,6.08,6.08,6.08,6.08,6.08,6.08,6.08,6.08,6.08,6.08,6.08,6.08,6.0146,5.9204,5.8531,5.7627,5.6656,5.5915,5.5703,5.5703,5.5703,5.5703,5.5703,5.5703,5.5703,5.5703,5.5703,5.5607,5.5549,5.5665,5.4953,5.4337,5.4472,5.3799,5.3203,5.3203,5.3818,5.4299,5.4299,5.4876,5.5068,5.4395,5.4299,5.4299,5.4299,5.4299,5.4626,5.5453,5.5511,5.5511,5.5511,5.5511,5.5568,5.5684,5.5703,5.5703,5.5703,5.5808,5.5872,5.5872,5.6854,5.6967,5.6266,5.7148,5.7573,4.406,4.6557,4.872,4.8053,4.9499,5.0929,5.039,4.9286,0.0,0.0,0.0,4.7732,4.8604,4.9968,5.197,5.5113,5.7155,5.8607,5.9396,5.9915,6.0339,6.0742,6.08,6.08,6.08,6.08,6.08,6.08,6.08,6.08,6.08,6.08,6.08,6.08,6.08,6.08,6.08,6.08,6.08,6.08,6.08,6.08,6.08,6.08,6.08,6.08,0.0,6.08,6.08,6.08,6.08,6.08,6.08,6.08,6.08,6.08,6.08,6.08,6.08,6.0223,5.9435,5.9069,5.805,5.6926,5.6522,5.6069,5.5703,5.5703,5.5703,5.5703,5.5703,5.5703,5.5703,5.5703,5.5703,5.5703,5.5703,5.5415,5.5145,5.5145,5.4818,5.4549,5.4549,5.4876,5.5145,5.5145,5.5453,5.5568,5.5203,5.5145,5.5145,5.5145,5.5145,5.5299,5.5665,5.5703,5.5703,5.5703,5.5703,5.5703,5.5703,5.5703,5.5728,5.5818,5.5863,5.6178,5.6699,5.7306,5.7637,5.7719,5.8239,5.8499,4.396,4.5866,4.7813,4.9087,5.1029,5.2719,5.3115,5.1748,5.0256,0.0,0.0,4.9616,4.9425,5.1086,5.3472,5.6519,5.8569,5.98,5.98,6.0377,6.08,6.08,6.08,6.08,6.08,6.08,6.08,6.08,6.08,6.08,6.08,6.08,6.08,6.08,6.08,6.08,6.08,6.08,6.08,6.08,6.08,6.08,6.08,6.08,6.08,6.08,6.08,6.08,6.08,6.08,6.08,6.08,6.08,6.08,6.08,6.08,6.08,6.08,6.08,6.0223,5.9473,5.9281,5.8204,5.6964,5.6772,5.6233,5.5703,5.5703,5.5703,5.5703,5.5703,5.5703,5.5703,5.5703,5.5703,5.5703,5.5703,5.5703,5.5703,5.5703,5.5703,5.5703,5.5703,5.5703,5.5703,5.5703,5.5703,5.5703,5.5703,5.5703,5.5703,5.5703,5.5703,5.5703,5.5703,5.5724,5.5726,5.5739,5.5726,5.5716,5.5738,5.5748,5.5827,5.5962,5.6009,5.6504,5.7478,5.7797,5.8285,5.8951,5.9251,5.9406,4.503,4.6203,4.7356,4.899,5.0144,5.1491,5.3846,5.2451,0.0,5.2565,0.0,0.0,5.0856,5.322,5.575,5.683,5.9088,6.0704,6.0704,6.0762,6.08,6.08,6.08,6.08,6.08,6.08,6.08,6.08,6.08,6.08,6.08,6.08,6.08,6.08,6.08,6.08,6.08,6.08,6.08,6.08,6.08,6.08,6.08,6.08,6.08,6.08,6.08,6.08,6.08,6.08,6.08,6.08,6.08,6.08,6.08,6.08,6.08,6.08,6.08,6.0223,5.9377,5.8627,5.7761,5.6849,5.603,5.5742,5.5703,5.5703,5.5703,5.5703,5.5703,5.5703,5.5703,5.5703,5.5703,5.5703,5.5703,5.5703,5.5703,5.5703,5.5703,5.5703,5.5703,5.5703,5.5703,5.5703,5.5703,5.5703,5.5703,5.5703,5.5703,5.5703,5.5703,5.5703,5.5703,5.5756,5.5827,5.5883,5.5769,5.5758,5.588,5.5889,5.5978,5.6167,5.6295,5.6804,5.7684,5.8564,5.9011,5.9108,5.9931,6.0303,4.3585,4.5432,4.7298,4.8971,5.0048,0.0,0.0,5.4145,5.4145,5.5318,5.5126,0.0,5.2568,5.4145,5.5992,5.6868,5.8684,6.0185,6.0723,6.08,6.08,6.08,6.08,6.08,6.08,6.08,6.08,6.08,6.08,6.08,6.08,6.08,6.08,6.08,6.08,6.08,6.08,6.08,6.08,6.08,6.08,6.08,6.08,6.08,6.08,6.08,6.08,6.08,6.08,6.08,6.08,6.08,6.08,6.08,6.08,6.08,6.08,6.08,6.08,6.0223,5.9454,5.9146,5.8107,5.6945,5.6618,5.6126,5.5703,5.5703,5.5703,5.5703,5.5703,5.5703,5.5703,5.5703,5.5703,5.5703,5.5703,5.5703,5.5703,5.5703,5.5703,5.5703,5.5703,5.5703,5.5703,5.5703,5.5703,5.5703,5.5703,5.5703,5.5738,5.5816,5.5943,5.6001,5.6001,5.6035,5.6063,5.6078,5.5967,5.5954,5.6078,5.6084,5.6425,5.7111,5.7182,5.7924,5.9388,5.9733,6.0186,6.0713,6.1045,6.1201,4.3489,4.5355,4.7298,4.8971,0.0,0.0,5.3914,5.4934,5.5722,5.7126,5.6299,5.5049,5.4145,5.4935,5.6024,5.689,5.869,6.0184,6.0781,6.0858,6.0858,6.0858,6.0846,6.0835,6.0835,6.0812,6.08,6.08,6.08,6.08,6.08,6.08,6.08,6.08,6.08,6.08,6.08,6.08,6.08,6.08,6.08,6.08,6.08,6.08,6.08,6.08,6.08,6.08,6.08,6.08,6.08,6.08,6.08,6.08,6.08,6.08,6.08,6.08,6.08,6.0223,5.9492,5.9492,5.855,5.7368,5.708,5.6579,5.6049,5.578,5.5703,5.5703,5.5703,5.5703,5.5703,5.5703,5.5703,5.5703,5.5703,5.5703,5.5703,5.5703,5.5703,5.5703,5.5703,5.5724,5.5737,5.5769,5.5748,5.5788,5.5844,5.5817,5.5854,5.5981,5.6128,5.6191,5.6191,5.6202,5.6222,5.6251,5.6191,5.6181,5.6261,5.6261,5.6738,5.7748,5.7751,5.8627,6.0406,6.0406,6.0855,6.1695,6.1695,6.1695,4.5344,4.622,4.7317,4.8971,5.0067,5.1385,5.3914,5.4511,5.5222,5.778,5.628,5.4761,5.5549,5.5756,5.6105,5.6953,5.9288,6.0987,6.0987,6.0987,6.0987,6.0987,6.0944,6.0911,6.0911,6.0835,6.08,6.08,6.08,6.08,6.08,6.08,6.08,6.08,6.08,6.08,6.08,6.08,6.08,6.08,6.08,6.08,6.08,6.08,6.08,6.08,6.08,6.08,6.08,6.08,6.08,6.08,6.08,6.08,6.08,6.08,6.08,6.08,6.08,6.0223,5.9492,5.9492,5.8954,5.8146,5.7272,5.7003,5.683,5.5953,5.5703,5.5703,5.5703,5.5703,5.5703,5.5703,5.5703,5.5703,5.5703,5.5703,5.5703,5.5695,5.5714,5.5714,5.5695,5.5756,5.5827,5.5899,5.5901,5.5965,5.6164,5.6084,5.607,5.6181,5.6197,5.6197,5.6197,5.6203,5.6258,5.6405,5.6482,5.6477,5.6426,5.6407,5.6892,5.7908,5.7927,5.8749,6.041,6.041,6.0859,6.1699,6.1699,6.1699,4.3778,4.5759,4.8009,4.9125,5.0933,5.2818,5.4184,5.4934,0.0,0.0,5.6853,5.6046,5.5104,5.5933,5.6879,5.7129,5.8817,6.0303,6.092,6.0987,6.0987,6.0987,6.0976,6.0965,6.0965,6.0955,6.0944,6.0944,6.0944,6.0944,6.0944,6.0911,6.088,6.0944,6.088,6.0869,6.0869,6.0922,6.0922,6.0869,6.0869,6.0846,6.08,6.08,6.08,6.08,6.08,6.08,6.08,6.08,6.08,6.08,6.08,6.08,6.08,6.08,6.08,6.08,6.08,6.0223,5.9492,5.9492,5.8954,5.8146,5.7272,5.7434,5.7607,5.6126,5.6126,5.6483,5.5857,5.5703,5.5703,5.5703,5.5703,5.5703,5.5703,5.5703,5.5728,5.5825,5.5808,5.5837,5.6027,5.5982,5.5986,5.6084,5.6117,5.6129,5.6186,5.6772,5.6972,5.639,5.6424,5.6484,5.6484,5.6488,5.6766,5.7417,5.7477,5.7476,5.7454,5.7454,5.8141,5.9629,5.9668,6.0195,6.1308,6.1308,6.1445,6.1699,6.1699,6.1699,4.4412,4.6817,4.9413,5.0606,5.2318,5.3944,5.4811,5.5658,5.6507,5.7415,5.7079,5.6424,5.576,5.6233,5.6831,5.7159,5.8356,5.9447,5.9978,6.0345,6.0557,6.0557,6.0537,6.0643,6.0971,6.0699,6.062,6.0967,6.0987,6.0987,6.0987,6.0965,6.0955,6.0987,6.0608,6.0423,6.0423,6.0128,6.0128,6.0423,6.0423,6.0575,6.0869,6.0823,6.08,6.08,6.08,6.08,6.08,6.08,6.08,6.08,6.08,6.08,6.08,6.08,6.08,6.08,6.08,6.0454,6.0012,6.0012,5.9685,5.9127,5.8261,5.8357,5.8415,5.6703,5.6609,5.6853,5.6001,5.5798,5.5808,5.5789,5.5769,5.5789,5.5872,5.5907,5.5919,5.6003,5.599,5.6009,5.6164,5.6121,5.6121,5.6256,5.6324,5.6455,5.6757,5.7077,5.7051,5.6543,5.6559,5.6738,5.709,5.7129,5.748,5.8359,5.8418,5.8555,5.8887,5.8594,5.9043,6.0371,6.039,6.082,6.1699,6.1699,6.1699,6.1699,6.1699,6.1699,4.624,4.8596,5.0981,5.2674,5.3867,5.483,5.5643,5.6433,5.7214,5.8016,5.6966,5.6155,5.6937,5.656,5.6365,5.709,5.7977,5.8613,5.8613,5.9281,5.9783,5.9783,5.9727,5.9969,6.0703,6.0054,5.9966,6.0834,6.0892,6.0931,6.1008,6.092,6.0882,6.0892,6.0052,5.9589,5.9589,5.8808,5.8808,5.9589,5.9589,6.0052,6.0882,6.0831,6.0823,6.0823,6.0823,6.0812,6.0812,6.0823,6.0812,6.08,6.0812,6.0812,6.08,6.08,6.08,6.08,6.08,6.08,6.08,6.08,6.08,6.0627,5.9773,5.9515,5.9172,5.7508,5.7068,5.6947,5.614,5.5978,5.6013,5.597,5.5932,5.5974,5.6167,5.6195,5.6236,5.6329,5.6319,5.6344,5.6461,5.6398,5.6379,5.6528,5.6769,5.7166,5.777,5.7241,5.6816,5.6738,5.664,5.6953,5.7832,5.789,5.8301,5.9258,5.9316,5.9668,6.0488,5.9746,5.9687,6.0508,6.0527,6.0918,6.1699,6.1699,6.1699,6.1699,6.1699,6.1699,4.4759,4.7257,5.0153,5.1838,5.3928,5.5673,5.5895,5.6097,5.629,5.6473,5.6232,5.6048,5.6219,5.6682,5.7077,5.7251,5.8014,5.8613,5.8613,5.8767,5.8874,5.8874,5.8865,5.8923,5.9097,5.8953,5.9195,6.0065,6.0142,6.0403,6.1041,6.0432,6.0075,6.0133,5.9244,5.8752,5.8752,5.8626,5.8626,5.8752,5.8752,5.9205,6.0074,6.0678,6.0955,6.0955,6.0955,6.0933,6.088,6.0944,6.088,6.0812,6.0858,6.0846,6.08,6.08,6.08,6.08,6.08,6.08,6.08,6.08,6.08,6.0658,5.9837,5.9619,5.9329,5.7691,5.728,5.7153,5.6348,5.6146,5.6175,5.6266,5.6207,5.6152,5.62,5.6206,5.6422,5.7212,5.7295,5.7494,5.8399,5.7899,5.7424,5.7554,5.871,5.9414,5.8944,5.875,5.8379,5.7695,5.7012,5.6953,5.7832,5.789,5.8535,6.0058,6.0137,6.0527,6.1387,6.0605,6.0547,6.1406,6.1426,6.1504,6.1699,6.1699,6.1699,6.1699,6.1699,6.1699,4.4741,4.7193,5.0102,5.2627,5.4294,5.5325,5.5372,5.5399,5.5436,5.5436,5.5717,5.5996,5.6003,5.6371,5.668,5.668,5.7056,5.7366,5.7366,5.7714,5.7985,5.7985,5.7985,5.8139,5.8574,5.8217,5.8333,5.9203,5.9281,5.9455,5.988,5.9475,5.9243,5.9281,5.8402,5.7939,5.7939,5.7541,5.7541,5.7939,5.7939,5.8384,5.9263,6.045,6.0987,6.0987,6.0987,6.0976,6.0916,6.0533,6.0569,6.0853,6.047,6.0567,6.0911,6.0911,6.0911,6.0911,6.0911,6.0911,6.0911,6.0911,6.0929,6.0867,6.0442,6.0395,6.0121,5.8434,5.8019,5.7799,5.66,5.6328,5.6374,5.6474,5.638,5.6313,5.6387,5.6383,5.6555,5.707,5.7452,5.7881,5.8476,5.8493,5.8568,5.9023,5.9512,5.9805,5.9785,5.9433,5.8867,5.7988,5.7871,5.8027,5.8476,5.8887,5.9648,6.0937,6.1015,6.123,6.168,6.1269,6.123,6.1699,6.1699,6.1699,6.1699,6.1699,6.1699,6.1699,6.1699,6.1699,4.4438,4.7012,5.0087,5.3377,5.4339,5.4482,5.4482,5.4536,5.4581,5.4581,5.5335,5.6012,5.6012,5.6012,5.6012,5.6012,5.6012,5.6012,5.6012,5.6622,5.7086,5.7086,5.7086,5.7366,5.8081,5.7501,5.7443,5.8314,5.8372,5.843,5.8593,5.8449,5.8372,5.8372,5.754,5.7086,5.7086,5.6351,5.6351,5.7086,5.7222,5.7675,5.843,5.9901,6.0594,6.0594,6.0729,6.0729,6.0506,5.9803,5.9927,6.0496,5.9947,6.0149,6.0794,6.0929,6.0987,6.0987,6.0987,6.0987,6.0997,6.102,6.105,6.1092,6.1132,6.113,6.0822,5.9387,5.8914,5.8566,5.7236,5.6805,5.6761,5.6816,5.6611,5.6456,5.6578,5.6601,5.6699,5.6992,5.7851,5.8515,5.8359,5.9043,5.9805,6.0312,5.9961,5.9863,6.0547,5.9902,5.9121,5.8418,5.8848,5.9258,5.9394,6.0019,6.0762,6.164,6.1699,6.1699,6.1699,6.1699,6.1699,6.1699,6.1699,6.1699,6.1699,6.1699,6.1699,6.1699,6.1699,6.1699,4.1217,4.4797,4.9103,5.1849,5.3083,5.3663,5.3663,5.3672,5.3672,5.3672,5.4909,5.6012,5.6012,5.6012,5.6012,5.6012,5.6012,5.6012,5.6012,5.6109,5.6158,5.6158,5.6158,5.6225,5.6341,5.6244,5.6545,5.7415,5.7473,5.7811,5.8574,5.7888,5.7473,5.7473,5.6622,5.6158,5.6158,5.607,5.607,5.6177,5.6932,5.7357,5.7512,5.8479,5.8914,5.8953,5.9726,5.9582,5.8819,5.878,5.8742,5.8817,5.9505,5.9823,5.9965,6.0717,6.0987,6.0987,6.0987,6.0987,6.1009,6.1076,6.1087,6.1116,6.1246,6.0832,6.0318,6.0138,5.9628,5.9099,5.8885,5.8261,5.7714,5.7715,5.7148,5.6581,5.6601,5.6601,5.7051,5.8555,6.0117,6.0957,6.0195,6.0781,6.1152,6.0508,6.0957,6.1406,6.1504,6.0762,6.0195,6.0078,5.9551,5.9473,6.0176,6.0332,6.0762,6.164,6.1699,6.1699,6.1699,6.1699,6.1699,6.1699,6.1699,6.1699,6.1699,6.1699,6.1699,6.1699,6.1699,6.1699,4.2323,4.5184,4.8253,5.0821,5.1757,5.2163,5.2666,5.2763,5.2763,5.2763,5.3749,5.4755,5.5238,5.5702,5.5857,5.5393,5.5722,5.5664,5.4735,5.5412,5.5838,5.5374,5.5741,5.6012,5.6012,5.6012,5.6167,5.6545,5.6564,5.6747,5.7114,5.6786,5.6564,5.6564,5.6197,5.6012,5.6012,5.6012,5.6012,5.6012,5.639,5.6564,5.6603,5.7482,5.8139,5.8632,5.901,5.8943,5.8518,5.8053,5.8112,5.85,5.8423,5.8674,5.9196,6.0065,6.0402,6.0511,6.1004,6.1186,6.123,6.1259,6.1326,6.1393,6.144,6.1266,6.0946,6.048,6.0115,5.9765,5.9316,5.8926,5.8633,5.8633,5.834,5.8066,5.8066,5.7676,5.7832,5.9531,6.0469,6.0996,6.1113,6.1445,6.1562,6.1191,6.1445,6.1699,6.1699,6.1367,6.0937,6.0449,6.0527,6.0547,6.041,6.0859,6.1289,6.168,6.1699,6.1699,6.1699,6.1699,6.1699,6.1699,6.1699,6.1699,6.1699,6.1699,6.1699,6.1699,6.1699,6.1699,4.2705,4.4697,4.6419,4.8972,5.0105,5.077,5.1409,5.1718,5.1873,5.1873,5.255,5.3362,5.402,5.4813,5.518,5.4561,5.4967,5.4929,5.3672,5.4581,5.5142,5.4542,5.5006,5.5451,5.5664,5.5702,5.578,5.5993,5.6012,5.6012,5.6012,5.6012,5.6012,5.6012,5.6012,5.6012,5.6012,5.6012,5.6012,5.6012,5.6012,5.6012,5.6031,5.6661,5.7334,5.7996,5.8185,5.8139,5.7897,5.7273,5.7395,5.7946,5.754,5.7769,5.8448,5.932,5.9804,6.0112,6.0773,6.117,6.1417,6.1439,6.1527,6.1607,6.1618,6.1655,6.1562,6.0918,6.0723,6.0586,5.998,5.9668,5.9492,5.9492,5.9355,5.9199,5.9199,5.8848,5.8906,6.0156,6.0586,6.0937,6.1582,6.1699,6.1699,6.1699,6.1699,6.1699,6.1699,6.1699,6.1445,6.0801,6.1308,6.1445,6.0781,6.1328,6.1699,6.1699,6.1699,6.1699,6.1699,6.1699,6.1699,6.1699,6.1699,6.1699,6.1699,6.1699,6.1699,6.1699,6.1699,6.1699,4.0081,4.1622,4.2879,4.5439,4.7927,4.9765,4.9823,5.0422,5.0975,5.0975,5.166,5.2287,5.2326,5.3033,5.3614,5.3575,5.3594,5.3594,5.3517,5.3575,5.3614,5.3575,5.3594,5.3942,5.4774,5.4851,5.518,5.5935,5.6012,5.6012,5.6012,5.6012,5.6012,5.6012,5.6012,5.6012,5.6012,5.6012,5.6012,5.6012,5.6012,5.6012,5.6012,5.6051,5.616,5.6349,5.7066,5.6893,5.6137,5.6223,5.6278,5.6408,5.7244,5.7614,5.7766,5.8637,5.944,6.0093,6.0151,6.0702,6.1426,6.1543,6.1583,6.1612,6.1677,6.1699,6.1699,6.164,6.1621,6.1621,6.1582,6.0957,6.0332,6.0332,5.9746,5.9199,5.9199,5.9765,6.0293,6.0371,6.1074,6.164,6.1699,6.1699,6.1699,6.1699,6.1699,6.1699,6.1699,6.1699,6.168,6.164,6.168,6.168,6.164,6.168,6.1699,6.1699,6.1699,6.1699,6.1699,6.1699,6.1699,6.1699,6.1699,6.1699,6.1699,6.1699,6.1699,6.1699,6.1699,6.1699,3.8798,4.0539,4.2492,4.4523,4.6129,4.7482,4.8604,4.9513,5.0132,5.0132,5.079,5.137,5.137,5.2531,5.3323,5.2763,5.313,5.3111,5.1989,5.2782,5.3285,5.2724,5.3149,5.3846,5.4716,5.4793,5.5122,5.5935,5.6012,5.6012,5.6012,5.6012,5.6012,5.6012,5.6012,5.6012,5.6012,5.6012,5.6012,5.6012,5.6012,5.6012,5.6012,5.6012,5.6064,5.6214,5.649,5.644,5.6197,5.6241,5.6256,5.63,5.6626,5.6775,5.6931,5.8368,5.9108,5.9541,6.0675,6.1305,6.1603,6.1653,6.1656,6.1676,6.1699,6.1699,6.1699,6.1699,6.1699,6.1699,6.1699,6.1465,6.123,6.123,6.1015,6.0801,6.0801,6.1035,6.123,6.123,6.1484,6.1699,6.1699,6.1699,6.1699,6.1699,6.1699,6.1699,6.1699,6.1699,6.1699,6.1699,6.1699,6.1699,6.1699,6.1699,6.1699,6.1699,6.1699,6.1699,6.1699,6.1699,6.1699,6.1699,6.1699,6.1699,6.1699,6.1699,6.1699,6.1699,6.1699,6.1699,3.7748,3.9649,4.1932,4.3363,4.4562,4.5838,4.756,4.8411,4.8991,4.9591,5.0132,5.0569,5.084,5.1854,5.2434,5.1854,5.224,5.2221,5.1053,5.1912,5.2414,5.1834,5.2279,5.2975,5.3846,5.4194,5.4716,5.5528,5.5857,0.0,5.6012,5.6012,5.6012,5.6012,5.6012,5.6012,5.6012,5.6012,5.6012,5.6012,5.6012,5.6012,5.6012,5.6012,5.6094,5.6222,5.6222,5.6266,5.6292,5.634,5.637,5.6374,5.6397,5.6581,5.6971,5.8142,5.8946,5.9633,6.0804,6.142,6.1699,6.1699,6.1699,6.1699,6.1699,6.1699,6.1699,6.1699,6.1699,6.1699,6.1699,6.1699,6.1699,6.1699,6.1699,6.1699,6.1699,6.1699,6.1699,6.1699,6.1699,6.1699,6.1699,6.1699,6.1699,6.1699,6.1699,6.1699,6.1699,6.1699,6.1699,6.1699,6.1699,6.1699,6.1699,6.1699,6.1699,6.1699,6.1699,6.1699,6.1699,6.1699,6.1699,6.1699,6.1699,6.1699,6.1699,6.1699,6.1699,6.1699,6.1699,6.1699,0.0,0.0,0.0,4.1777,4.3247,4.4968,4.6631,4.7018,4.7521,4.9262,4.9629,4.9881,5.0705,5.0859,5.0859,5.0898,5.0898,5.0898,5.0898,5.0898,5.0898,5.0898,5.0898,5.1235,5.2132,5.2995,5.3865,5.4735,5.5548,5.6012,5.6012,5.6012,5.6012,5.6012,5.6012,5.6012,5.6012,5.6012,5.6012,5.6012,5.6012,5.6012,5.6012,5.6012,5.6114,5.6292,5.6292,5.6292,5.6324,5.645,5.6511,5.6515,5.658,5.7129,5.7871,5.793,5.8965,6.0371,6.043,6.0976,6.166,6.166,6.166,6.166,6.166,6.168,6.1699,6.1699,6.1699,6.1699,6.1699,6.1699,6.1699,6.1699,6.1699,6.1699,6.1699,6.1699,6.1699,6.1699,6.1699,6.1699,6.1699,6.1699,6.1699,6.1699,6.1699,6.1699,6.1699,6.1699,6.1699,6.1699,6.1699,6.1699,6.1699,6.1699,6.1699,6.1699,6.1699,6.1699,6.1699,6.1699,6.1699,6.1699,6.1699,6.1699,6.1699,6.1699,6.1699,6.1699,6.1699,6.1699,3.7077,0.0,0.0,0.0,0.0,0.0,4.491,4.5297,4.578,4.7463,4.7811,4.8275,4.9765,5.0035,5.0221,5.0801,5.0898,5.0898,5.0898,5.0898,5.0898,5.0898,5.0898,5.1235,5.2132,5.2995,5.3865,0.0,5.5548,5.6012,5.6012,5.6012,5.6012,5.6012,5.6012,5.6012,5.6012,5.6012,5.6012,5.6012,5.6012,5.6012,5.6012,5.6012,5.6114,5.6292,5.6292,5.6374,5.6514,5.6558,5.6579,5.658,5.6582,5.6758,5.7109,5.8379,5.9121,5.9707,6.0918,6.1094,6.0762,6.0762,6.0762,6.0762,6.0762,6.1191,6.1699,6.1699,6.1699,6.1699,6.1699,6.1699,6.1699,6.1699,6.1699,6.1699,6.1699,6.1699,6.1699,6.1699,6.1699,6.1699,6.1699,6.1699,6.1699,6.1699,6.1699,6.1699,6.1699,6.1699,6.1699,6.1699,6.1699,6.1699,6.1699,6.1699,6.1699,6.1699,6.1699,6.1699,6.1699,6.1699,6.1699,6.1699,6.1699,6.1699,6.1699,6.1699,6.1699,6.1699,6.1699,6.1699,0.0,0.0,0.0,0.0,0.0,0.0,4.4188,4.4323,4.4639,4.667,4.7096,4.7521,4.8894,4.9165,4.932,4.9784,5.0163,5.0511,5.084,5.0898,5.0898,5.0898,5.0898,5.1091,5.1602,5.2453,5.3169,5.3672,5.4813,5.5644,5.5993,5.5683,5.5509,5.5509,5.5161,5.5122,5.5509,5.5509,5.5664,5.6012,5.6012,5.6026,5.6079,5.6079,5.6187,5.6381,5.6381,5.6471,5.6601,5.6601,5.6601,5.6601,5.6601,5.6816,5.7265,5.8281,5.8887,5.9336,6.0312,6.0312,5.9902,5.9902,6.0137,6.039,6.039,6.1015,6.1699,6.1699,6.1699,6.1699,6.1699,6.1699,6.1699,6.1699,6.1699,6.1699,6.1699,6.1699,6.1699,6.1699,6.1699,6.1699,6.1699,6.1699,6.1699,6.1699,6.1699,6.1699,6.1699,6.1699,6.1699,6.1699,6.1699,6.1699,6.1699,6.1699,6.1699,6.1699,6.1699,6.1699,6.1699,6.1699,6.1699,6.1699,6.1699,6.1699,6.1699,6.1699,6.1699,6.1699,6.1699,6.1699,3.9074,4.037,0.0,0.0,4.1545,0.0,4.3982,4.3711,4.3827,4.6187,4.6593,4.6825,4.7792,4.8043,4.814,4.8237,4.8991,4.9842,5.0647,5.084,5.0898,5.0898,5.0898,5.0898,5.0898,5.1699,5.221,5.221,5.3807,5.5064,5.5702,5.5142,5.4755,5.4658,5.3904,5.3865,5.4658,5.4658,5.5064,5.5877,5.5877,5.5986,5.6194,5.6194,5.6305,5.6508,5.6508,5.6549,5.6601,5.6601,5.6601,5.6601,5.6601,5.707,5.7773,5.7851,5.8398,5.9062,5.918,5.914,5.9062,5.918,5.9687,6.0273,6.0371,6.1015,6.1699,6.1699,6.1699,6.1699,6.1699,6.1699,6.1699,6.1699,6.1699,6.1699,6.1699,6.1699,6.1699,6.1699,6.1699,6.1699,6.1699,6.1699,6.1699,6.1699,6.1699,6.1699,6.1699,6.1699,6.1699,6.1699,6.1699,6.1699,6.1699,6.1699,6.1699,6.1699,6.1699,6.1699,6.1699,6.1699,6.1699,6.1699,6.1699,6.1699,6.1699,6.1699,6.1699,6.1699,6.1699,6.1699,4.1465,4.2208,4.292,4.1982,0.0,0.0,4.2589,4.2376,4.2589,4.3788,4.3479,4.3479,4.5045,4.5877,4.6542,4.7231,4.8082,4.8952,4.9803,5.0492,5.0898,5.0898,5.0898,5.0898,5.0898,5.1699,5.221,5.221,5.3807,5.4561,5.402,5.4503,5.4484,5.3768,5.3594,5.3575,5.3749,5.3749,5.4175,5.5026,5.5026,5.5444,5.6194,5.6194,5.6305,5.6508,5.6508,5.6549,5.6601,5.6601,5.6601,5.6601,5.6601,5.6699,5.6933,5.7637,5.8008,5.8242,5.8965,5.873,5.8262,5.8965,5.9316,5.9551,6.0195,6.1015,6.1699,6.1699,6.1699,6.1699,6.1699,6.1699,6.1699,6.1699,6.1699,6.1699,6.1699,6.1699,6.1699,6.1699,6.1699,6.1699,6.1699,6.1699,6.1699,6.1699,6.1699,6.1699,6.1699,6.1699,6.1699,6.1699,6.1699,6.1699,6.1699,6.1699,6.1699,6.1699,6.1699,6.1699,6.1699,6.1699,6.1699,6.1699,6.1699,6.1699,6.1699,6.1699,6.1699,6.1699,6.1699,6.1699,4.3054,4.3402,4.383,4.2923,0.0,0.0,0.0,4.2318,4.2376,4.3692,4.3266,4.3053,4.4362,4.4929,4.5336,4.578,4.6922,4.7908,4.8333,4.9494,5.0453,5.084,5.0898,5.0898,5.0898,5.1312,5.1738,5.2171,5.3014,5.3498,5.3498,5.3498,5.3304,5.2859,5.2434,5.2414,5.284,5.284,5.3498,5.4793,5.4793,5.5315,5.625,5.625,5.6359,5.6554,5.6554,5.6579,5.6601,5.6601,5.6601,5.6601,5.6601,5.6601,5.664,5.709,5.7246,5.7305,5.7754,5.789,5.7969,5.8418,5.9121,5.9863,6.0273,6.1015,6.1699,6.1699,6.1699,6.1699,6.1699,6.1699,6.1699,6.1699,6.1699,6.1699,6.1699,6.1699,6.1699,6.1699,6.1699,6.1699,6.1699,6.1699,6.1699,6.1699,6.1699,6.1699,6.1699,6.1699,6.1699,6.1699,6.1699,6.1699,6.1699,6.1699,6.1699,6.1699,6.1699,6.1699,6.1699,6.1699,6.1699,6.1699,6.1699,6.1699,6.1699,6.1699,6.1699,6.1699,6.1699,6.1699,0.0,0.0,4.4729,0.0,0.0,4.3434,0.0,0.0,0.0,4.3614,4.3305,4.3073,4.3943,4.4091,4.4149,4.4323,0.0,0.0,0.0,4.8217,0.0,5.0318,5.0415,5.0415,5.0415,5.0415,5.079,5.1641,5.1854,5.226,5.2956,5.2492,5.2132,5.195,5.1273,5.1235,5.1931,5.195,5.2821,5.4542,5.4556,5.5171,5.6292,5.6328,5.6421,5.6601,5.6601,5.6601,5.6601,5.6601,5.6601,5.6601,5.6601,5.6601,5.6601,5.6601,5.6601,5.6621,5.6797,5.7305,5.7949,5.8281,5.9414,6.0644,6.0644,6.1133,6.1699,6.1699,6.1699,6.1699,6.1699,6.1699,6.1699,6.1699,6.1699,6.1699,6.1699,6.1699,6.1699,6.1699,6.1699,6.1699,6.1699,6.1699,6.1699,6.1699,6.1699,6.1699,6.1699,6.1699,6.1699,6.1699,6.1699,6.1699,6.1699,6.1699,6.1699,6.1699,6.1699,6.1699,6.1699,6.1699,6.1699,6.1699,6.1699,6.1699,6.1699,6.1699,6.1699,6.1699,6.1699,6.1699,0.0,0.0,0.0,0.0,4.3971,0.0,0.0,0.0,4.1854,4.1338,0.0,4.1332,4.2144,0.0,0.0,0.0,0.0,0.0,4.5845,4.6786,4.7715,4.8585,4.8682,4.8682,4.8682,4.8682,4.9049,4.9919,5.0635,5.1091,5.1188,5.1834,5.1854,5.1072,5.0956,5.0956,5.1053,5.1053,5.1931,5.366,5.3714,5.4647,5.6292,5.6419,5.6525,5.6601,5.6601,5.6601,5.6601,5.6601,5.6601,5.6601,5.6601,5.6601,5.6601,5.6601,5.6601,5.6719,5.748,5.7812,5.8144,5.9629,6.0762,6.1543,6.1543,6.1621,6.1699,6.1699,6.1699,6.1699,6.1699,6.1699,6.1699,6.1699,6.1699,6.1699,6.1699,6.1699,6.1699,6.1699,6.1699,6.1699,6.1699,6.1699,6.1699,6.1699,6.1699,6.1699,6.1699,6.1699,6.1699,6.1699,6.1699,6.1699,6.1699,6.1699,6.1699,6.1699,6.1699,6.1699,6.1699,6.1699,6.1699,6.1699,6.1699,6.1699,6.1699,6.1699,6.1699,6.1699,6.1699,6.1699,0.0,0.0,0.0,0.0,0.0,0.0,4.1989,0.0,4.1332,0.0,0.0,0.0,0.0,0.0,0.0,0.0,4.3614,0.0,0.0,0.0,4.5761,0.0,0.0,0.0,4.8392,4.8392,4.8546,4.8914,4.9726,5.0202,5.0202,5.0983,5.1273,5.0917,5.0898,5.113,5.1641,5.1641,5.2547,5.4308,5.433,5.5078,5.6416,5.648,5.6548,5.6601,5.6601,5.6601,5.6601,5.6601,5.6601,5.6601,5.6601,5.6601,5.6601,5.6601,5.6601,5.664,5.7012,5.7812,5.8926,6.0605,6.1406,6.1699,6.1699,6.1699,6.1699,6.1699,6.1699,6.1699,6.1699,6.1699,6.1699,6.1699,6.1699,6.1699,6.1699,6.1699,6.1699,6.1699,6.1699,6.1699,6.1699,6.1699,6.1699,6.1699,6.1699,6.1699,6.1699,6.1699,6.1699,6.1699,6.1699,6.1699,6.1699,6.1699,6.1699,6.1699,6.1699,6.1699,6.1699,6.1699,6.1699,6.1699,6.1699,6.1699,6.1699,6.1699,6.1699,6.1699,6.1699,6.1699,4.6465,0.0,0.0,0.0,0.0,0.0,0.0,0.0,0.0,0.0,0.0,0.0,0.0,0.0,0.0,0.0,0.0,4.3305,0.0,4.3518,0.0,0.0,0.0,0.0,0.0,4.7695,4.7787,4.8042,4.8662,4.9225,4.9724,5.0306,5.0836,5.1327,5.1347,5.1754,5.2633,5.2401,5.3165,5.4914,5.4713,5.5287,5.6508,5.652,5.6555,5.6601,5.6601,5.6601,5.6601,5.6601,5.6601,5.6601,5.6601,5.6601,5.6601,5.6601,5.6601,5.6621,5.6875,5.7949,5.9433,6.0879,6.1348,6.1387,6.1621,6.1699,6.1699,6.1699,6.1699,6.1699,6.1699,6.1699,6.1699,6.1699,6.1699,6.1699,6.1699,6.1699,6.1699,6.1699,6.1699,6.1699,6.1699,6.1699,6.1699,6.1699,6.1699,6.1699,6.1699,6.1699,6.1699,6.1699,6.1699,6.1699,6.1699,6.1699,6.1699,6.1699,6.1699,6.1699,6.1699,6.1699,6.1699,6.1699,6.1699,6.1699,6.1699,6.1699,6.1699,6.1699,6.1699,6.1699,0.0,0.0,0.0,4.4016,0.0,0.0,0.0,0.0,4.2995,0.0,0.0,0.0,0.0,0.0,0.0,0.0,0.0,0.0,0.0,0.0,0.0,0.0,0.0,0.0,0.0,4.5884,4.6267,0.0,4.7268,4.8034,4.98,4.9921,5.0704,5.2407,5.2446,5.2879,5.374,5.2918,5.3323,5.4983,5.4276,5.4828,5.6508,5.6578,5.6601,5.6601,5.6601,5.6601,5.6601,5.6601,5.6601,5.6601,5.6601,5.6601,5.6601,5.6601,5.6601,5.6719,5.7578,5.8457,5.9336,6.0176,6.0449,6.0605,6.1445,6.1699,6.1699,6.1699,6.1699,6.1699,6.1699,6.1699,6.1699,6.1699,6.1699,6.1699,6.1699,6.1699,6.1699,6.1699,6.1699,6.1699,6.1699,6.1699,6.1699,6.1699,6.1699,6.1699,6.1699,6.1699,6.1699,6.1699,6.1699,6.1699,6.1699,6.1699,6.1699,6.1699,6.1699,6.1699,6.1699,6.1699,6.1699,6.1699,6.1699,6.1699,6.1699,6.1699,6.1699,6.1699,6.1699,6.1699,0.0,0.0,4.744,4.5031,0.0,0.0,0.0,0.0,0.0,0.0,0.0,0.0,0.0,0.0,0.0,0.0,0.0,0.0,0.0,0.0,0.0,0.0,0.0,0.0,0.0,0.0,0.0,0.0,4.6931,0.0,4.8156,4.9266,5.0439,5.1593,5.2201,5.2922,5.3798,5.3502,5.3958,5.5134,5.4879,5.5389,5.6578,5.6582,5.6601,5.6601,5.6601,5.6601,5.6601,5.6601,5.6601,5.6601,5.6601,5.6601,5.6601,5.6601,5.6601,5.6719,5.7598,5.8086,5.8476,5.9336,5.9609,5.9765,6.0586,6.084,6.0957,6.1543,6.1699,6.1699,6.1699,6.1699,6.1699,6.1699,6.1699,6.1699,6.1699,6.1699,6.1699,6.1699,6.1699,6.1699,6.1699,6.1699,6.1699,6.1699,6.1699,6.1699,6.1699,6.1699,6.1699,6.1699,6.1699,6.1699,6.1699,6.1699,6.1699,6.1699,6.1699,6.1699,6.1699,6.1699,6.1699,6.1699,6.1699,6.1699,6.1699,6.1699,6.1699,6.1699,6.1699,6.1699,4.6308,4.7129,0.0,4.5806,4.5779,0.0,4.3144,0.0,4.3722,0.0,0.0,0.0,0.0,0.0,0.0,0.0,0.0,0.0,0.0,4.2595,0.0,0.0,0.0,0.0,0.0,0.0,4.5697,4.6041,4.6303,0.0,0.0,4.8774,5.0221,5.1686,5.2272,5.313,5.4321,5.3713,5.3867,5.4769,5.4457,5.4954,5.6133,5.6133,5.6308,5.6601,5.6601,5.6601,5.6601,5.6601,5.6601,5.6601,5.6601,5.6601,5.6601,5.6601,5.6601,5.668,5.7246,5.7441,5.7578,5.8457,5.873,5.8887,5.9726,6.0176,6.0527,6.1074,6.1465,6.1699,6.1699,6.1699,6.1699,6.1699,6.1699,6.1699,6.1699,6.1699,6.1699,6.1699,6.1699,6.1699,6.1699,6.1699,6.1699,6.1699,6.1699,6.1699,6.1699,6.1699,6.1699,6.1699,6.1699,6.1699,6.1699,6.1699,6.1699,6.1699,6.1699,6.1699,6.1699,6.1699,6.1699,6.1699,6.1699,6.1699,6.1699,6.1699,6.1699,6.1699,6.1699,6.1699]}]]